GFSGBSN_500_spd_000.txt.gz
Wind_Speed
46 39 34 30 32 41 36 31 31 34 33 32 31 29 29 28 28 27 27 28 29 31 31 32 29 28 28 29 30 29 23 27 33 35 37 37 38 41 42 43 42 41 40 40 37 34 36
42 44 42 35 31 32 43 40 35 33 36 36 35 33 32 31 30 30 29 29 29 29 30 30 31 29 31 31 34 34 30 26 31 36 38 39 38 40 43 42 44 44 43 44 44 40 39
39 36 44 43 39 35 33 40 43 38 37 39 39 37 36 34 32 33 33 31 32 31 31 30 32 31 30 34 33 32 34 30 29 35 40 39 40 40 38 40 42 42 42 42 44 44 42
45 42 39 41 45 41 38 35 37 43 42 39 41 42 40 38 36 34 33 32 31 33 33 31 31 32 30 32 33 33 36 33 34 35 39 43 43 43 41 40 42 42 43 44 43 46 47
47 45 43 42 43 46 43 42 41 38 44 45 43 42 43 43 40 38 34 33 31 31 31 31 31 31 29 31 33 35 37 36 36 38 40 43 46 45 45 46 46 46 45 45 45 46 47
49 49 48 47 45 46 48 48 46 46 40 44 47 45 43 44 44 43 41 36 34 33 32 33 33 33 32 30 32 33 35 39 40 40 40 40 47 49 49 47 47 46 47 46 45 43 45
51 53 54 55 52 52 51 51 52 49 50 46 43 48 47 45 44 45 44 41 38 36 36 36 34 33 31 31 33 35 37 40 42 41 39 42 47 49 45 45 46 47 47 46 48 50 50
60 59 57 58 61 60 59 57 55 55 54 55 51 47 47 49 47 45 42 42 42 40 38 37 36 36 37 36 36 39 41 41 42 41 44 47 46 44 48 50 50 50 50 48 49 51 52
69 68 66 62 59 61 63 63 61 61 59 59 57 53 50 48 50 46 44 42 41 42 41 37 39 37 38 41 40 38 41 44 43 44 43 46 45 48 51 52 54 53 53 52 53 50 55
75 74 71 67 65 60 60 60 63 59 59 61 59 58 54 51 46 46 46 44 41 40 42 38 41 41 37 38 42 45 45 44 46 43 47 51 48 49 50 52 50 51 48 46 47 49 52
75 70 65 63 60 56 51 52 55 51 47 56 51 56 59 52 49 44 46 43 39 35 42 42 43 41 39 42 44 45 47 47 45 43 46 44 44 47 52 45 44 46 41 44 46 49 51
68 66 57 52 49 47 45 43 49 52 53 41 41 40 55 53 47 45 43 41 39 39 43 42 41 41 42 44 46 46 47 47 41 39 41 43 46 47 46 45 47 44 42 46 47 49 55
64 56 53 46 40 39 36 36 44 45 46 43 43 38 45 53 48 45 41 38 40 39 38 38 38 38 42 44 45 46 43 37 35 34 37 37 37 38 39 40 41 44 44 40 46 53 60
56 55 48 37 29 26 27 32 41 46 50 48 28 35 39 47 47 42 39 38 40 37 36 37 37 37 39 41 41 38 39 34 30 31 26 31 29 33 32 31 36 37 41 47 40 52 52
55 55 41 26 18 17 20 23 34 52 51 45 39 40 35 42 43 41 40 37 33 34 35 34 32 35 35 36 37 38 34 27 22 20 20 22 28 30 32 32 32 35 44 36 40 35 44
57 50 31 8 2 19 19 20 34 50 47 43 34 39 37 39 41 40 39 34 33 33 32 29 30 31 29 31 27 28 22 21 21 19 23 24 25 24 27 31 34 37 33 42 46 39 40
55 42 21 9 9 4 19 27 44 62 47 41 36 41 39 39 40 40 34 30 32 32 27 26 26 25 26 22 17 16 12 8 9 6 11 13 23 22 30 28 27 35 38 42 47 46 37
52 37 18 13 14 15 21 37 35 58 55 46 48 42 31 33 38 38 33 30 29 26 24 23 22 22 17 17 12 5 12 13 11 7 8 12 20 23 21 26 23 26 32 37 49 44 28
49 32 15 8 8 24 29 36 52 53 45 48 48 48 34 34 37 35 29 29 26 24 23 21 18 19 11 11 11 8 7 15 17 12 11 14 11 6 15 15 22 27 39 41 42 41 37
45 26 11 6 26 25 39 43 37 42 46 48 40 42 44 39 36 31 29 27 25 24 21 19 18 16 7 8 6 3 11 9 5 6 7 15 3 6 12 9 17 17 37 40 44 46 25
42 22 9 15 28 35 39 42 40 43 44 41 44 35 38 37 31 28 30 27 25 23 19 20 19 13 6 4 1 3 1 3 2 2 3 3 9 12 2 6 16 21 26 30 38 42 24
38 15 6 29 37 41 40 45 44 41 40 29 51 34 29 26 29 29 28 24 23 21 20 21 18 13 10 9 7 4 5 7 15 16 14 15 22 17 13 16 18 20 26 39 36 22 15
32 4 13 31 37 38 44 46 41 39 37 32 36 38 29 28 24 29 27 26 25 20 20 21 17 12 12 15 10 10 7 4 9 17 26 24 24 20 9 7 14 11 16 17 10 18 38
27 4 22 39 35 37 42 33 33 36 36 40 36 35 36 26 26 29 25 27 25 18 22 23 19 13 20 15 12 13 10 3 2 14 19 22 28 22 18 16 19 17 17 20 22 18 18
23 15 29 38 38 45 43 31 30 38 33 35 29 33 32 28 32 30 28 25 20 20 21 20 17 18 21 19 20 18 16 9 5 4 8 12 17 16 17 16 16 19 18 22 22 18 19
23 17 34 38 44 47 40 37 32 37 34 36 41 27 29 26 30 28 26 22 21 19 21 21 17 21 23 22 20 18 15 14 11 8 5 9 9 10 8 12 13 13 12 14 16 16 13
21 13 39 40 45 45 41 36 33 31 31 30 31 30 35 28 27 29 23 23 21 17 18 20 17 23 29 24 18 19 16 14 17 18 13 9 7 7 7 6 8 10 12 14 16 15 17
21 11 45 46 51 54 43 41 38 36 27 28 28 24 32 33 29 26 23 22 19 20 13 14 15 19 28 24 19 20 12 9 13 15 18 15 12 10 7 5 6 9 10 12 12 13 15
22 10 43 53 60 58 48 41 35 36 34 30 28 27 30 32 29 29 25 19 16 19 13 15 14 21 24 24 21 21 17 11 12 15 13 14 14 13 10 13 10 10 10 14 15 14 15

GFSGBSN_500_spd_003.txt.gz
Wind_Speed
39 39 39 35 36 41 36 33 37 39 33 32 36 34 32 30 27 26 25 25 26 28 29 29 29 28 29 29 28 26 24 25 27 28 31 34 35 37 37 38 45 48 40 40 37 34 33
39 40 40 39 38 37 42 37 34 38 41 34 35 37 35 33 31 28 27 27 26 26 26 26 26 26 27 28 30 26 25 25 29 32 33 32 34 37 37 37 39 44 45 45 45 41 40
39 39 38 35 34 36 37 42 38 36 38 43 37 38 39 36 34 32 30 28 27 28 27 27 26 26 26 29 25 26 25 26 27 30 34 35 34 35 36 37 40 39 43 46 46 44 42
40 40 40 40 40 36 38 39 40 40 39 39 43 41 39 41 38 36 33 32 29 29 29 27 26 25 26 27 25 26 27 28 28 30 33 35 37 38 40 40 41 42 43 44 44 44 45
41 43 42 41 40 42 42 41 43 39 43 42 40 45 43 41 42 41 38 35 33 30 30 28 26 26 25 26 28 26 28 31 31 33 32 36 38 39 40 43 45 46 45 44 46 46 47
44 47 50 50 50 46 46 48 47 45 44 46 44 42 46 45 43 43 42 39 36 34 31 29 27 28 26 26 27 27 27 28 30 33 35 38 40 43 44 41 43 44 48 50 50 50 50
51 54 56 57 57 57 55 50 53 52 49 49 51 47 44 48 46 44 43 43 41 38 35 34 33 30 28 28 28 29 30 30 32 34 36 39 42 43 42 41 43 48 54 54 54 53 53
62 65 68 69 68 67 64 60 54 56 56 53 53 53 49 47 46 47 44 42 42 42 39 38 36 33 32 31 30 31 32 34 37 37 38 41 42 42 45 47 47 49 52 55 55 53 56
67 71 79 79 75 69 64 62 58 57 59 59 57 58 55 52 49 46 45 44 44 42 41 39 39 38 38 37 36 34 36 36 38 42 44 45 43 46 50 51 51 51 51 53 55 52 53
73 82 83 73 67 66 64 58 57 56 58 59 60 60 59 58 54 48 43 46 46 42 43 39 39 40 40 39 40 40 38 39 41 44 48 49 47 49 50 51 52 52 51 52 54 56 56
82 86 77 71 64 59 55 52 49 52 53 52 48 58 57 60 57 50 48 49 44 44 44 42 40 38 38 40 41 40 41 43 47 51 53 51 50 52 54 52 56 58 53 55 57 59 61
89 81 70 63 59 55 50 46 43 45 48 54 53 51 38 50 57 54 52 47 44 42 45 40 38 37 37 39 39 39 41 47 53 55 54 52 50 50 48 49 53 54 53 53 55 56 64
85 72 64 61 54 40 31 30 33 37 46 54 46 47 46 42 45 51 52 49 45 44 37 37 38 38 39 38 37 38 45 51 51 52 52 47 46 46 47 48 52 54 50 48 51 58 66
76 63 63 54 40 23 13 17 23 30 42 54 44 46 34 43 39 46 52 48 46 38 34 35 37 37 33 33 36 41 44 43 46 46 45 45 44 42 41 39 38 37 38 44 48 54 58
70 62 58 45 20 10 12 18 14 25 38 62 50 51 49 50 44 46 48 48 41 34 34 34 37 33 32 32 36 36 36 36 37 34 30 29 25 24 30 34 34 32 34 30 41 44 45
65 59 52 26 6 9 3 8 10 9 43 54 50 50 53 45 40 40 46 44 38 36 33 34 31 28 27 32 30 32 27 28 28 31 22 24 26 22 27 29 31 32 32 33 39 41 34
62 55 45 12 10 7 8 11 13 13 48 58 57 53 41 42 36 38 44 39 37 37 34 34 26 26 29 27 28 27 24 25 25 24 24 15 21 23 28 29 27 30 35 36 39 40 37
63 52 39 21 8 11 15 18 18 29 32 58 41 44 48 36 35 35 38 35 38 38 34 25 25 28 25 21 27 22 20 23 24 21 19 22 20 18 17 17 25 28 28 33 37 37 37
62 51 36 24 12 11 12 16 30 27 45 47 39 43 41 38 34 25 30 33 35 32 28 26 27 22 18 22 21 18 14 15 16 20 20 17 16 15 17 23 31 29 26 27 30 28 35
61 49 34 20 9 10 11 24 16 25 50 45 50 36 43 31 23 23 29 31 28 27 26 27 20 20 15 18 17 11 12 14 13 13 14 15 19 11 5 8 10 14 18 28 31 32 30
60 47 31 19 7 19 24 21 19 46 46 37 40 38 34 35 29 29 31 29 26 24 24 21 17 16 12 14 11 4 10 13 11 12 10 17 15 15 15 8 9 8 17 23 26 21 32
57 43 26 13 15 17 25 21 28 42 34 30 36 40 38 30 18 23 26 25 22 24 22 15 16 14 13 16 10 5 5 11 14 6 11 17 16 13 9 4 2 10 14 18 23 28 30
54 37 20 9 16 19 30 36 24 26 27 23 30 35 31 27 27 26 21 23 24 20 16 14 16 13 13 16 11 9 7 11 9 13 15 15 19 14 13 9 7 16 11 13 16 14 15
54 31 12 14 24 28 28 26 28 36 31 33 27 24 29 32 24 21 19 22 20 19 15 15 18 17 17 13 14 13 7 3 6 17 17 20 21 22 13 9 10 5 9 10 13 11 16
56 26 14 21 29 29 30 28 31 37 31 28 24 34 27 21 23 25 21 22 21 20 17 18 17 16 17 11 15 15 14 4 1 6 10 14 13 17 19 14 21 26 24 26 26 27 28
58 22 22 34 36 35 34 34 35 29 28 28 26 29 28 25 22 21 26 22 19 19 19 17 17 16 14 15 14 18 17 9 6 4 7 6 5 7 14 15 14 15 17 20 20 19 19
57 28 16 42 45 37 36 31 28 24 31 29 29 25 30 30 27 23 24 22 20 19 18 14 18 20 20 17 16 16 20 14 14 10 7 6 5 5 7 8 10 12 14 13 14 12 10
57 36 14 45 51 45 42 37 30 27 34 27 29 29 28 26 25 25 23 21 19 19 17 16 16 18 16 18 19 19 23 17 17 16 12 10 8 7 7 7 8 6 5 7 8 11 12
57 39 17 45 52 52 48 42 35 32 32 28 24 26 26 23 28 20 23 22 19 19 18 21 16 16 17 17 19 20 19 18 19 17 14 13 11 12 11 7 6 6 7 8 10 11 11

GFSGBSN_500_spd_006.txt.gz
Wind_Speed
30 31 31 32 32 31 30 31 32 33 38 37 38 34 35 37 36 33 31 31 29 30 31 34 35 35 33 31 29 27 29 27 26 25 28 27 26 28 29 31 34 38 35 42 40 38 39
35 35 36 36 35 35 35 33 31 32 34 40 33 40 35 38 37 35 33 32 31 29 29 31 32 32 31 29 29 26 24 25 25 24 25 26 26 28 27 29 33 34 36 34 41 42 42
37 36 36 37 40 39 37 37 37 35 35 40 38 36 43 36 39 39 35 33 32 30 29 28 29 29 28 29 26 23 24 26 26 25 25 26 27 26 28 29 32 34 35 36 34 39 43
39 38 38 39 39 41 41 42 41 40 38 34 44 40 39 44 39 41 39 36 34 32 29 28 27 27 26 25 23 24 23 23 23 25 25 25 27 29 32 32 33 36 37 36 35 38 44
42 43 44 44 45 46 45 45 44 44 43 42 38 45 43 42 45 40 42 40 37 34 31 28 27 27 25 25 24 23 23 23 23 24 25 27 28 30 33 35 35 35 37 37 39 41 44
49 50 51 54 56 56 55 53 53 49 46 45 47 44 49 45 45 47 42 44 41 37 33 31 28 28 26 26 26 25 25 24 23 23 24 27 30 32 35 35 36 38 41 42 43 44 48
55 58 61 62 65 67 67 64 59 55 53 48 51 50 51 50 47 48 47 43 43 41 36 34 31 30 28 27 27 25 26 24 23 25 26 28 30 32 34 36 38 43 44 45 45 46 47
60 63 66 70 74 74 71 69 61 57 53 52 53 55 55 55 52 48 48 46 42 42 41 38 34 32 30 29 28 28 27 27 28 28 30 33 32 33 36 40 42 44 47 47 49 48 49
63 67 73 78 82 74 64 59 59 54 54 52 56 57 60 59 56 54 45 46 46 43 41 40 38 35 34 33 31 30 31 32 33 34 35 36 36 38 42 44 45 47 48 50 52 53 52
67 72 80 83 76 65 58 50 46 46 44 49 56 60 62 61 58 54 51 46 45 43 43 39 39 38 37 36 35 35 36 37 38 38 40 41 39 44 48 50 53 53 53 54 55 57 55
72 81 85 79 69 64 57 48 40 39 39 45 52 59 62 60 52 51 54 49 46 41 46 41 38 36 35 35 35 34 36 38 38 40 41 44 46 50 53 54 57 57 56 57 57 58 59
78 87 87 76 68 59 48 33 27 26 33 38 47 55 48 52 48 42 45 52 48 45 43 39 38 35 33 33 33 33 33 35 36 39 42 47 53 58 58 55 57 57 57 59 59 60 62
84 91 81 73 65 48 32 22 15 13 25 37 45 53 60 61 45 49 40 54 51 48 41 35 31 32 33 33 33 33 34 34 35 41 46 49 52 59 58 57 56 55 54 55 56 59 62
87 89 74 68 58 31 19 8 16 19 16 32 42 46 58 59 45 50 45 51 54 47 41 35 31 29 28 31 33 29 28 31 39 42 43 44 50 50 42 42 42 44 43 47 50 54 58
87 87 70 62 43 21 8 4 9 14 14 27 44 51 65 54 49 42 47 50 50 45 41 36 32 28 28 31 27 26 29 32 39 41 41 42 45 41 29 31 32 33 37 34 39 43 49
87 86 68 57 42 19 15 16 11 13 4 23 56 53 54 46 47 45 42 41 43 44 40 37 31 26 31 25 24 27 30 35 38 35 38 38 41 35 26 28 27 25 30 32 40 42 44
87 84 69 55 39 19 15 11 10 6 5 29 52 54 53 48 34 48 40 32 36 42 40 36 31 30 25 22 25 28 31 33 27 29 32 33 39 32 35 23 26 30 30 33 36 39 37
87 81 69 54 38 21 15 7 5 6 4 28 64 50 48 51 47 45 36 32 34 39 39 36 33 32 21 23 27 29 27 24 19 22 27 27 30 29 24 24 25 25 29 30 34 37 40
86 80 67 51 34 17 2 3 18 8 2 43 46 47 51 46 40 33 33 31 34 38 36 37 35 27 21 24 25 23 16 18 17 22 27 29 29 26 25 24 22 30 27 26 24 28 31
85 80 62 43 25 10 10 18 11 7 11 45 31 34 47 43 40 24 22 28 36 35 34 33 30 24 23 23 22 11 13 14 18 20 23 27 28 29 34 34 30 26 18 19 27 27 17
84 76 54 34 11 7 21 17 11 8 24 26 26 34 39 35 28 24 25 30 28 26 28 29 25 22 20 20 14 6 9 9 13 15 17 21 25 31 33 26 26 22 18 12 11 8 15
80 70 45 23 10 19 20 18 9 11 40 30 31 38 38 31 22 26 24 25 23 24 25 23 19 21 19 14 6 6 11 8 8 12 13 14 19 19 13 8 8 10 6 4 4 9 11
77 64 40 14 5 18 11 7 12 32 30 28 32 27 30 23 21 19 20 19 20 20 19 19 16 17 16 8 7 11 12 10 8 8 11 16 15 13 16 16 11 4 3 6 9 10 10
74 63 38 14 3 5 18 13 24 27 23 18 28 27 22 30 17 18 18 20 17 16 16 15 13 13 12 6 12 16 12 4 5 12 12 14 11 13 11 18 17 12 5 7 7 14 26
70 64 35 15 2 8 20 28 16 25 16 19 24 21 29 21 26 20 17 16 16 14 14 14 11 9 9 9 13 17 11 8 1 6 6 13 14 13 16 14 16 26 18 18 18 32 34
67 63 44 11 11 16 26 23 25 28 24 25 21 23 20 27 24 23 20 14 15 15 15 12 10 10 10 10 11 13 18 11 8 2 1 1 8 9 12 11 15 22 29 20 22 27 21
66 64 49 13 29 25 28 29 26 27 23 27 23 18 24 21 25 23 21 13 15 14 13 12 10 11 12 11 10 12 18 20 14 10 8 3 4 6 8 8 8 10 14 16 15 15 16
67 67 57 23 34 40 36 31 31 33 28 26 19 17 31 19 20 18 16 21 18 14 13 13 10 11 10 13 12 13 15 17 16 15 12 8 6 5 4 7 8 7 8 11 12 14 12
67 69 61 37 13 45 46 39 33 34 30 23 23 23 23 26 24 21 19 16 16 14 13 15 13 15 11 13 11 17 14 16 19 18 16 13 9 6 6 6 6 8 9 9 9 9 8

GFSGBSN_500_spd_009.txt.gz
Wind_Speed
32 30 31 33 33 33 33 32 31 31 30 30 31 32 38 36 38 35 35 35 35 34 34 34 34 37 38 38 38 37 40 38 35 31 30 31 29 28 25 24 24 23 24 25 26 31 33
37 39 38 36 36 36 38 37 36 35 34 33 35 33 39 37 41 36 36 36 35 33 33 33 32 34 35 36 37 35 37 35 31 31 30 31 28 26 24 22 24 25 25 26 25 27 30
37 38 38 38 39 40 40 40 41 40 39 39 36 37 35 43 37 41 36 39 36 34 33 32 31 31 32 35 35 34 34 34 32 31 30 29 27 26 25 25 25 26 27 27 25 26 28
42 42 44 45 46 46 46 46 47 46 47 44 39 39 39 41 42 39 40 38 38 35 33 31 29 28 28 32 33 34 33 33 31 29 28 27 26 25 25 25 26 27 27 26 27 29 28
48 49 50 50 48 50 52 53 53 52 53 51 50 42 42 39 47 43 41 39 39 37 34 31 29 28 27 29 30 31 30 31 30 28 26 26 25 25 26 27 27 26 28 29 31 31 32
51 52 54 55 54 58 62 67 69 67 60 56 55 52 44 45 45 46 43 44 38 39 35 31 30 29 27 27 27 28 27 27 26 25 24 24 25 26 27 25 27 31 34 34 36 35 36
53 56 56 60 64 67 70 72 72 73 69 55 56 55 50 48 50 50 49 44 43 38 35 35 32 30 28 28 28 27 27 25 24 22 22 25 26 23 25 28 30 33 35 38 39 40 40
56 57 59 63 67 73 76 71 63 54 53 47 51 57 56 53 54 54 53 46 41 40 39 39 35 32 30 29 27 27 27 23 22 22 23 24 24 25 28 31 33 36 39 40 43 44 48
59 61 66 71 78 82 71 63 56 48 43 42 42 56 61 59 59 53 53 48 41 43 41 40 38 35 33 31 29 27 25 24 24 24 24 26 28 31 34 37 39 41 44 47 49 51 51
62 66 73 80 86 76 65 54 44 33 28 34 36 49 58 63 62 57 54 51 44 40 45 40 39 39 37 33 31 29 28 27 26 27 29 32 33 35 38 41 43 46 49 52 55 58 58
66 71 80 87 81 69 58 45 36 22 19 24 32 42 53 59 58 46 44 50 44 42 44 45 41 36 35 37 34 31 30 30 30 31 32 34 35 38 40 41 47 51 55 59 62 64 64
69 76 84 88 73 64 50 37 24 16 14 18 26 37 47 54 55 49 43 34 47 48 46 42 41 36 34 33 31 31 30 28 28 30 32 33 37 38 41 44 48 52 57 63 67 68 72
73 81 87 85 69 54 39 27 19 23 24 24 19 36 44 52 59 42 43 49 42 41 44 38 35 35 32 30 28 27 28 28 30 32 33 35 37 40 41 43 50 55 56 55 58 64 70
77 84 91 84 59 44 30 21 10 13 15 13 19 34 44 60 58 47 45 49 51 40 43 37 29 30 29 28 28 29 30 30 28 28 34 36 36 39 40 46 48 47 54 49 46 46 49
78 87 92 78 50 36 23 15 4 7 14 14 15 28 42 66 55 45 46 52 43 36 37 37 33 28 25 24 25 27 26 21 26 31 33 35 38 40 39 41 39 37 57 33 40 37 41
79 89 93 72 44 32 19 4 1 11 11 5 4 27 47 64 54 49 45 46 34 33 39 38 34 28 25 25 26 22 21 24 26 28 32 37 34 31 32 36 38 44 48 38 38 39 48
80 90 90 63 43 30 14 11 4 10 15 10 7 34 65 49 60 48 44 50 49 30 35 38 33 28 28 30 24 20 20 23 24 30 31 29 28 26 30 35 40 41 44 41 37 40 42
79 88 86 58 41 28 7 14 9 10 10 9 11 33 54 40 41 41 35 38 38 32 32 36 36 34 33 30 22 19 20 23 27 24 21 22 28 24 22 32 38 39 40 38 36 36 37
77 84 82 54 35 23 8 16 11 13 8 3 32 35 50 44 52 38 32 34 27 25 29 35 37 34 34 27 21 19 18 24 19 16 16 21 19 22 21 28 31 38 36 31 22 30 31
72 79 79 48 27 30 20 16 15 15 11 18 36 24 45 47 44 40 29 31 28 25 27 35 36 34 30 20 21 16 20 17 10 14 18 17 13 21 22 26 35 34 25 25 25 25 18
70 75 76 41 18 23 21 14 12 19 22 21 24 31 36 38 32 28 35 26 25 23 27 32 33 31 25 21 20 17 16 6 7 11 15 13 9 13 13 12 17 23 17 10 12 9 6
68 72 73 41 14 18 23 16 16 18 27 29 20 29 33 28 32 22 24 27 24 22 23 23 24 27 20 20 17 15 12 4 4 8 8 7 8 13 13 13 9 12 10 10 6 1 3
66 69 70 49 13 6 16 13 26 24 24 21 22 25 30 32 29 21 15 18 21 21 18 19 20 19 20 17 15 16 10 8 1 2 7 9 12 12 16 21 19 13 11 6 5 5 4
65 67 70 55 17 7 3 9 22 19 15 18 20 30 30 24 16 19 17 21 22 19 18 16 16 18 17 15 17 15 10 8 4 6 9 11 12 13 17 19 25 21 10 10 12 13 11
64 64 68 65 16 4 6 14 20 11 9 15 17 17 21 21 22 23 23 20 16 18 14 14 15 11 13 17 16 13 12 9 3 3 5 8 11 12 18 15 16 16 15 16 17 16 15
65 62 65 67 23 10 8 22 19 17 10 16 17 22 17 22 16 19 16 16 15 14 13 13 12 12 12 16 15 14 16 13 8 3 0 2 4 7 9 13 26 21 21 22 22 26 22
65 61 62 66 40 14 22 21 17 24 16 17 16 12 20 17 18 18 14 12 13 14 12 9 11 10 10 15 14 12 16 16 11 8 7 2 1 3 4 8 13 14 19 17 16 19 18
64 61 59 63 51 10 30 31 20 20 25 17 16 17 16 16 23 22 16 15 13 14 12 9 10 11 10 11 13 11 15 22 15 13 13 9 6 4 3 3 4 8 8 7 8 11 15
63 62 58 60 57 23 33 39 31 28 26 25 24 18 17 19 18 16 20 17 12 15 12 13 15 15 14 8 12 11 16 21 24 20 18 16 11 7 5 6 6 6 7 6 4 3 4

GFSGBSN_500_spd_012.txt.gz
Wind_Speed
42 37 36 36 35 34 33 33 35 35 34 35 33 31 33 32 33 40 34 37 34 33 33 32 32 36 40 42 40 41 42 41 42 45 43 39 37 37 36 33 31 29 26 25 25 27 27
39 37 38 38 39 40 40 40 39 39 40 40 39 38 36 35 34 34 38 35 35 33 33 32 32 34 37 39 39 42 41 41 42 43 40 38 36 35 35 33 32 28 26 25 24 25 26
43 44 44 45 43 44 44 43 42 42 43 43 45 46 42 38 38 37 36 35 37 34 35 33 32 34 34 39 37 38 39 39 40 42 40 38 37 36 34 33 32 30 27 26 24 25 25
46 46 47 49 49 48 49 50 50 49 50 50 51 50 50 45 40 40 37 38 39 34 36 34 33 32 32 36 34 36 38 39 39 39 38 37 36 34 34 33 33 32 29 27 24 25 26
48 48 48 51 52 52 53 54 53 58 63 63 63 59 56 52 46 43 42 39 36 39 36 36 33 31 31 31 31 34 36 37 37 37 37 36 35 34 33 33 33 31 30 29 30 30 30
50 50 51 53 55 57 63 67 73 76 77 73 70 65 62 58 53 48 45 42 42 42 39 36 33 31 30 29 28 29 32 34 35 36 35 35 33 32 32 31 31 31 31 30 30 30 30
55 55 55 56 60 65 72 77 82 75 66 61 54 52 54 58 58 46 45 50 49 43 39 35 34 32 29 28 27 27 29 31 33 33 32 31 30 27 28 28 28 28 29 31 32 33 35
59 58 59 63 69 76 82 82 68 61 58 49 42 44 44 54 59 55 52 52 45 41 38 39 37 33 31 28 27 26 27 28 28 28 28 28 28 27 24 24 26 28 30 32 36 38 40
63 63 66 72 79 87 81 66 56 50 41 28 25 29 40 53 62 62 57 53 45 43 38 41 38 36 32 29 27 26 25 25 25 26 26 27 26 23 24 26 29 31 35 38 42 46 48
69 68 73 80 88 86 70 55 44 34 24 18 22 23 36 46 58 64 49 48 46 46 39 40 38 37 34 31 28 26 25 24 25 25 25 24 25 26 27 30 34 37 38 43 47 49 52
72 72 78 86 94 79 58 43 21 20 21 23 26 15 32 39 53 57 55 49 45 36 40 39 41 37 36 33 28 27 26 25 25 25 24 26 26 29 32 35 37 40 42 46 49 53 55
76 75 82 90 93 71 50 33 6 17 20 22 25 18 28 37 54 62 54 37 41 47 39 38 39 38 35 34 32 29 27 26 26 27 26 28 29 31 34 36 38 44 48 50 53 54 59
80 78 85 94 88 65 49 27 5 11 20 23 17 17 24 40 59 60 52 38 43 44 42 33 35 36 33 31 31 31 30 29 28 28 26 28 31 33 34 38 42 45 48 51 56 59 60
81 81 87 95 84 63 43 22 11 16 13 16 26 14 23 39 69 67 54 47 47 44 39 34 30 33 34 30 30 28 28 27 26 27 29 32 31 31 35 38 42 46 46 49 50 55 55
82 82 88 94 81 60 37 4 10 9 9 10 23 2 26 44 66 46 47 46 48 43 36 32 32 28 28 33 28 25 24 26 29 31 31 29 28 30 33 38 39 41 43 44 49 49 53
83 82 87 94 78 54 34 6 11 10 10 15 14 12 32 58 65 51 48 46 41 43 29 27 31 28 23 26 27 27 28 29 28 26 25 25 28 29 32 32 35 40 38 40 45 49 53
83 82 85 92 66 49 25 10 13 12 14 15 6 15 45 69 47 50 44 45 42 35 31 27 33 30 26 26 25 26 24 23 23 21 22 25 28 25 25 28 31 34 34 37 44 50 57
82 81 83 87 55 43 30 18 18 13 10 13 11 23 58 49 44 45 42 44 35 30 26 28 33 31 29 27 28 24 21 19 18 18 21 26 24 19 22 23 28 35 35 36 42 40 42
78 80 80 82 44 36 29 26 19 12 12 12 14 36 61 44 43 36 39 37 33 29 23 29 32 32 28 31 25 20 18 17 17 18 20 21 17 19 17 21 25 25 25 28 33 32 27
74 78 77 79 49 33 31 21 23 22 19 27 19 36 53 36 36 29 34 31 33 31 27 24 32 36 36 31 26 19 18 16 13 20 18 14 16 19 14 17 23 26 27 22 25 27 19
71 75 74 76 56 28 29 17 18 18 20 19 29 41 34 35 29 30 25 29 29 27 25 26 31 33 33 28 21 18 17 11 17 16 12 12 10 5 11 17 23 24 23 23 22 16 20
67 72 72 72 60 25 23 13 12 16 14 14 24 30 27 33 31 18 24 25 21 23 21 22 30 31 27 21 19 16 13 12 14 9 6 3 4 5 9 11 16 17 16 16 18 17 18
62 68 69 68 64 20 13 10 14 10 10 12 19 25 24 24 20 20 22 21 19 17 16 21 24 23 18 17 17 17 13 13 11 7 3 2 1 0 5 11 15 17 15 12 15 11 8
58 63 67 64 65 19 6 3 8 8 5 11 16 20 20 23 22 20 20 19 19 17 18 18 15 17 17 16 18 16 14 12 11 6 1 3 5 8 8 9 20 17 14 13 8 7 1
54 59 64 61 59 32 4 8 3 4 1 4 6 18 19 18 20 15 14 15 17 19 16 16 15 15 15 18 18 14 13 15 13 10 5 0 3 9 15 15 14 14 13 13 12 12 4
51 55 60 59 53 49 9 16 15 11 8 9 10 17 21 14 14 18 18 20 21 19 18 17 17 15 14 18 17 14 16 16 12 10 6 2 3 7 6 10 15 10 14 15 17 18 17
50 52 56 55 52 50 22 19 24 21 12 13 10 16 20 15 15 17 20 18 19 20 18 16 13 13 13 16 16 16 19 19 18 14 10 6 4 2 3 4 5 11 9 9 10 13 15
47 51 53 53 53 47 45 16 28 27 23 17 17 18 20 23 16 18 19 18 19 21 21 17 13 11 11 13 15 19 22 23 21 17 11 8 5 3 2 2 3 1 1 4 5 6 8
44 49 51 52 52 49 47 35 34 37 33 27 23 17 22 17 17 20 20 17 16 20 18 17 12 10 9 11 14 22 24 27 26 21 14 12 11 8 6 5 6 5 4 4 3 3 2

GFSGBSN_500_spd_015.txt.gz
Wind_Speed
47 48 47 47 46 45 44 42 41 41 42 45 45 42 39 37 35 35 36 36 41 39 38 37 40 39 39 38 40 41 43 46 46 47 45 45 44 45 47 43 41 38 37 36 33 32 33
49 50 50 49 49 50 51 51 50 47 45 46 46 50 48 44 41 38 39 38 38 39 40 39 37 38 39 37 35 40 40 44 45 46 45 45 46 46 47 45 40 40 37 35 33 31 32
53 55 55 50 48 49 49 49 52 53 52 52 53 52 52 53 47 45 42 40 39 42 41 40 37 37 36 35 33 37 39 40 42 45 46 44 44 45 45 44 40 39 37 35 32 32 31
57 60 60 56 53 51 52 55 61 62 64 63 61 60 60 57 56 49 47 43 41 38 40 39 38 36 34 31 30 32 34 37 41 44 47 44 43 44 44 43 40 40 38 36 36 33 32
60 64 65 62 57 58 62 70 72 77 78 78 73 70 68 65 61 57 50 48 42 39 40 39 37 36 34 30 28 28 31 37 39 42 44 42 42 42 41 40 41 40 39 38 37 35 35
63 66 70 69 66 66 74 80 76 74 71 66 62 62 59 63 68 62 55 48 42 42 42 39 37 36 32 30 27 26 29 34 38 40 42 40 40 40 40 40 38 40 40 39 36 35 36
67 72 75 77 74 77 83 78 69 58 51 48 44 41 40 43 55 62 59 48 42 44 44 37 35 34 31 29 28 27 28 31 36 38 42 40 38 34 36 37 38 37 35 35 35 36 37
70 76 80 81 79 81 84 71 57 49 44 38 33 29 27 27 41 51 55 49 50 43 39 39 39 34 34 30 28 27 28 31 33 36 38 35 32 32 32 31 31 32 32 34 35 36 38
72 79 83 85 84 91 78 64 47 39 24 21 21 21 18 20 37 46 55 54 52 47 41 38 39 36 35 31 29 29 27 29 30 33 31 30 28 26 25 26 26 27 30 32 35 37 38
72 79 85 89 90 96 71 61 39 18 14 19 22 25 20 18 37 46 61 55 47 46 45 42 39 36 36 33 31 28 28 26 26 27 27 26 23 22 22 21 24 27 30 34 37 41 43
73 79 86 91 92 94 69 58 33 10 13 17 24 16 18 6 35 48 65 62 52 41 46 39 41 37 37 36 30 28 25 25 24 24 23 23 21 20 20 24 27 31 33 38 41 45 48
74 81 86 91 95 91 68 55 21 2 11 24 23 17 20 10 35 61 63 49 47 47 47 42 39 38 36 36 31 28 26 24 22 22 22 22 20 21 24 27 31 33 37 40 45 49 54
74 80 86 92 96 85 67 48 4 5 9 15 20 27 23 16 37 73 52 48 45 50 43 34 39 35 34 34 32 29 26 24 23 22 21 22 22 25 27 29 32 36 39 43 50 53 54
73 79 85 91 94 74 63 33 11 18 17 15 23 31 11 23 48 63 52 53 52 47 49 31 34 35 34 32 33 31 28 25 24 23 22 25 27 27 28 31 35 36 41 44 51 54 55
72 77 83 89 91 64 57 24 25 22 22 24 19 19 12 31 57 59 45 48 37 43 44 19 26 31 33 31 28 28 27 25 24 26 27 28 28 27 30 31 34 40 42 44 49 49 52
69 74 81 85 88 60 48 35 30 25 27 23 22 4 21 40 68 59 41 39 37 36 38 34 20 20 26 28 26 24 24 25 25 25 27 25 27 28 29 32 36 42 42 42 43 47 51
66 71 78 83 85 56 47 42 39 23 19 18 8 9 21 42 73 40 38 36 40 38 35 31 29 24 21 24 29 27 25 25 26 27 26 25 25 25 28 35 37 36 39 41 43 44 48
63 67 74 79 81 62 43 33 29 24 16 11 8 10 29 43 46 38 36 34 36 36 33 24 28 29 26 24 27 28 28 26 23 21 21 23 25 26 28 32 34 33 32 41 41 40 48
60 64 69 74 77 68 41 30 33 34 31 22 5 21 36 48 39 38 31 25 28 24 31 25 20 29 27 25 24 23 22 19 18 20 20 22 22 22 24 27 26 24 29 34 39 42 38
56 60 65 69 72 68 37 26 31 33 28 16 19 38 44 37 36 34 35 35 28 19 22 21 19 31 27 26 25 21 18 17 18 18 18 20 20 21 20 20 22 20 20 29 38 40 37
53 55 61 64 65 63 35 21 29 34 28 24 36 38 31 26 31 31 30 27 18 19 19 17 20 26 27 24 20 18 16 16 16 16 16 16 17 11 16 12 16 19 24 25 30 30 38
48 52 56 58 58 57 30 16 24 27 20 17 30 23 25 27 31 29 25 22 24 25 19 17 19 24 29 26 22 20 18 15 15 13 12 12 10 11 14 11 15 18 18 20 25 28 27
44 48 52 54 54 53 25 14 16 21 15 17 17 14 13 20 19 19 22 23 22 23 21 19 19 20 22 23 21 19 17 15 12 11 12 9 10 11 9 10 13 15 12 17 23 25 27
44 44 48 50 49 46 42 14 11 10 6 6 15 16 17 18 6 12 17 20 19 18 17 17 16 16 16 17 18 18 18 14 11 14 10 7 5 3 5 6 6 13 16 17 21 22 23
41 41 44 46 46 43 41 22 11 12 12 6 5 9 17 20 12 14 15 19 17 14 11 13 12 13 15 17 17 18 16 13 14 14 11 6 4 2 3 2 7 10 14 16 20 23 24
37 39 42 43 45 42 37 36 10 11 15 8 5 7 11 19 19 15 16 14 15 14 13 15 15 16 15 16 19 18 17 14 17 15 13 10 7 3 2 1 3 7 8 12 16 19 17
34 37 39 41 42 43 38 33 29 12 18 18 16 13 18 19 18 18 19 16 16 17 17 18 18 16 16 17 19 18 16 15 19 17 14 10 9 5 2 3 2 4 6 11 12 15 17
35 37 38 39 39 39 40 36 32 27 25 29 24 18 19 20 14 15 18 20 21 23 22 19 18 17 15 16 17 17 18 17 21 20 14 12 11 8 6 6 5 4 6 7 8 10 14
35 39 41 41 41 41 41 41 38 35 21 33 33 25 24 26 22 15 20 20 21 23 21 21 19 16 16 14 15 17 19 19 23 24 19 17 15 11 9 8 8 9 9 9 10 10 10

GFSGBSN_500_spd_018.txt.gz
Wind_Speed
49 51 53 56 60 58 56 50 47 47 48 49 48 47 48 51 49 45 43 40 39 38 45 37 39 38 38 39 40 40 41 43 46 47 47 48 47 47 47 47 46 44 45 41 38 36 33
52 53 54 58 61 64 64 61 55 50 51 53 56 58 55 53 55 53 48 45 41 39 37 43 37 39 38 39 39 36 39 41 44 46 47 48 48 48 48 48 46 43 43 43 40 35 35
56 57 60 62 65 70 72 72 67 63 65 69 72 71 65 62 59 59 55 50 47 40 40 37 46 38 39 38 37 34 37 38 40 42 43 46 47 46 47 44 45 42 41 44 42 37 38
59 60 62 65 69 74 78 80 78 77 71 69 71 69 66 62 65 64 61 54 49 45 39 37 40 41 36 38 36 33 35 34 37 37 39 45 46 47 47 46 45 42 44 43 42 40 40
60 63 65 70 73 79 84 84 81 69 65 58 51 48 47 47 50 63 65 59 51 47 39 36 38 37 39 35 34 34 33 33 34 35 30 40 44 44 44 43 43 43 43 41 42 40 41
59 66 69 73 78 83 88 90 74 65 55 46 41 37 33 32 32 45 61 61 52 48 40 34 39 37 36 34 34 32 32 31 32 31 36 39 40 41 39 41 40 42 42 42 40 43 41
60 68 71 76 81 85 92 85 69 62 46 37 29 24 22 21 23 36 51 58 51 46 44 43 37 37 34 34 35 31 31 30 30 31 33 35 38 33 34 40 40 42 41 38 39 39 40
64 68 72 79 83 90 95 80 67 51 31 19 18 23 23 15 15 31 42 53 50 46 47 37 35 37 35 35 35 32 31 30 28 28 29 30 31 30 33 36 37 38 37 34 34 36 41
64 70 76 81 85 92 92 74 60 41 17 16 22 22 25 22 14 26 40 49 46 49 47 42 37 35 34 35 35 31 31 28 26 27 26 27 28 30 31 31 32 33 34 32 32 34 34
64 70 76 81 87 93 84 70 52 30 11 16 26 24 22 28 13 28 43 51 45 46 42 44 37 37 33 34 33 31 29 26 24 23 24 26 26 27 26 26 28 28 29 26 27 28 31
64 70 74 80 88 93 75 68 51 29 12 16 23 18 21 27 15 31 48 52 38 50 46 41 39 41 40 36 32 29 27 22 21 21 21 21 20 22 21 23 24 23 22 24 26 30 33
63 69 73 81 87 90 70 60 44 33 26 26 25 21 21 24 9 39 63 45 50 54 49 45 36 35 36 32 29 27 24 22 19 20 19 19 17 18 19 20 21 21 23 27 31 34 38
62 67 72 79 85 88 69 56 50 37 33 35 34 26 25 18 20 54 49 42 50 49 48 44 35 30 31 30 29 27 24 21 20 18 18 18 18 21 20 21 22 24 27 32 35 38 40
61 66 70 77 82 85 66 53 47 47 35 33 34 25 16 13 45 61 41 39 49 38 40 40 35 33 33 30 32 28 25 22 20 20 19 19 21 20 20 22 24 26 29 31 38 42 44
59 65 68 76 80 84 67 48 50 47 38 32 27 27 7 29 53 54 38 39 32 43 36 28 32 29 34 30 29 27 24 21 21 19 20 20 20 20 22 23 25 26 32 36 39 43 44
57 63 66 72 77 80 67 52 51 46 38 27 23 20 18 39 51 48 36 29 24 35 30 28 21 30 30 27 27 27 24 23 20 21 21 19 22 22 21 23 29 33 32 34 38 43 45
54 58 62 68 73 76 66 55 54 47 37 23 19 14 24 52 53 36 31 23 25 43 35 17 23 27 27 25 23 24 24 23 22 21 20 21 22 19 21 28 31 31 31 34 38 40 45
51 54 58 64 68 72 62 56 58 48 34 22 12 11 45 60 36 31 24 28 29 34 34 28 17 23 28 27 25 24 23 22 20 20 20 20 18 19 25 28 30 28 28 29 33 36 44
47 51 53 58 63 68 57 54 57 44 33 27 20 27 33 35 34 31 27 29 26 28 29 25 19 21 22 24 26 25 22 21 20 18 16 17 19 21 23 24 25 23 23 28 34 36 34
44 48 49 52 58 61 50 46 42 38 31 35 26 40 38 28 27 27 27 25 22 23 25 19 16 26 24 21 22 22 21 18 15 15 17 18 16 20 21 23 18 13 20 25 27 30 37
41 44 45 48 50 55 47 36 36 33 25 31 32 37 19 25 28 30 27 23 16 14 21 19 16 24 22 20 19 17 15 14 15 15 15 14 17 16 19 18 11 13 19 22 22 27 33
38 40 41 43 46 49 47 30 30 18 20 23 21 12 12 14 14 15 15 21 8 11 13 11 8 9 19 16 13 12 14 13 12 13 12 14 13 12 16 10 10 16 18 13 17 25 28
35 35 38 40 40 43 41 31 19 15 10 15 13 11 5 8 8 9 11 15 9 8 10 8 7 7 9 14 15 13 12 12 13 13 13 10 10 13 12 8 10 7 8 12 18 24 30
32 31 34 37 37 38 40 33 16 8 8 8 12 10 2 9 11 11 13 14 14 10 14 13 11 11 10 11 15 17 16 16 14 12 11 9 10 7 9 9 6 3 8 12 19 24 23
33 29 30 34 34 34 37 35 25 10 7 9 15 17 13 14 10 6 11 13 13 14 12 15 15 15 12 12 14 17 17 16 14 12 11 10 8 6 7 5 4 4 5 11 16 22 18
35 29 27 31 32 31 33 34 30 21 11 12 13 16 15 27 25 23 16 14 18 18 15 15 11 11 10 13 14 14 15 14 12 12 14 13 8 5 6 4 5 5 4 10 13 14 20
36 28 27 30 32 31 31 33 32 29 18 17 24 23 17 18 26 26 24 18 20 21 17 15 13 13 13 16 17 16 16 15 13 13 16 13 8 7 7 5 5 5 6 10 11 13 15
32 30 29 32 33 32 33 36 35 34 31 21 24 28 27 19 25 25 25 25 23 23 20 18 17 17 17 18 17 17 17 16 14 13 18 13 10 9 9 8 8 8 10 10 12 14 16
30 30 32 33 34 34 35 39 38 38 38 35 28 26 37 28 27 27 24 24 25 23 20 21 21 19 19 17 17 16 16 16 17 15 17 17 15 12 11 10 11 10 11 10 11 13 13

GFSGBSN_500_spd_021.txt.gz
Wind_Speed
55 54 56 56 60 60 60 64 66 67 71 73 68 58 56 59 54 51 48 49 47 43 37 36 43 43 43 36 36 40 45 49 50 50 50 49 48 49 49 48 48 46 45 42 39 38 38
56 58 58 60 64 63 68 70 71 75 81 79 69 63 64 66 63 59 55 51 50 47 42 37 39 42 41 45 35 36 37 43 46 50 51 51 48 48 49 51 50 49 47 44 39 38 39
57 57 59 63 65 68 71 76 78 86 81 66 62 62 58 53 52 63 62 57 54 50 46 40 40 37 40 37 37 34 33 34 39 43 44 47 47 48 47 48 48 48 47 43 41 39 40
57 58 62 67 68 71 76 82 89 85 71 66 58 45 42 40 38 41 56 64 56 51 48 43 37 41 41 39 36 33 33 34 33 37 39 42 44 46 47 47 47 48 47 45 39 41 41
57 60 63 69 70 74 82 87 91 74 61 56 39 31 29 28 28 31 35 56 62 52 47 42 39 37 35 42 31 32 32 33 31 33 30 36 37 44 46 46 47 47 45 44 41 42 43
56 60 66 71 73 79 85 92 84 63 53 36 24 24 23 22 22 26 30 44 64 52 47 42 40 37 34 34 38 31 31 31 32 32 32 30 35 41 42 43 41 40 44 45 43 43 45
56 60 67 72 75 82 89 89 72 63 47 29 20 23 28 27 21 16 24 38 54 52 46 44 41 35 31 31 36 30 31 29 30 31 33 35 35 35 32 34 39 41 42 40 39 41 42
56 61 68 73 77 83 89 85 69 59 42 21 18 18 19 25 29 16 23 37 52 54 49 38 37 35 30 35 32 30 28 28 28 28 31 33 33 30 29 32 35 37 36 35 36 40 44
56 63 68 74 77 83 89 79 64 54 36 29 28 29 23 27 26 23 17 39 54 57 54 47 42 35 29 32 31 30 29 27 27 27 27 27 28 30 31 32 28 30 35 34 34 35 37
57 63 68 74 78 83 86 71 62 52 45 32 30 32 27 19 21 20 22 43 55 60 47 45 42 34 32 31 30 31 31 28 27 26 27 28 28 28 27 26 25 26 27 27 29 29 32
59 63 66 73 76 81 82 68 64 53 43 37 30 32 25 17 15 11 30 47 53 54 33 41 38 34 31 30 29 30 30 26 25 24 24 24 23 23 21 22 24 22 22 21 24 26 27
63 61 64 71 74 80 80 68 67 55 47 35 31 28 22 13 10 21 44 42 59 39 34 46 41 35 34 29 29 30 27 24 23 25 24 23 22 20 20 19 19 18 18 20 21 22 26
59 59 64 69 72 78 79 72 68 54 45 35 31 32 18 2 12 45 38 56 43 17 42 42 38 35 30 26 29 28 24 24 22 19 19 17 18 20 20 19 17 16 17 20 23 25 26
55 57 63 65 69 76 78 75 70 61 40 33 31 21 13 28 50 53 43 43 20 34 37 35 35 31 24 28 29 27 25 23 23 19 19 21 21 19 17 17 19 18 18 22 25 27 31
53 54 60 61 66 72 75 77 72 64 37 32 26 18 33 49 46 40 28 35 36 33 34 34 33 25 25 30 29 27 24 21 20 17 18 21 19 18 18 19 17 15 19 22 27 30 35
49 52 57 58 62 68 72 75 73 56 34 29 23 48 57 52 43 45 43 32 31 33 32 32 27 23 21 28 27 25 22 20 18 17 18 17 16 15 14 14 16 19 20 24 27 33 34
44 47 53 55 58 63 68 71 67 52 35 28 48 49 43 46 45 44 35 34 33 32 26 27 25 19 21 25 24 23 21 18 17 18 16 14 13 9 13 18 17 20 22 25 26 26 30
40 43 47 50 53 58 62 63 56 41 34 45 51 38 39 36 42 38 31 30 28 24 20 17 17 23 28 23 23 22 22 20 18 17 14 13 11 13 16 18 20 18 20 21 21 23 25
39 40 43 45 49 51 54 53 43 37 40 43 41 32 30 32 34 32 26 27 28 24 22 17 15 24 26 23 22 21 20 20 18 15 13 13 13 15 18 15 15 16 18 19 20 20 17
38 37 38 40 43 44 48 45 33 29 31 27 20 19 20 18 17 24 24 25 21 19 17 11 11 14 20 20 20 19 20 18 16 14 13 12 13 17 13 12 13 12 15 17 18 15 13
41 36 33 36 39 37 39 40 25 16 21 23 18 13 10 11 10 9 11 13 13 12 13 11 6 12 15 19 21 19 18 16 14 13 12 12 14 12 12 13 9 9 11 13 7 13 23
34 33 29 31 35 33 31 33 30 13 8 7 7 9 6 5 5 8 5 7 4 4 9 5 5 5 17 15 15 15 14 14 13 13 12 11 10 12 11 8 6 8 9 4 8 13 17
31 30 25 27 30 30 26 25 26 20 8 4 4 1 4 7 6 6 3 6 2 3 1 3 3 3 13 17 15 15 14 13 11 11 10 9 8 11 8 5 6 6 5 2 7 14 13
31 27 25 26 27 28 25 21 20 19 13 9 10 13 9 12 14 16 14 9 9 13 11 9 8 4 1 9 18 16 14 12 9 10 9 9 10 7 7 7 6 4 3 3 9 13 16
32 28 25 27 24 25 27 23 18 15 15 12 14 18 16 13 15 18 22 17 17 16 14 14 12 13 12 7 10 16 16 14 12 10 10 11 9 8 7 6 6 6 2 5 8 10 13
30 26 23 25 24 25 26 26 23 19 15 11 14 19 19 27 23 22 16 12 14 17 14 12 10 11 12 13 10 13 14 14 15 13 12 10 9 9 7 4 6 7 2 3 9 11 14
27 23 25 22 23 26 27 26 26 25 22 19 18 16 20 25 25 27 31 26 22 19 17 16 14 13 12 12 14 16 15 14 14 12 11 9 10 10 5 5 10 5 6 9 10 13 15
29 29 26 24 24 29 28 29 29 29 29 28 25 25 21 21 32 30 28 34 33 27 21 20 18 17 16 16 16 18 17 15 14 13 11 9 10 10 6 8 8 6 7 9 10 12 14
31 31 30 28 29 32 34 32 33 33 34 35 34 36 33 29 30 38 33 31 32 30 24 24 20 20 19 19 18 17 17 16 15 16 13 12 13 10 10 10 8 6 5 6 9 11 12

GFSGBSN_500_spd_024.txt.gz
Wind_Speed
46 50 53 53 56 59 64 66 67 72 76 80 74 68 65 58 51 65 65 59 54 51 49 42 36 38 44 39 40 43 48 54 55 54 52 49 48 49 48 47 48 48 46 42 40 40 40
46 51 52 55 59 63 68 71 74 79 83 73 67 61 60 52 40 49 55 64 60 53 50 45 40 42 37 44 38 38 40 47 55 54 53 52 49 48 49 50 51 50 49 47 43 41 39
48 51 54 60 63 66 73 76 80 85 77 69 57 52 40 31 28 33 46 49 63 54 51 45 40 37 36 39 42 34 36 40 46 52 52 51 51 50 49 50 51 52 50 48 44 41 43
51 53 58 63 66 70 75 80 86 85 72 65 47 32 26 24 23 22 28 41 57 58 50 46 38 31 38 41 36 38 33 34 38 43 48 50 49 51 49 50 50 51 52 50 44 47 45
52 56 60 66 69 74 78 83 88 80 70 55 45 30 27 27 31 16 19 29 48 61 50 45 44 45 40 35 36 34 34 33 34 33 39 44 45 49 49 51 50 50 50 48 47 48 47
52 56 62 68 71 76 80 86 87 77 65 50 39 32 29 27 30 25 13 26 42 61 54 46 40 40 38 33 40 33 33 32 32 30 32 34 41 44 46 48 48 48 48 48 46 47 47
50 57 63 67 71 76 81 87 85 75 58 47 34 29 33 29 30 26 15 23 38 55 57 49 46 43 39 37 41 34 33 30 31 31 30 29 34 39 42 43 44 47 46 47 44 44 46
52 58 63 67 72 76 81 87 83 72 56 46 34 30 26 28 24 26 23 23 40 55 52 46 43 37 34 35 32 38 33 32 33 33 32 29 25 30 33 37 38 43 42 40 42 43 45
51 55 61 65 71 75 80 87 86 71 51 41 33 28 24 24 17 25 17 24 43 57 57 49 40 35 33 32 31 27 35 29 29 28 28 28 29 30 34 30 32 34 37 38 41 42 42
50 55 61 63 68 74 80 87 86 72 50 37 31 23 19 16 8 15 11 26 51 56 46 44 41 38 33 30 30 25 31 29 29 31 29 29 30 31 33 35 34 33 31 31 32 34 37
50 54 57 62 66 73 80 88 85 66 48 34 28 23 17 10 4 8 10 42 59 60 46 45 34 38 32 30 28 25 32 28 27 26 25 25 25 27 27 28 29 29 28 24 26 28 31
50 52 54 61 65 71 79 87 79 63 42 35 29 22 12 3 5 6 34 58 62 32 41 45 43 39 33 30 27 26 26 27 25 24 23 23 23 23 25 27 26 24 23 24 23 22 27
46 49 52 58 63 69 77 79 71 55 41 32 22 19 14 14 20 32 54 64 29 23 41 44 41 34 28 28 27 27 27 25 21 22 21 18 20 21 24 25 24 23 23 22 20 19 17
45 44 50 55 60 66 74 74 60 46 51 51 41 45 36 40 46 41 61 30 18 40 37 37 37 32 29 27 26 26 24 24 21 17 18 20 23 26 25 24 24 23 19 16 17 16 19
41 41 46 52 57 62 70 64 41 60 50 56 59 48 49 41 48 49 31 18 30 40 32 39 35 29 29 25 23 23 24 20 20 16 17 20 21 20 22 21 19 16 17 16 17 20 23
37 38 42 47 54 57 63 50 34 46 39 35 51 50 48 34 35 29 33 32 30 30 30 29 27 25 22 21 22 21 20 18 16 18 19 20 20 21 18 16 15 15 14 15 17 22 23
36 35 39 42 48 50 53 43 30 34 39 29 36 33 40 41 27 26 23 24 27 25 24 25 20 16 15 21 22 21 20 19 19 19 19 20 19 15 15 15 14 12 14 16 18 20 22
35 32 35 36 42 43 44 40 32 34 24 33 27 16 19 28 33 25 27 23 21 19 21 19 17 13 18 21 19 21 20 18 18 16 15 15 14 15 14 12 12 13 14 15 16 18 18
33 32 28 29 35 35 33 28 33 24 18 24 18 25 13 6 8 17 22 19 17 16 12 11 13 12 20 20 19 20 20 19 17 15 13 14 14 13 12 12 12 12 13 13 13 14 14
31 26 25 24 28 29 28 27 20 21 17 10 15 12 10 20 6 6 10 15 15 13 13 8 8 13 20 17 17 19 19 17 15 13 12 12 11 12 10 9 10 11 13 13 10 10 7
31 24 21 20 22 24 23 24 23 22 16 7 5 6 7 5 7 11 9 7 6 4 1 6 6 11 16 14 16 15 15 14 14 13 12 12 12 10 7 9 10 13 13 10 9 6 6
30 23 21 19 18 18 20 18 20 17 18 11 2 5 4 5 7 6 6 4 4 1 2 3 3 5 9 13 12 14 14 14 13 12 12 12 10 7 8 11 10 13 10 7 5 4 4
28 25 22 22 17 17 17 15 15 15 12 14 10 9 10 11 10 13 10 6 3 3 3 1 1 4 7 14 13 15 13 15 15 14 14 12 8 8 10 10 12 8 6 6 1 4 7
26 27 23 22 20 15 16 14 13 13 11 6 7 9 13 17 13 13 13 13 10 9 7 5 4 5 2 5 15 15 17 16 15 14 13 10 10 10 10 11 11 9 7 5 2 5 9
27 26 25 24 18 13 17 18 15 13 13 12 8 8 9 16 18 17 16 19 20 18 14 17 14 8 8 6 8 19 18 16 14 13 11 11 10 9 11 9 10 9 8 6 3 4 10
28 29 27 22 21 16 16 19 21 20 16 15 15 14 14 13 18 24 23 19 19 23 22 18 18 16 13 11 15 11 21 20 17 17 14 11 10 10 11 10 9 10 10 9 4 5 9
28 30 29 23 21 18 17 21 22 24 24 21 20 19 18 18 19 22 26 30 28 22 18 16 17 15 14 13 16 16 17 21 20 18 16 14 12 12 12 11 10 8 9 11 8 8 8
28 30 31 26 24 21 22 24 27 28 28 28 27 25 25 23 26 24 25 29 30 33 28 23 19 19 17 17 19 21 20 20 19 17 17 14 13 13 14 13 12 10 8 9 7 7 7
33 31 30 30 28 24 27 30 31 33 35 35 34 33 31 32 31 34 32 31 34 34 35 32 25 24 22 21 21 23 22 21 20 18 16 14 15 15 16 15 11 11 10 9 7 5 6

GFSGBSN_500_spd_027.txt.gz
Wind_Speed
53 48 48 51 55 61 64 68 71 74 77 82 79 65 58 55 47 38 37 46 52 62 60 55 50 46 44 37 40 41 46 52 57 56 54 50 48 47 47 45 44 44 44 41 39 40 42
52 49 49 54 56 64 66 70 74 78 83 82 67 59 49 40 33 26 29 39 46 56 60 55 50 46 41 37 43 42 40 45 54 54 54 52 49 47 47 48 46 45 45 43 43 43 43
53 52 53 56 61 63 68 73 78 84 87 77 63 50 41 30 29 29 24 29 42 50 58 54 49 44 36 35 42 42 38 43 47 53 53 53 50 48 47 47 48 49 46 46 44 43 43
56 51 53 57 59 63 70 75 82 88 87 69 53 45 34 25 30 29 25 18 30 47 55 53 49 46 44 29 43 38 35 44 42 46 54 53 52 49 47 48 48 50 48 48 44 45 45
53 50 52 56 60 64 73 78 86 91 84 58 46 37 31 27 26 26 25 13 24 45 55 51 49 49 50 28 34 34 38 36 39 39 42 50 49 49 47 49 48 50 50 49 47 48 47
54 50 53 57 60 67 74 81 88 91 80 54 42 35 30 28 25 22 22 17 23 45 55 50 48 45 39 32 35 35 42 37 31 35 39 41 49 49 49 51 50 48 47 47 46 48 48
53 51 54 56 60 68 76 83 91 92 76 49 32 32 25 27 19 22 23 16 22 44 54 50 46 38 34 40 42 33 36 34 29 34 34 35 43 48 46 48 47 50 50 48 44 45 47
53 53 53 55 61 68 76 84 90 79 67 44 30 24 24 22 18 17 16 11 26 51 55 49 50 51 30 40 29 35 32 38 35 32 32 31 27 36 41 43 45 48 48 45 44 46 47
52 51 52 55 61 68 75 83 85 75 58 39 29 20 21 14 13 11 19 7 33 56 56 50 43 41 37 36 30 25 33 38 31 32 33 31 36 27 24 35 39 41 40 41 42 44 44
51 49 52 54 60 68 75 83 78 70 58 40 28 16 19 11 5 6 15 22 46 58 54 48 47 34 35 39 33 31 32 36 38 32 33 29 31 27 27 30 31 31 33 33 35 39 41
50 45 49 51 57 67 73 78 69 66 59 47 29 11 12 3 3 7 15 40 55 53 46 40 40 34 34 34 30 26 31 32 31 27 28 30 28 30 29 31 34 31 29 28 29 33 37
48 42 45 47 55 64 69 69 63 59 62 53 35 24 12 15 10 19 40 58 60 48 29 40 38 38 30 32 30 24 32 35 34 32 28 27 26 27 27 29 29 28 30 30 29 28 33
46 41 41 43 50 59 64 63 53 58 59 52 50 37 25 25 35 49 57 48 21 33 48 42 37 37 29 27 27 21 29 29 27 26 25 25 25 25 25 26 26 24 26 27 27 27 25
41 40 40 39 45 52 58 58 49 48 56 47 53 47 60 58 61 56 27 36 34 32 36 34 33 32 26 26 24 24 29 24 21 20 19 18 21 23 25 25 26 26 26 24 22 20 20
41 40 40 36 41 47 51 51 44 40 48 52 48 62 52 39 29 32 37 30 39 35 32 34 34 26 24 24 21 24 21 22 20 19 22 24 21 21 21 22 22 22 21 21 19 20 21
37 41 38 30 35 41 44 42 36 30 34 40 34 27 29 30 29 27 23 27 26 25 31 30 22 21 19 19 20 17 19 18 18 17 16 18 17 17 18 18 19 20 20 18 17 19 18
44 40 35 28 29 35 38 38 34 24 25 29 31 32 32 26 24 21 21 21 20 24 22 20 16 15 16 16 17 18 19 17 18 18 16 16 16 14 16 18 19 17 15 15 15 16 17
33 43 30 26 22 27 32 32 28 23 21 27 28 20 27 29 25 22 20 17 20 20 18 14 12 11 15 18 19 15 18 17 16 15 13 13 13 14 14 13 12 12 13 15 16 15 15
39 35 33 23 18 20 24 25 26 23 15 17 17 21 20 23 21 19 18 17 16 14 13 12 8 5 9 16 17 16 15 15 14 15 14 14 14 14 12 13 13 13 15 15 15 14 16
41 33 34 24 16 14 17 18 19 19 17 16 12 12 11 18 19 16 17 14 12 14 9 3 4 5 8 13 12 14 14 13 13 13 12 12 12 12 11 11 12 14 15 16 14 15 12
34 37 27 25 19 12 11 14 13 14 13 12 13 10 7 10 9 10 11 10 8 7 8 10 5 7 12 11 12 11 13 13 13 13 12 12 12 11 10 11 12 15 17 14 12 12 7
35 32 30 28 25 13 10 7 10 10 9 8 7 10 7 8 11 9 7 9 9 7 4 5 5 4 12 9 11 12 13 14 13 13 13 12 12 11 11 12 16 17 15 10 11 7 7
38 31 30 28 27 23 11 8 7 8 8 6 6 8 11 9 9 10 8 9 9 6 4 1 1 4 6 14 14 13 12 12 13 13 13 13 12 11 13 15 14 13 12 11 11 8 3
29 28 28 28 26 28 15 12 10 9 10 8 8 10 13 13 14 13 13 11 10 8 6 5 1 2 2 4 14 16 17 15 15 15 16 16 14 14 16 15 13 12 13 13 10 5 3
31 28 30 28 26 27 22 16 14 15 13 13 11 12 13 16 17 18 17 17 17 16 14 13 12 11 9 5 3 18 16 17 18 18 17 16 15 17 15 13 13 12 14 12 9 7 5
28 30 31 28 28 26 25 20 17 18 16 17 16 16 16 17 19 22 24 22 21 19 18 19 19 18 16 16 13 11 19 19 20 18 18 15 17 16 14 14 12 14 15 14 11 8 8
29 29 30 30 28 26 27 23 20 21 20 21 20 19 21 21 25 24 25 27 28 28 25 20 20 23 21 21 23 24 21 22 24 23 20 20 18 14 14 14 14 14 15 15 13 10 10
31 30 30 34 29 28 28 27 25 23 24 27 28 27 25 25 29 31 30 28 29 33 31 29 26 20 21 21 21 24 26 24 24 25 24 23 20 18 17 16 17 14 14 16 15 13 11
29 28 31 31 33 30 30 27 25 25 28 30 31 33 34 32 32 36 37 36 34 36 36 35 32 28 24 23 21 23 23 25 23 24 25 22 21 19 19 20 18 15 16 14 15 13 11

GFSGBSN_500_spd_030.txt.gz
Wind_Speed
56 54 54 54 54 56 58 59 65 71 78 84 86 79 51 44 39 39 37 32 31 35 50 63 61 59 55 58 31 45 46 45 52 52 52 50 48 48 45 44 45 46 46 42 40 42 40
54 56 55 58 58 59 60 63 70 77 84 87 84 63 43 37 31 29 28 28 25 30 47 58 60 58 57 56 49 41 44 43 41 48 52 51 48 47 46 45 43 44 44 38 36 36 38
56 56 54 59 61 62 62 68 75 81 87 86 78 46 41 33 27 25 25 25 24 19 41 52 56 57 56 53 42 39 38 38 35 41 47 49 48 48 46 45 46 46 44 41 36 34 39
55 55 55 60 59 60 64 71 78 85 91 82 64 36 32 28 26 25 22 22 24 16 37 49 53 54 53 46 39 41 29 37 33 45 45 48 48 49 46 46 46 48 46 42 37 34 40
53 54 54 58 58 60 66 73 80 89 84 79 51 27 26 25 25 25 19 18 23 15 36 49 51 51 48 40 36 36 35 36 33 39 43 49 50 51 49 47 46 47 46 43 39 38 40
56 56 55 58 56 60 67 75 83 84 83 70 41 25 19 20 15 22 17 18 20 12 37 50 51 49 46 38 33 40 31 34 29 28 37 45 49 49 50 48 48 47 45 42 40 40 40
58 56 55 57 56 60 67 76 83 80 83 65 38 23 19 19 15 12 16 17 10 20 40 50 50 49 52 28 34 37 32 31 23 23 30 35 48 49 47 48 46 45 44 42 42 42 42
57 55 55 57 56 59 66 76 78 77 81 59 34 23 19 17 13 13 11 16 12 36 49 48 46 46 45 28 29 27 30 26 31 30 24 32 34 45 46 47 48 48 45 41 38 40 43
54 54 53 56 55 58 64 73 72 76 70 57 41 17 12 15 11 8 13 10 32 49 48 43 40 37 35 33 33 32 25 30 32 29 21 24 27 30 43 46 44 44 43 39 40 41 43
57 54 54 54 55 54 61 68 67 65 79 73 45 23 13 14 11 13 15 32 51 52 43 46 36 37 29 35 36 25 23 30 28 25 24 20 23 21 28 35 39 39 40 39 39 41 42
59 55 55 51 51 51 56 59 57 56 76 78 62 42 28 18 15 22 33 53 55 46 44 52 25 31 34 29 37 28 25 28 29 28 24 28 24 21 21 25 29 34 35 35 35 37 38
57 56 54 49 46 47 51 50 48 55 65 68 70 66 46 32 31 36 50 55 49 41 43 36 29 28 27 29 26 24 29 31 34 23 23 28 25 25 23 24 27 26 29 28 28 29 33
56 54 52 48 42 43 45 47 41 50 56 62 58 61 58 57 56 47 45 43 35 28 41 37 31 29 26 27 24 19 24 27 31 27 27 29 24 22 25 23 25 24 26 27 27 27 28
51 52 52 50 41 37 39 44 41 40 46 54 53 49 47 36 30 27 22 24 22 36 32 27 28 26 26 27 23 19 20 25 27 26 24 25 26 22 22 25 26 25 26 26 26 23 23
48 51 49 48 39 31 33 37 38 36 39 42 50 41 39 33 23 24 26 22 35 28 27 28 26 22 20 20 18 17 20 22 24 24 24 20 25 24 25 25 24 23 24 22 21 21 20
56 46 41 44 37 25 28 29 32 28 33 39 41 43 36 28 31 26 22 15 21 20 22 20 19 15 14 15 15 18 23 22 20 19 20 21 19 20 22 22 22 22 22 22 20 20 18
55 44 40 41 36 23 22 23 26 25 23 28 34 37 37 31 23 22 14 18 19 18 18 15 11 10 12 11 11 18 16 17 16 16 15 20 21 18 18 19 20 20 19 20 18 16 14
45 36 42 37 37 26 16 19 19 21 17 19 24 28 28 28 24 17 13 11 13 13 11 9 8 9 12 14 12 15 16 15 13 14 13 14 16 17 15 14 14 15 15 13 14 14 12
38 32 39 32 27 26 15 14 15 15 15 13 14 15 22 22 24 18 17 13 12 9 9 8 6 4 8 12 14 14 14 13 12 13 13 14 14 12 13 12 13 13 14 13 13 13 13
39 36 30 30 26 24 24 9 11 11 11 10 10 9 11 14 16 18 15 15 15 12 4 4 3 2 4 9 12 11 11 11 12 12 13 12 11 10 11 11 11 12 13 14 14 14 14
42 35 32 27 27 24 28 13 8 8 7 6 6 5 5 7 7 7 8 7 8 6 8 3 4 4 8 12 11 11 11 11 12 13 12 11 11 11 11 11 12 14 15 14 13 13 11
38 34 31 32 29 24 27 26 11 10 8 8 6 7 3 3 7 4 5 7 6 5 4 4 5 2 9 9 11 10 12 13 14 13 12 12 12 10 10 10 13 14 15 13 13 11 11
37 35 30 29 29 26 24 27 19 13 12 9 7 9 8 5 6 7 6 3 3 5 2 2 2 3 6 10 9 11 9 10 12 13 14 12 11 11 11 12 14 14 15 13 13 12 13
38 32 30 28 30 30 24 26 24 17 17 15 11 12 12 13 10 9 9 9 8 8 6 5 5 3 3 4 12 14 13 12 12 14 13 13 13 13 13 14 14 13 13 13 12 15 13
39 35 32 28 29 29 27 26 25 21 20 19 16 15 15 15 16 16 15 15 14 14 15 14 13 10 8 6 4 13 16 19 16 16 16 16 15 15 16 16 15 13 14 15 18 16 13
38 34 31 27 30 25 25 24 26 25 24 23 20 18 18 18 20 20 20 20 21 20 17 18 21 19 17 16 14 10 13 18 19 19 19 18 17 18 18 17 16 14 14 18 20 18 15
36 35 33 30 30 29 22 24 28 29 25 25 25 22 20 20 23 26 25 25 25 25 25 24 21 23 24 22 21 22 20 18 21 20 20 20 20 18 19 17 16 14 15 20 20 18 15
33 34 30 30 29 28 24 27 27 30 26 28 27 25 24 23 28 28 30 32 31 31 31 30 30 26 23 24 26 24 26 27 25 22 25 24 22 23 21 19 19 15 16 20 21 19 17
33 28 28 27 25 23 24 27 28 31 30 30 31 29 29 31 27 31 34 35 37 40 39 37 34 31 31 27 24 23 23 25 26 27 25 26 26 24 23 23 20 19 18 21 21 21 19

GFSGBSN_500_spd_033.txt.gz
Wind_Speed
58 62 59 60 62 62 63 62 65 69 76 84 83 85 69 44 31 35 34 29 32 35 40 47 55 59 64 61 55 51 45 48 48 53 54 51 50 47 46 49 49 55 48 46 45 43 42
59 61 56 60 60 63 61 63 67 74 81 88 84 73 44 29 25 27 20 22 28 27 28 30 41 57 62 60 52 43 44 46 43 46 54 48 49 45 45 44 46 51 53 47 44 44 42
60 58 54 59 57 60 58 63 69 78 84 85 79 51 29 24 18 19 18 24 22 23 22 24 26 55 61 58 52 45 22 48 43 41 50 44 46 48 45 44 44 46 50 47 41 40 40
58 56 61 58 59 58 57 63 71 75 79 83 67 40 23 21 19 21 21 23 18 19 17 20 36 53 58 59 55 22 27 33 42 43 46 45 44 48 47 46 45 46 49 49 43 40 39
59 60 58 59 58 56 58 65 68 72 82 76 62 34 20 17 16 13 15 17 17 17 15 16 39 53 57 56 50 34 35 23 28 35 37 44 47 49 46 46 46 47 45 45 42 40 37
54 61 63 60 60 55 57 64 65 70 76 78 67 33 21 18 16 10 9 11 12 16 8 27 44 54 52 46 46 36 33 23 27 30 29 38 49 52 48 46 46 46 45 42 39 38 36
58 59 63 63 63 56 55 62 63 70 71 76 71 39 18 15 18 13 9 10 12 4 28 39 49 47 46 43 40 34 32 29 24 27 35 34 44 51 47 46 46 44 43 41 38 38 38
59 56 59 61 62 56 53 59 60 69 69 77 61 46 22 16 14 11 13 8 12 31 39 48 48 45 44 41 40 36 27 24 27 30 26 31 37 43 44 44 43 43 41 39 38 38 39
61 57 53 59 61 56 51 53 57 63 65 70 73 51 31 19 13 10 11 27 37 44 48 47 45 45 43 36 35 33 32 23 30 29 30 26 34 43 44 45 46 46 42 39 38 39 40
60 59 61 55 57 53 48 49 51 57 63 63 64 67 38 26 25 35 40 47 49 47 43 41 40 43 37 37 48 41 23 29 24 19 23 23 28 34 41 44 45 42 41 39 39 40 39
65 61 53 56 52 51 43 45 44 52 59 59 62 65 41 36 48 54 52 49 51 50 39 34 35 39 32 36 33 28 19 24 24 15 17 19 24 20 23 38 39 39 38 39 39 39 39
66 65 57 53 48 48 38 40 39 48 53 53 52 56 48 48 52 42 39 48 50 31 36 35 33 27 25 24 23 19 16 19 22 20 22 18 23 16 21 23 31 37 36 36 36 37 36
66 64 56 45 45 45 35 36 36 40 46 50 42 44 43 35 38 36 37 40 37 38 38 36 29 26 30 29 24 18 18 18 20 20 18 20 25 22 17 21 22 28 33 33 33 33 31
65 65 56 39 42 40 32 29 31 33 38 44 41 41 38 30 25 26 23 29 25 24 34 37 29 21 25 28 24 17 21 21 23 18 20 20 24 23 21 25 23 21 22 23 28 26 26
65 64 57 39 39 35 30 22 25 27 30 33 38 36 35 31 29 23 22 31 26 23 22 22 19 19 19 19 15 14 19 20 23 24 18 19 21 23 20 24 20 20 21 21 22 23 24
65 68 53 41 36 32 28 17 19 18 23 25 28 30 29 24 24 24 19 16 17 17 21 19 16 12 11 14 14 14 15 23 23 23 20 20 21 23 23 22 19 21 22 23 22 22 22
67 68 47 39 33 28 25 16 14 14 14 18 21 23 23 22 20 19 16 13 16 14 15 13 10 10 11 10 10 12 16 18 17 15 17 18 17 19 22 21 20 22 23 24 22 20 17
66 61 43 38 29 27 22 21 10 9 10 9 13 20 20 18 19 15 17 12 12 11 9 9 10 10 8 9 10 15 18 16 15 14 14 16 18 19 19 18 19 20 20 19 17 15 15
66 50 40 35 30 25 20 21 20 7 6 5 5 11 15 16 17 14 12 10 9 7 9 9 7 5 5 4 7 15 15 14 12 13 14 14 15 18 17 17 19 18 19 18 16 15 14
54 44 37 34 31 22 23 21 21 8 7 1 1 2 7 10 12 13 14 11 8 5 4 4 3 3 6 10 10 11 11 13 14 14 14 14 12 13 15 16 17 18 16 16 14 13 15
49 43 39 34 32 26 24 22 18 22 11 9 4 3 4 5 5 6 5 0 2 2 3 4 6 6 7 13 15 14 13 12 12 12 13 12 13 14 15 14 14 15 15 14 12 14 11
49 43 37 33 31 30 24 22 21 20 19 16 10 9 7 5 7 7 5 4 4 2 1 1 2 5 9 13 12 13 13 14 14 13 13 12 13 14 14 13 13 13 13 12 13 12 14
46 40 33 31 31 32 27 24 24 22 23 17 15 13 12 7 7 8 7 7 7 5 3 2 2 4 9 10 11 12 11 11 12 13 14 12 12 12 11 11 12 12 11 11 12 12 13
47 39 33 30 28 31 29 24 21 22 23 24 20 16 16 15 12 11 10 9 9 8 8 8 6 5 6 11 11 12 13 12 13 13 14 13 13 12 11 11 11 11 11 10 12 14 17
40 36 28 30 29 29 27 26 20 21 24 27 23 20 19 20 17 15 15 15 13 13 13 13 14 12 9 9 11 16 16 16 15 15 14 14 14 14 13 13 12 11 11 12 13 16 17
33 27 27 31 31 29 26 27 20 19 23 26 28 25 22 22 21 21 20 19 18 17 17 17 18 19 18 16 15 14 15 20 21 19 18 17 17 16 16 15 14 13 13 14 16 18 19
26 25 25 29 31 25 24 26 22 18 20 27 30 29 25 25 24 23 23 23 23 24 22 22 21 21 24 23 22 20 20 17 19 21 21 22 21 19 18 17 16 14 14 16 18 19 21
27 27 28 29 26 26 23 23 23 23 21 22 33 30 28 26 26 26 27 29 28 27 28 27 28 26 24 24 25 26 25 24 22 21 22 23 23 21 21 18 17 16 15 17 19 20 21
26 28 28 27 27 25 23 21 20 21 24 27 30 33 30 27 26 30 30 31 31 32 33 33 35 33 32 30 26 24 26 29 26 23 24 23 25 24 22 21 19 19 18 20 21 23 23

GFSGBSN_500_spd_036.txt.gz
Wind_Speed
58 59 60 59 59 59 58 57 57 62 67 71 76 77 64 32 26 25 22 25 26 25 25 32 40 44 49 57 69 62 59 54 53 53 54 57 52 54 50 48 50 55 49 54 43 43 45
57 61 59 59 60 59 59 59 59 64 68 71 76 70 48 29 23 24 14 17 15 16 23 26 34 42 47 49 58 58 56 49 47 48 50 54 53 50 50 49 49 53 50 53 45 42 45
59 63 57 63 60 59 59 57 59 62 68 72 77 70 38 21 15 18 16 15 17 21 23 24 32 39 51 49 53 57 49 46 43 47 47 50 52 48 50 49 47 50 53 51 51 40 43
60 63 63 63 59 60 60 54 56 61 67 70 72 63 33 20 17 14 17 17 17 17 17 22 19 20 42 55 54 60 37 51 34 40 45 48 54 50 52 50 49 49 52 50 51 44 40
60 64 64 64 56 59 59 53 55 61 66 70 72 54 30 17 19 14 11 9 14 13 16 18 16 22 48 53 53 52 40 35 36 36 41 48 57 51 51 51 49 49 47 47 44 47 44
62 66 67 67 60 59 56 52 54 61 66 70 67 49 30 18 17 15 9 8 11 14 12 10 20 33 55 56 47 41 42 31 41 45 38 36 47 53 52 51 46 45 45 44 42 41 46
61 63 65 69 57 56 54 51 52 61 66 70 62 48 33 22 15 13 12 12 10 5 13 21 35 52 61 63 47 36 40 26 37 39 34 39 40 48 51 49 48 45 41 41 41 40 41
64 65 65 67 57 54 53 48 50 59 63 69 57 47 36 27 21 18 15 19 30 35 39 43 46 50 61 58 46 31 28 27 23 25 33 38 37 46 51 51 48 47 47 41 40 39 40
65 65 65 71 55 52 50 45 48 55 58 62 54 50 46 43 41 40 41 46 52 54 47 43 46 46 51 55 32 31 31 21 22 23 29 31 32 44 50 48 47 45 45 42 38 40 39
63 62 63 71 52 48 46 39 42 49 49 48 52 49 48 49 50 49 49 52 52 40 42 46 47 45 45 44 35 29 27 25 25 23 28 31 26 36 48 47 46 44 42 39 37 37 40
63 61 62 71 50 44 42 35 36 41 42 38 42 44 45 48 51 51 45 41 38 37 46 40 42 43 43 40 33 21 15 14 31 25 27 23 26 32 43 43 44 44 43 39 37 38 38
62 60 60 68 47 40 36 30 29 34 34 37 35 38 38 39 39 36 30 31 34 44 42 37 35 29 33 32 28 23 20 23 25 21 28 21 23 26 35 38 40 40 39 38 38 39 40
60 60 60 63 41 36 31 25 21 27 28 29 29 28 27 20 33 38 32 27 32 38 37 32 29 29 30 24 23 18 17 25 25 24 23 22 19 19 14 36 38 37 38 38 39 41 42
61 61 60 53 38 32 29 20 17 19 22 23 24 22 20 14 17 26 27 21 27 28 24 19 17 19 19 19 15 17 18 20 21 19 22 27 29 18 22 25 26 34 37 38 38 40 39
63 62 62 42 37 30 24 21 13 11 15 18 17 18 19 14 20 25 25 17 26 21 22 17 17 14 15 16 12 13 10 14 17 16 20 24 26 20 17 19 27 22 25 30 33 33 33
63 58 48 38 34 28 21 19 11 8 7 11 12 13 15 12 15 14 14 17 19 18 13 13 17 18 15 13 13 12 15 16 16 19 16 19 23 25 20 22 25 24 24 25 23 25 27
57 50 42 34 30 28 20 14 12 9 2 5 7 8 12 13 9 9 16 11 17 18 14 13 11 12 15 13 13 12 13 17 17 20 20 18 20 23 25 20 26 25 23 23 22 22 22
52 49 42 34 31 29 23 13 11 9 7 3 4 5 7 8 9 12 14 11 12 11 10 9 9 9 9 10 12 14 14 16 18 17 17 17 18 19 22 23 21 22 23 22 22 20 19
54 51 43 34 29 27 26 18 14 12 10 9 7 6 7 8 10 12 11 8 8 8 8 9 8 6 5 5 6 11 14 14 16 16 14 14 17 19 20 21 20 20 21 21 21 21 21
56 53 46 40 29 25 27 25 16 15 12 12 11 9 8 10 10 12 11 8 7 8 9 8 6 5 7 8 8 12 15 14 13 12 11 12 13 15 18 18 19 20 18 18 18 19 19
59 57 51 39 24 24 26 23 21 16 15 18 15 14 14 11 11 13 10 5 5 4 4 10 10 9 7 12 13 17 15 15 16 16 16 15 15 15 16 17 17 18 19 18 18 22 21
58 57 50 33 29 25 24 24 19 18 17 16 21 18 15 15 16 14 12 9 7 5 4 3 5 9 11 12 13 16 13 12 13 14 15 15 16 15 15 16 15 16 17 17 18 18 18
57 59 53 31 23 24 24 27 22 18 20 16 21 21 19 17 16 17 19 16 14 11 7 6 4 5 8 12 13 15 15 14 13 13 14 14 14 15 14 14 15 15 15 16 17 18 19
56 59 55 29 21 27 28 27 23 18 18 20 21 24 22 21 18 16 16 16 16 16 14 13 10 9 10 13 14 15 15 15 16 16 15 15 13 14 15 16 15 14 14 14 15 16 17
54 54 45 32 27 29 29 27 21 18 19 22 21 27 27 24 21 19 19 17 15 15 15 16 15 14 11 12 16 16 15 16 16 18 17 17 16 16 16 15 14 13 13 13 13 15 17
53 53 35 28 29 33 28 24 22 17 20 23 23 28 30 28 25 22 20 19 18 19 18 17 17 19 19 16 15 14 18 21 20 19 18 19 19 19 18 17 16 14 14 13 13 15 17
50 54 29 27 30 30 26 24 22 20 19 22 22 25 31 31 30 27 24 24 23 22 21 22 21 21 20 24 24 21 18 17 19 23 23 22 21 20 20 19 18 16 14 15 15 15 17
47 45 27 26 33 28 24 22 20 22 21 25 23 24 28 31 32 30 27 26 27 26 26 25 26 26 24 26 25 27 27 25 21 19 20 26 26 25 24 22 20 17 16 15 15 16 18
43 39 32 29 32 31 26 21 19 17 21 23 25 25 25 30 32 30 30 25 24 27 29 31 31 30 32 32 30 28 27 31 29 25 23 22 23 24 24 25 24 21 18 16 17 18 20

GFSGBSN_500_spd_039.txt.gz
Wind_Speed
54 59 63 65 68 59 56 55 55 57 59 67 70 71 68 54 35 23 20 22 24 21 20 32 34 31 38 62 71 64 66 61 57 53 51 54 57 53 50 53 53 50 52 56 52 43 40
56 60 65 66 71 62 57 56 55 56 63 69 70 66 54 38 27 14 15 15 15 18 20 28 36 36 31 39 58 72 56 61 54 48 51 51 50 54 50 51 52 52 54 53 53 42 44
57 62 67 67 72 63 55 55 55 58 66 70 67 59 45 25 18 15 17 16 13 15 16 19 20 24 33 35 41 59 55 55 45 48 46 48 48 55 51 49 51 50 55 52 52 48 44
58 61 66 66 73 62 55 53 54 60 66 70 67 55 37 18 14 20 14 12 11 14 16 16 18 21 26 38 40 45 52 51 57 52 45 45 45 50 55 49 53 54 51 52 52 47 47
59 62 64 66 73 61 51 50 50 59 64 68 65 53 39 25 17 15 11 8 8 12 15 16 18 23 30 39 40 39 48 49 47 46 46 43 44 47 54 51 53 54 51 50 48 47 45
60 61 62 63 70 60 50 46 47 54 60 64 61 54 46 33 20 13 11 7 6 9 12 17 14 14 24 48 43 41 38 43 42 40 42 45 45 45 54 55 51 48 47 48 45 47 43
60 61 60 60 69 58 47 44 44 47 53 57 58 56 51 46 38 26 11 5 2 2 2 9 17 22 44 51 47 49 42 48 43 35 37 43 45 40 44 49 50 53 48 45 42 43 45
59 62 59 59 66 55 44 40 39 41 45 49 55 55 54 54 59 54 49 42 38 28 23 26 37 43 49 53 46 44 32 33 40 41 34 36 35 39 46 52 52 51 49 47 42 41 39
60 62 63 58 61 49 40 38 33 36 36 38 43 48 46 45 46 50 50 45 43 38 34 28 39 53 51 47 44 40 40 25 36 35 30 31 31 35 43 53 52 52 47 45 42 38 39
61 62 63 63 53 44 36 34 28 31 28 30 34 39 36 33 34 43 39 31 35 37 32 31 54 41 26 30 45 40 35 24 33 30 28 33 31 33 39 52 51 50 48 45 41 38 38
64 67 66 59 44 41 33 30 25 26 22 23 28 31 31 28 30 33 32 31 29 27 35 27 30 28 35 47 45 40 26 23 26 28 30 28 30 35 37 46 47 50 45 43 40 40 38
66 68 61 48 40 38 31 26 21 19 21 16 19 24 26 26 27 27 26 24 23 30 32 26 29 27 29 34 26 21 9 26 23 28 23 27 25 27 33 43 47 48 44 41 39 40 40
64 66 57 43 34 37 32 23 20 16 15 14 12 13 24 22 21 23 23 22 29 34 26 29 25 25 20 23 12 11 16 16 28 22 19 25 20 24 25 39 46 43 42 39 38 39 40
63 65 55 45 35 34 32 21 16 15 11 10 10 11 15 16 14 15 21 19 20 23 17 14 17 16 14 8 10 11 18 17 24 20 20 23 21 22 24 26 38 37 36 38 38 40 41
61 63 60 52 34 34 34 28 15 13 9 6 4 7 8 13 14 11 14 10 15 15 13 17 15 15 13 13 11 13 14 10 21 19 22 22 22 16 22 14 32 36 36 36 37 41 40
59 63 61 57 45 35 33 31 17 12 11 7 1 2 4 6 10 11 12 12 9 9 10 11 13 13 12 12 14 13 11 14 16 15 19 26 24 15 20 21 21 25 33 36 37 35 36
55 60 61 61 51 38 30 34 24 13 11 11 5 3 5 8 1 7 10 9 8 4 5 6 7 10 11 11 10 9 11 14 15 14 15 18 24 22 18 18 22 32 30 25 27 32 31
51 56 62 62 55 44 24 28 28 18 13 14 10 7 8 7 7 9 9 12 10 8 5 3 2 4 6 7 8 10 13 17 18 17 18 16 18 20 21 19 19 22 26 26 27 26 24
51 54 61 64 61 52 33 27 30 21 18 17 17 11 9 10 11 12 10 11 11 10 10 9 8 7 6 8 9 11 12 12 18 22 20 20 18 18 19 22 24 22 26 27 25 23 23
50 55 59 62 58 47 31 29 34 23 17 19 21 18 15 14 14 14 13 12 12 11 11 12 11 10 11 10 11 11 12 10 12 15 18 20 18 19 22 21 21 22 23 24 25 25 23
49 53 57 59 59 44 32 27 33 29 18 20 25 23 20 17 17 17 15 14 12 11 13 14 13 12 11 12 12 11 13 14 12 14 14 13 14 17 20 22 23 22 22 22 19 21 26
52 53 56 57 60 52 29 30 33 37 20 21 26 28 26 24 22 21 20 15 13 12 11 10 12 15 15 13 15 14 15 13 14 15 15 14 15 14 16 18 20 20 19 19 20 22 21
51 52 56 56 59 60 34 25 32 39 26 22 26 31 30 27 27 26 24 21 18 15 13 12 11 10 12 13 14 16 18 14 14 14 15 15 15 16 14 16 17 15 15 16 18 20 24
50 52 54 55 59 59 37 26 33 35 25 22 25 29 34 33 29 26 28 28 24 22 20 16 14 11 9 11 13 14 16 15 15 15 14 15 15 17 16 16 15 14 17 17 19 20 20
55 56 55 57 61 55 32 28 31 29 22 21 22 27 31 35 31 30 28 25 23 23 22 22 19 16 14 13 15 16 17 16 16 17 17 17 17 16 17 18 16 15 15 16 17 18 19
59 62 59 57 59 47 29 29 33 28 21 21 24 27 29 36 34 30 30 29 26 24 22 20 20 20 20 18 16 16 19 19 20 18 17 19 18 18 18 17 17 14 15 15 16 17 17
61 62 58 56 58 40 34 35 30 25 23 22 22 25 26 34 36 35 31 29 27 25 24 24 23 23 22 23 25 22 18 17 20 22 21 20 20 19 20 19 19 17 17 16 17 14 17
62 60 57 55 51 36 29 32 28 25 26 26 23 25 25 29 35 35 36 33 30 28 27 26 29 28 25 28 27 24 27 25 22 19 20 26 26 23 22 22 21 19 18 18 15 17 17
59 60 54 52 39 30 27 30 28 22 23 23 22 21 26 23 30 35 34 33 31 30 30 30 29 29 31 30 31 29 26 29 31 29 24 22 23 25 27 27 26 24 22 20 19 18 17

GFSGBSN_500_spd_042.txt.gz
Wind_Speed
57 59 63 65 63 66 72 60 57 58 61 64 67 68 62 45 26 23 20 14 14 15 20 18 22 29 30 43 62 70 68 64 58 57 53 52 53 53 48 47 49 53 49 47 46 49 42
59 62 64 64 64 65 69 56 56 57 61 62 67 66 56 40 21 16 12 11 14 12 13 15 31 24 30 29 44 59 65 62 45 56 52 51 50 49 51 49 49 47 53 52 50 51 48
61 63 65 65 64 69 64 53 54 56 57 60 62 61 66 46 17 12 16 15 16 10 11 15 20 24 23 33 27 42 59 55 53 40 52 48 48 49 49 48 47 51 51 54 47 49 45
61 63 64 64 69 66 58 50 51 52 54 53 56 57 67 68 37 14 12 9 9 8 7 9 16 22 22 28 26 35 57 52 56 53 48 45 47 48 48 51 48 49 50 55 47 47 46
62 64 65 68 69 59 53 46 46 46 48 49 51 52 59 65 61 32 13 9 8 3 7 8 11 20 23 30 28 39 42 49 48 46 39 48 46 45 46 49 50 48 48 48 48 45 46
64 66 70 72 62 53 49 43 42 42 43 47 48 50 52 58 55 62 38 13 9 4 5 9 11 17 24 32 33 50 43 49 44 46 40 35 39 43 45 46 51 43 41 44 47 45 47
64 69 71 70 54 50 49 44 39 39 39 42 45 47 48 48 48 52 54 49 21 10 4 5 9 15 28 34 33 46 46 44 51 45 46 44 42 38 34 37 40 47 45 46 46 46 44
64 69 71 68 57 48 48 43 38 34 36 37 40 43 43 42 42 39 49 46 38 26 18 16 11 25 44 37 40 46 44 42 52 45 40 32 36 33 33 38 42 49 48 44 45 48 45
64 70 72 70 59 47 46 43 35 32 31 33 37 37 35 34 36 32 41 36 29 31 37 44 52 51 41 40 39 36 35 44 36 33 31 30 31 35 35 35 39 47 48 46 45 42 40
61 68 69 67 61 45 43 42 35 31 28 26 29 32 29 30 30 31 38 27 28 40 49 49 42 31 28 23 19 29 37 34 33 32 32 26 30 33 32 35 36 45 50 48 46 40 38
62 69 69 67 62 51 42 45 37 31 25 18 23 29 23 25 27 28 25 21 28 18 19 20 24 26 30 17 22 37 35 37 35 38 36 28 29 29 31 32 36 44 48 47 44 43 42
59 64 67 68 64 58 42 41 38 27 26 19 15 20 18 22 23 24 23 19 13 19 26 23 19 28 16 22 28 24 13 19 28 35 28 26 31 32 28 25 34 43 47 46 43 41 41
55 58 65 69 67 63 47 41 39 27 22 20 15 14 12 15 16 21 22 19 15 21 26 24 24 26 25 23 24 26 7 21 25 29 28 25 24 24 26 28 34 35 48 43 41 41 39
51 57 64 71 71 69 58 42 36 30 20 17 14 11 11 6 10 14 13 10 11 8 16 16 26 19 13 15 15 11 14 20 23 22 24 20 21 24 27 22 23 35 38 39 39 38 38
50 55 61 66 67 68 65 44 35 34 19 17 13 9 2 3 7 8 7 8 8 10 7 5 8 9 9 14 15 13 11 12 21 18 26 31 26 23 25 20 20 29 37 36 37 37 40
47 54 57 64 66 67 64 47 32 35 22 18 13 11 7 2 4 7 6 6 4 7 6 4 2 5 7 12 13 13 15 14 14 10 17 21 19 18 17 23 22 27 31 34 35 34 36
46 49 55 61 64 63 65 51 35 35 29 19 16 12 12 11 7 8 10 9 6 4 2 3 3 4 4 4 5 7 10 13 13 14 15 16 19 17 8 20 14 13 26 33 33 34 32
44 47 53 58 60 63 63 55 38 33 35 19 18 14 13 11 11 11 12 14 13 7 5 3 3 4 5 4 4 6 6 10 13 13 12 18 23 20 14 15 16 18 22 22 26 32 35
41 47 50 54 57 62 62 58 44 38 36 22 21 20 17 16 14 13 12 11 11 9 9 8 7 6 6 6 7 8 9 11 13 15 15 15 15 18 21 21 19 15 21 25 28 26 23
38 43 48 52 56 60 61 58 52 40 34 29 20 22 21 18 18 17 16 14 13 12 11 10 8 8 8 8 8 9 8 11 13 15 19 19 20 18 19 16 18 17 19 20 23 23 23
38 43 47 50 54 57 61 61 56 37 34 32 17 23 25 23 22 22 20 18 15 14 13 12 12 11 11 10 12 11 10 12 11 12 15 16 18 21 20 20 20 20 21 22 22 20 26
39 44 46 51 55 57 59 60 57 40 31 37 16 23 29 28 25 24 24 22 18 15 13 13 14 17 18 17 14 12 11 11 12 12 14 14 14 16 18 19 20 21 21 21 21 22 22
42 45 48 51 54 59 61 61 54 38 32 37 21 19 29 33 32 30 26 25 22 18 16 14 13 12 12 13 15 14 14 14 12 14 15 15 17 17 16 17 18 19 16 17 20 24 25
43 47 49 53 53 55 60 61 56 39 36 33 23 20 30 29 37 36 30 30 27 24 21 17 15 14 12 10 11 12 14 16 16 13 14 14 15 15 14 14 14 13 14 13 14 18 18
44 49 52 55 55 56 61 62 55 40 31 23 21 20 25 35 28 38 35 35 32 30 27 24 21 18 17 15 13 12 12 14 15 13 14 14 14 14 14 14 13 12 13 15 15 17 18
47 51 55 57 54 58 63 61 50 36 30 23 21 22 24 28 30 30 38 36 33 31 28 26 23 22 21 20 18 15 14 15 14 14 13 14 15 15 14 14 15 11 13 13 14 16 17
51 52 54 59 60 61 62 60 36 35 29 28 23 21 20 28 29 26 36 37 35 33 31 26 24 24 23 22 22 21 18 15 15 15 17 16 15 15 17 16 15 12 14 14 14 12 14
51 55 57 62 57 61 62 47 31 30 27 27 26 21 21 22 28 23 30 37 34 33 32 30 30 29 26 27 25 22 21 23 22 19 16 18 20 19 18 18 17 16 15 15 12 14 15
50 53 57 61 59 64 58 40 28 30 28 29 27 25 18 18 25 20 23 34 37 39 35 33 31 29 28 28 29 27 25 25 24 27 25 21 20 19 23 22 22 20 18 17 16 15 16

GFSGBSN_500_spd_045.txt.gz
Wind_Speed
58 64 69 73 75 71 63 59 56 56 55 57 57 60 65 60 64 26 16 13 11 13 12 13 14 17 27 28 32 60 64 62 59 58 54 52 50 52 45 46 47 46 50 47 45 46 44
60 65 69 74 76 70 63 57 54 55 53 55 56 59 58 58 62 54 19 13 13 13 11 8 11 21 27 27 27 37 55 63 60 58 52 49 48 48 50 46 45 40 49 52 50 49 44
59 63 70 75 78 71 62 56 52 55 51 51 53 57 59 57 60 63 40 19 11 11 8 6 14 21 19 22 23 23 38 57 60 54 51 47 48 48 49 49 45 48 49 47 53 49 48
58 64 69 75 78 74 61 56 52 53 50 48 51 54 53 53 64 63 51 18 8 5 5 4 12 17 19 24 28 25 38 43 56 53 52 46 46 48 48 48 48 46 46 49 43 45 36
58 62 69 75 78 74 64 56 53 47 48 43 48 52 49 54 63 56 53 26 11 1 6 6 7 14 20 20 20 29 42 44 48 45 53 49 46 47 44 47 47 49 43 43 41 41 41
59 64 70 75 78 73 68 55 54 43 44 41 48 46 45 51 54 54 53 41 15 5 4 7 7 11 18 19 24 30 51 52 46 44 50 45 43 47 45 42 41 40 39 36 38 34 41
57 65 68 73 77 75 69 55 53 44 40 37 40 42 40 44 47 45 45 41 27 15 6 9 13 16 16 19 23 42 57 69 39 41 30 38 42 39 37 37 37 37 39 41 37 40 40
57 66 68 72 75 75 70 56 53 44 36 32 36 39 33 38 39 43 54 44 34 21 18 17 19 21 18 21 37 36 51 57 60 40 36 38 35 35 35 35 35 38 40 40 40 40 42
53 63 64 69 73 76 71 65 50 46 32 31 31 35 29 30 28 33 43 49 50 44 41 41 37 34 27 26 34 39 45 44 51 47 36 26 25 28 33 35 34 35 35 38 43 39 40
51 57 60 66 70 74 75 68 55 45 33 27 29 28 28 21 22 23 36 39 28 32 34 35 37 36 39 41 39 40 44 42 44 38 48 34 26 28 32 29 28 30 34 38 43 42 40
51 53 58 65 69 72 74 71 51 43 34 23 23 24 19 20 23 25 29 30 33 24 25 22 20 29 29 28 28 44 32 47 41 35 33 31 24 25 29 28 29 30 35 37 39 44 43
48 50 55 60 65 69 73 69 54 39 36 23 20 19 16 16 14 18 24 24 28 21 25 23 20 19 22 20 29 29 28 35 24 21 25 25 25 28 29 30 29 30 33 33 39 44 47
46 46 52 59 61 67 71 69 60 35 37 26 18 16 14 10 10 11 14 22 22 21 20 17 17 19 20 25 31 27 23 29 32 31 30 22 18 20 25 28 27 28 33 34 37 45 43
44 43 49 53 58 64 67 68 61 33 34 29 17 14 8 6 5 6 8 13 17 14 25 22 17 16 19 13 18 4 9 28 31 30 28 27 27 29 26 26 26 22 28 30 35 38 38
41 42 46 48 55 61 64 67 63 39 31 29 21 12 7 2 6 4 5 5 12 10 5 11 17 18 17 11 9 8 16 20 25 29 29 28 26 26 28 27 24 23 25 25 25 35 40
37 37 45 47 52 58 63 66 64 53 29 28 20 12 10 8 8 9 10 5 4 8 3 6 7 12 14 17 12 11 15 17 19 21 24 25 20 23 19 21 25 23 26 31 31 28 35
35 36 44 46 51 58 60 64 65 57 29 25 20 13 12 10 14 12 13 13 8 2 3 2 2 3 6 10 11 10 9 13 15 16 20 21 21 19 20 24 27 23 20 21 26 29 30
35 35 42 45 49 55 58 63 66 59 35 25 19 13 14 13 13 17 16 16 15 11 4 1 0 2 6 7 6 6 5 9 8 9 11 16 18 16 18 13 20 21 19 25 32 31 30
36 38 41 44 47 53 56 60 65 65 38 25 19 12 15 17 15 17 16 17 16 14 10 6 4 4 4 4 5 6 8 10 12 12 11 13 16 20 19 15 15 14 14 17 18 24 30
36 39 41 43 47 53 55 59 63 69 54 26 22 17 14 19 19 19 18 17 15 12 11 9 7 6 6 6 5 6 8 11 14 16 18 17 16 17 17 16 20 19 18 15 20 21 18
37 39 42 42 45 51 53 59 65 68 65 31 20 20 15 19 23 20 20 20 18 16 14 11 9 8 7 7 5 6 8 10 14 15 16 18 19 20 19 17 17 16 16 15 14 16 22
42 39 41 39 45 50 54 56 66 67 62 38 25 21 17 20 25 26 24 22 20 20 16 13 11 11 11 11 10 10 7 8 12 13 11 13 15 19 19 21 21 20 21 19 17 19 18
38 39 42 41 45 48 53 58 64 67 62 36 27 17 15 18 24 30 27 23 23 21 19 16 13 11 10 9 10 10 11 11 11 13 13 14 17 16 14 17 18 17 16 20 21 21 22
39 36 42 44 45 48 52 59 64 69 59 44 25 15 13 17 25 27 31 27 24 25 22 18 15 14 11 10 8 8 9 11 14 13 11 14 15 14 15 18 17 15 16 15 16 22 24
40 38 41 46 49 50 53 59 65 70 61 38 24 17 16 16 21 30 29 34 34 27 25 22 22 18 16 15 12 9 8 8 10 13 13 13 13 14 15 15 14 11 13 14 13 14 15
38 39 41 45 51 49 52 61 64 68 56 34 24 22 18 15 18 24 32 30 36 33 31 26 23 23 22 22 19 14 11 10 11 11 11 11 12 13 12 13 13 12 13 12 13 13 13
37 41 43 45 51 52 53 60 70 67 51 30 23 23 17 12 16 19 24 30 30 40 33 28 27 26 25 23 21 18 16 15 12 11 14 13 13 11 14 13 11 12 13 14 10 10 11
37 41 42 46 52 53 53 59 69 60 41 29 25 23 17 14 14 17 22 27 30 32 36 31 30 28 26 25 23 21 19 20 18 18 15 16 15 15 16 12 12 13 13 12 11 12 12
33 39 43 47 53 53 52 57 68 52 34 27 25 23 17 17 15 15 19 21 23 29 36 32 28 28 29 27 27 24 23 23 22 22 21 22 21 16 15 16 17 16 15 15 14 14 13

GFSGBSN_500_spd_048.txt.gz
Wind_Speed
52 58 66 72 76 79 80 76 66 59 50 44 46 51 50 52 61 63 59 36 18 16 13 14 14 18 25 35 45 57 67 62 63 62 60 57 52 51 49 48 50 49 57 52 50 43 37
51 56 65 70 73 78 81 76 71 59 51 44 46 50 45 55 62 67 59 39 17 17 15 13 11 11 14 21 39 46 58 65 57 60 58 55 51 48 49 47 48 49 53 56 54 53 42
52 56 64 69 72 77 80 77 65 58 49 44 46 46 43 56 66 70 58 35 19 13 8 7 10 8 10 30 25 29 45 62 57 55 54 47 52 49 48 48 44 49 49 53 44 37 46
54 54 63 68 70 75 80 79 75 56 47 41 42 40 42 54 63 74 59 34 20 9 2 2 6 12 20 19 31 29 37 56 59 53 45 49 53 48 47 47 48 47 48 50 58 45 44
53 52 60 65 69 74 78 80 77 56 46 38 38 36 40 48 58 64 70 46 21 9 4 1 3 10 14 19 19 25 40 55 56 45 44 46 51 50 48 47 49 48 45 44 43 47 48
50 53 56 63 67 71 75 80 77 58 45 35 33 36 34 43 49 58 53 63 41 12 6 4 5 15 18 24 23 20 45 64 58 53 40 41 44 48 47 46 40 42 40 35 36 39 46
47 51 55 60 64 70 74 78 75 58 45 34 32 32 33 38 43 48 49 47 53 27 6 7 14 17 14 20 23 29 43 61 55 55 52 41 36 38 41 41 38 35 41 43 35 37 39
43 48 53 57 63 69 73 79 78 61 42 32 30 29 31 31 38 41 49 40 42 40 18 12 20 17 16 16 17 36 48 55 54 54 45 40 38 35 38 40 39 34 36 39 40 36 37
42 46 49 55 60 67 73 76 79 73 42 32 26 25 25 27 31 33 41 42 40 39 30 23 17 12 17 17 32 56 54 33 42 44 36 49 40 40 36 38 35 33 32 36 37 39 37
41 44 47 53 56 65 71 74 78 77 46 32 22 22 19 20 24 28 32 32 30 31 32 24 28 27 30 27 37 59 26 39 40 47 31 35 36 37 36 35 35 34 33 34 36 36 37
40 42 44 50 54 61 66 73 75 80 51 32 20 18 17 14 17 23 27 25 22 31 27 25 26 35 28 29 42 19 32 37 42 35 32 34 34 32 33 31 31 31 30 30 31 35 35
40 40 40 50 52 60 66 72 75 77 62 32 22 14 14 11 10 15 24 22 19 26 28 19 25 18 15 38 28 19 31 36 29 36 37 25 19 22 24 25 27 29 27 27 30 34 37
42 40 37 46 50 57 63 68 73 77 70 36 24 10 9 8 6 8 16 18 18 27 25 21 20 18 26 41 30 28 25 30 27 20 25 26 23 21 24 27 28 28 27 27 30 35 35
42 39 34 42 49 53 60 66 72 74 72 50 25 13 6 7 4 3 6 12 9 13 25 13 17 25 24 20 25 20 30 26 29 23 20 22 22 22 24 28 29 32 31 29 30 34 33
39 40 33 39 46 51 57 63 70 75 74 56 28 16 7 8 10 7 3 3 5 7 9 16 7 9 8 9 5 6 19 21 27 31 25 27 23 18 17 22 26 28 24 23 25 28 30
41 44 35 38 45 49 55 61 67 73 75 62 32 19 9 10 13 11 7 7 2 2 2 6 10 6 4 7 4 12 19 24 24 24 25 23 21 19 17 23 22 23 23 24 26 28 26
41 44 42 37 41 44 53 60 64 70 75 64 37 18 12 12 13 15 11 7 8 3 1 2 5 8 7 8 11 11 11 14 16 18 22 23 24 24 23 27 26 26 23 21 26 32 31
42 44 48 37 40 42 53 58 64 70 74 71 48 20 17 15 15 15 17 11 11 10 6 3 4 5 9 7 7 11 13 15 19 21 24 25 25 25 24 23 21 23 27 27 28 30 30
43 45 47 42 39 41 51 54 60 66 71 73 54 26 16 17 17 17 14 12 12 13 11 12 7 6 7 9 8 7 10 12 13 17 17 21 27 24 24 23 17 19 26 24 26 26 27
45 48 47 43 38 42 48 50 56 64 69 74 59 34 19 16 19 20 17 15 12 12 11 12 13 11 10 10 9 7 9 11 15 18 18 18 21 22 21 22 22 17 18 21 21 21 16
46 50 48 42 38 39 46 48 53 63 69 73 65 39 22 17 18 22 21 18 16 13 12 10 10 10 11 12 11 9 9 10 14 18 20 21 21 21 21 24 24 23 24 22 19 15 19
48 50 47 41 38 38 43 48 53 58 67 70 63 44 19 16 15 20 23 19 17 16 14 13 11 10 10 11 12 12 10 11 11 14 16 18 19 23 24 24 24 23 22 20 17 17 12
49 48 43 40 38 36 41 46 53 53 62 73 66 39 18 14 14 20 23 22 20 19 17 14 11 10 9 8 8 11 12 13 13 15 16 15 15 17 17 20 22 22 20 23 22 22 19
50 45 42 37 37 37 41 45 52 54 58 71 65 40 21 18 18 18 22 27 24 24 20 17 15 11 11 10 9 7 10 13 15 14 15 14 15 15 14 21 21 16 17 20 19 21 25
48 43 41 37 38 38 39 45 53 56 58 67 69 44 25 19 17 19 19 24 31 28 22 22 20 15 13 12 10 9 7 9 12 15 17 15 14 16 17 17 14 14 15 16 14 17 18
44 41 42 37 37 40 42 44 51 57 59 64 67 45 25 21 16 12 15 27 25 33 27 22 22 21 19 17 15 12 11 10 11 12 14 16 16 16 15 14 14 14 15 13 13 15 13
41 43 39 37 38 41 43 48 48 56 60 63 61 43 26 18 11 13 15 16 30 26 34 27 26 23 21 20 19 17 15 15 13 12 15 15 15 14 15 14 13 16 14 15 13 13 15
40 38 33 35 37 42 45 47 48 56 55 58 62 34 23 15 12 15 15 15 19 31 25 33 30 28 25 23 19 16 16 17 16 17 17 16 16 17 17 14 14 16 15 16 15 15 13
34 27 25 30 36 39 42 45 48 55 53 56 58 34 21 18 16 15 13 15 19 22 27 24 29 29 27 26 22 21 20 20 19 18 21 21 23 20 18 17 19 18 17 17 17 17 17

GFSGBSN_500_spd_051.txt.gz
Wind_Speed
43 47 50 55 61 68 71 78 85 86 73 55 42 41 40 46 54 63 69 70 35 12 13 12 12 14 18 25 41 69 72 66 61 62 68 60 56 52 51 50 51 56 56 58 49 56 42
44 47 48 53 59 67 72 79 84 86 71 53 42 42 42 47 52 60 66 70 43 16 9 14 13 13 10 17 29 55 73 68 57 58 63 59 57 52 51 48 49 52 51 54 51 44 53
41 46 46 52 57 65 73 77 83 86 72 57 42 40 44 43 49 57 61 66 52 18 8 4 6 7 8 13 25 38 59 71 61 52 58 52 54 55 49 49 46 50 52 51 52 44 44
41 44 46 50 56 63 70 77 83 86 71 59 41 39 42 40 45 54 54 61 57 19 11 10 3 6 5 12 20 34 50 61 65 52 55 43 52 58 51 49 48 48 49 51 50 49 50
41 43 45 47 55 62 69 77 82 86 83 59 39 37 39 37 40 46 50 55 56 31 11 13 7 5 12 19 20 34 47 48 61 54 48 46 46 55 53 50 50 49 48 43 46 45 50
38 44 45 45 52 58 68 74 80 85 83 61 40 35 35 32 35 40 45 49 49 41 16 8 8 6 8 19 21 21 41 51 58 53 40 37 44 52 56 50 48 39 43 42 39 44 50
39 45 45 44 49 55 63 71 79 85 86 62 43 30 31 28 34 40 42 43 42 42 24 13 11 8 12 8 14 22 37 50 57 52 39 38 40 39 46 46 43 41 39 39 38 38 43
39 43 43 45 45 54 60 69 75 81 84 60 42 29 28 25 31 39 38 38 32 33 31 11 9 11 12 9 13 26 47 43 49 47 46 41 35 37 45 43 41 39 36 38 34 33 36
35 40 42 45 44 51 57 65 75 81 84 73 43 27 25 21 25 33 34 34 32 29 25 14 10 8 8 4 15 37 49 52 46 44 44 38 35 36 44 41 39 36 31 32 37 37 35
31 37 42 43 42 49 55 62 70 78 81 77 49 31 22 17 20 26 31 30 30 27 16 16 13 3 7 8 16 48 60 36 29 51 45 36 34 36 39 40 39 33 33 32 35 37 38
29 36 41 44 42 45 52 61 68 75 81 83 62 33 19 13 15 21 26 26 32 26 23 20 25 18 14 23 32 38 32 37 45 41 34 35 29 31 33 35 38 36 34 31 30 32 34
26 33 40 44 44 43 48 56 64 73 79 84 68 39 17 12 9 13 20 19 29 28 24 20 17 14 19 47 20 14 26 44 43 33 29 30 30 36 32 33 35 35 32 31 30 30 31
25 33 38 44 46 43 44 52 60 69 78 82 73 45 21 14 9 8 12 16 20 27 23 23 23 14 16 20 17 22 37 33 36 33 29 29 26 31 37 33 31 32 30 30 29 29 26
27 32 39 44 47 47 42 49 56 67 73 80 78 52 25 15 11 8 8 10 14 16 18 21 28 21 16 5 10 6 25 22 27 31 30 31 29 24 23 25 26 29 29 28 29 29 26
25 31 38 42 46 49 41 45 51 64 69 77 81 64 25 15 13 10 10 6 8 9 11 11 9 19 18 10 10 10 7 11 24 25 28 18 22 24 23 24 25 26 28 27 30 30 28
24 28 37 43 47 48 40 41 48 59 67 75 81 72 24 21 15 13 10 9 4 3 3 8 8 2 5 4 4 15 17 14 18 20 21 23 23 22 21 21 23 26 26 29 30 28 25
22 31 37 42 48 46 38 39 47 55 65 71 79 72 40 21 17 17 12 10 8 4 2 4 6 6 6 10 12 18 20 18 24 25 24 21 22 20 21 18 17 20 23 27 26 28 27
26 31 37 43 48 45 38 38 45 53 61 72 78 77 52 25 17 19 14 14 11 11 7 6 6 5 3 3 7 16 20 24 25 24 23 21 20 19 18 18 19 24 25 27 29 28 25
30 32 40 44 48 45 39 37 43 50 58 70 77 78 58 33 19 19 16 14 14 13 13 10 9 8 8 5 3 5 7 14 20 21 20 22 25 23 21 21 20 18 16 21 28 30 30
32 37 42 43 47 44 39 37 42 48 57 66 76 79 62 34 20 16 19 16 14 13 14 16 14 13 11 11 10 9 9 10 12 15 13 14 18 22 21 24 24 26 26 25 28 30 22
31 36 43 42 45 45 40 38 43 48 58 64 73 79 68 39 19 16 19 18 16 16 14 16 17 16 15 15 15 13 12 13 14 16 18 20 19 20 25 26 27 29 29 24 20 18 25
32 35 42 42 44 43 42 37 42 47 56 63 70 80 68 41 18 15 15 19 18 18 17 16 16 16 16 16 16 15 14 15 16 18 20 22 23 25 25 26 28 30 30 29 25 26 23
38 38 40 42 44 45 42 38 40 44 50 60 67 77 68 48 18 16 13 19 21 19 20 19 18 16 16 17 17 18 17 16 16 17 18 20 20 22 24 27 29 28 24 28 26 24 24
39 40 41 43 46 45 42 39 39 42 45 57 63 73 69 52 21 17 12 18 20 22 22 22 19 16 16 15 15 15 16 18 19 18 18 17 18 18 16 18 21 17 18 23 24 23 27
41 42 40 43 45 43 41 38 41 42 45 53 61 64 67 48 26 15 11 13 23 23 24 23 22 18 17 15 14 12 11 11 14 16 18 17 17 17 17 17 15 14 18 21 20 18 25
46 44 45 43 43 43 40 39 41 44 45 48 59 59 64 50 29 13 10 8 15 24 29 25 23 22 18 15 14 12 11 10 11 11 15 19 20 18 17 17 16 15 17 16 16 16 18
47 49 43 45 43 42 39 38 40 44 44 44 55 53 59 43 26 16 14 13 12 22 25 30 26 24 23 20 18 15 14 14 14 14 15 15 16 17 18 17 14 18 16 16 17 15 16
50 50 44 44 38 38 37 37 38 40 40 45 50 48 53 42 24 19 17 16 13 14 27 25 31 29 25 23 20 17 15 15 14 16 17 16 16 17 18 16 13 17 17 17 17 17 17
52 51 50 35 37 35 34 36 37 39 41 44 50 45 48 42 27 20 15 12 13 15 18 27 24 30 32 27 23 20 18 16 15 16 19 19 21 21 20 18 19 20 20 19 18 18 18

GFSGBSN_500_spd_054.txt.gz
Wind_Speed
34 38 43 46 49 52 56 65 72 80 86 90 82 55 40 38 41 43 53 61 60 57 22 14 12 8 11 17 23 49 66 66 65 58 69 59 67 56 53 52 50 46 57 61 57 53 51
34 38 43 47 50 50 54 63 72 80 85 90 81 59 39 37 37 45 49 57 57 53 21 9 11 10 10 13 22 36 64 62 66 52 60 60 62 58 51 51 49 44 51 58 61 50 45
33 37 42 49 49 49 54 61 70 79 85 88 85 61 38 35 38 47 48 54 54 51 22 15 8 5 6 11 19 31 60 64 55 55 56 52 52 60 53 49 47 47 45 50 53 63 41
31 36 43 48 48 48 51 59 67 77 84 87 84 63 37 33 39 45 46 52 50 50 22 18 14 10 9 8 8 26 52 63 55 50 50 50 56 59 55 49 47 46 47 46 51 53 50
32 36 41 45 46 49 51 58 66 74 83 86 84 61 38 33 37 44 44 49 46 45 20 16 17 10 4 4 8 27 47 64 58 48 43 41 56 56 58 50 48 48 39 42 49 51 46
33 35 39 42 45 48 50 55 63 71 81 87 86 73 41 30 34 42 42 45 43 40 17 11 13 13 11 3 8 21 43 62 56 49 40 45 44 54 54 53 47 41 38 37 43 43 45
34 35 37 40 44 46 50 52 61 69 77 85 89 70 40 27 30 38 40 41 39 36 30 10 10 10 16 8 14 24 28 54 57 53 40 36 50 47 43 44 49 43 40 35 37 38 45
32 33 33 37 43 45 49 50 56 65 75 84 85 76 44 27 25 31 35 40 34 33 28 11 10 11 14 7 7 15 29 45 58 56 43 38 35 34 37 45 48 45 43 37 32 37 36
32 30 30 36 40 46 50 51 52 62 73 81 86 80 49 28 22 27 30 37 38 32 29 23 7 3 5 7 3 15 33 41 54 60 43 34 31 36 35 39 46 44 39 37 35 33 35
31 28 29 35 40 46 50 49 50 57 67 76 83 80 46 29 19 22 28 30 39 32 28 30 18 8 3 6 2 19 33 39 54 53 50 32 28 32 30 35 42 40 35 35 35 36 35
29 27 29 35 42 44 46 49 46 54 63 73 81 84 53 33 20 16 22 28 34 30 28 22 26 15 9 8 25 41 34 34 45 40 33 20 28 32 31 37 40 37 32 32 32 36 37
29 30 31 33 40 40 45 46 45 52 61 68 75 80 59 35 21 14 16 22 28 26 22 23 27 33 24 26 39 34 12 34 40 40 28 26 29 31 33 39 37 35 34 33 33 32 30
30 31 30 30 35 39 42 44 44 48 57 66 73 78 68 38 22 14 10 15 19 22 17 15 18 24 27 20 18 13 15 26 37 33 37 30 29 29 32 36 38 38 35 32 33 32 27
29 27 22 27 32 37 41 43 45 47 55 63 71 78 72 42 26 15 8 10 12 14 16 7 9 12 11 13 11 15 17 28 33 35 33 32 29 25 30 33 32 33 33 33 34 32 27
27 20 19 25 30 35 40 43 43 45 52 62 70 76 79 52 27 14 9 7 5 6 7 10 8 7 11 16 14 11 13 14 20 28 26 26 26 30 33 30 27 27 28 32 31 30 28
23 19 21 25 29 35 39 41 45 44 49 59 68 73 77 64 34 18 13 7 5 1 1 4 3 4 2 12 9 5 8 19 24 20 23 24 21 21 20 25 26 25 24 26 28 29 29
23 21 25 25 34 35 37 41 44 41 45 54 64 73 77 58 41 18 12 10 8 5 3 2 3 7 8 6 7 11 9 10 18 25 18 19 20 21 21 22 20 20 23 26 26 28 30
22 24 25 24 32 35 35 39 44 39 43 49 60 72 77 64 39 20 11 12 12 11 7 7 6 7 6 6 6 12 17 13 14 19 19 17 18 21 21 21 21 23 26 29 30 27 27
23 25 23 22 29 34 37 41 42 38 43 47 53 66 77 67 46 23 13 14 14 15 14 9 9 10 8 7 8 11 17 20 20 21 22 25 25 24 22 24 25 19 16 20 23 24 27
25 22 22 20 25 31 38 41 40 38 41 48 51 59 73 71 55 22 12 13 14 15 17 15 12 11 11 11 9 11 11 13 17 22 22 24 25 26 26 25 22 18 19 21 25 27 21
25 20 21 22 25 30 38 38 40 37 41 48 53 55 66 74 55 27 16 12 15 16 16 17 18 16 13 12 13 12 12 13 14 17 20 20 21 19 20 22 22 25 23 25 26 20 24
22 22 22 22 24 30 36 38 41 36 40 45 52 53 65 71 58 30 18 9 19 19 18 18 17 17 17 16 15 14 14 13 13 14 16 18 17 18 18 18 22 25 26 26 27 27 30
23 24 23 23 24 34 34 40 45 35 38 43 47 52 61 66 58 36 20 11 18 21 21 20 18 17 16 17 17 18 16 15 15 16 16 17 19 21 21 23 24 24 19 23 26 27 28
29 27 24 23 26 36 35 40 44 36 35 41 46 49 57 62 55 37 18 10 13 23 22 22 22 19 18 18 18 19 18 17 17 16 16 15 17 19 18 20 23 19 20 26 29 27 29
29 27 27 25 29 35 37 42 44 37 34 39 42 48 54 55 51 33 19 14 7 21 25 23 22 20 19 19 18 18 17 17 19 20 18 18 17 18 19 17 17 17 18 22 25 22 27
30 31 32 31 33 37 38 39 44 34 33 35 38 44 48 50 49 36 19 15 13 7 23 25 24 23 21 19 19 18 18 16 15 14 15 16 18 18 17 16 15 16 19 20 20 20 23
35 34 39 36 37 39 37 40 40 33 30 33 34 41 45 48 46 38 22 15 12 11 10 26 26 24 24 22 19 18 17 16 15 14 14 14 14 15 18 17 13 17 16 17 18 17 19
41 39 44 38 41 39 42 38 35 30 29 28 30 37 42 45 43 36 31 19 14 14 13 15 26 28 25 25 24 21 19 18 17 17 18 17 15 16 17 17 15 14 16 16 17 18 18
47 41 39 38 40 39 37 37 30 24 26 26 28 35 40 42 38 36 30 21 18 15 9 12 22 28 29 26 24 23 21 20 20 18 19 20 20 19 19 17 18 20 21 21 20 19 19

GFSGBSN_500_spd_057.txt.gz
Wind_Speed
36 38 36 39 45 46 48 51 54 60 67 76 84 86 73 49 40 39 45 49 52 51 53 37 14 11 15 23 27 29 35 68 69 44 56 62 66 60 59 55 54 50 53 58 50 46 47
33 38 38 40 42 45 47 50 53 58 66 74 83 87 76 56 38 40 45 49 50 49 46 32 18 8 13 13 18 26 29 62 70 50 43 61 63 61 59 54 53 53 53 58 44 49 47
33 36 38 40 43 42 46 49 52 57 64 73 79 86 72 51 38 37 43 48 48 47 39 24 21 14 9 9 12 23 28 56 68 59 39 56 58 61 60 54 53 52 54 51 54 52 49
32 36 38 40 40 40 46 48 49 55 61 70 78 83 69 55 36 36 41 48 46 44 33 19 20 16 14 14 6 19 28 53 61 62 39 49 57 54 60 55 52 52 51 46 44 50 58
31 33 37 38 37 40 43 48 49 54 59 68 76 82 74 52 37 32 38 46 45 43 31 17 20 22 18 13 4 17 35 50 60 50 41 38 45 50 60 57 52 52 48 44 38 39 54
31 31 36 35 35 38 44 47 48 52 58 66 74 81 68 54 36 30 36 41 46 41 33 22 16 19 18 14 10 16 35 47 52 49 54 40 35 44 52 61 53 53 47 42 40 37 50
29 32 35 33 32 39 43 46 46 50 55 63 72 79 79 57 39 29 33 39 44 38 32 21 15 18 20 14 12 17 35 42 47 48 56 47 32 36 39 45 53 47 42 39 36 37 41
27 30 33 30 30 39 43 43 44 48 53 62 70 77 82 63 41 26 30 37 40 36 31 26 8 11 17 13 6 19 35 41 43 44 49 41 30 36 39 40 46 46 43 38 32 35 38
26 29 30 31 28 37 41 40 43 46 53 60 68 75 80 71 40 27 24 33 35 32 32 28 16 3 8 13 5 14 36 36 41 38 44 33 27 34 39 38 39 44 40 37 34 31 34
24 28 30 30 29 33 38 36 41 45 49 56 64 71 74 70 43 29 21 27 30 28 34 35 19 10 5 6 7 19 38 30 43 37 42 29 33 33 34 39 35 40 41 35 35 30 29
22 25 28 29 26 28 33 34 38 42 45 52 61 69 72 75 47 28 18 21 25 21 33 38 25 24 18 15 17 26 37 35 45 39 35 35 26 30 37 38 37 37 39 35 33 33 31
22 24 26 28 20 24 28 32 37 41 43 48 58 66 71 75 51 33 15 16 20 17 21 32 27 23 28 29 26 28 31 36 46 37 35 28 26 30 30 33 32 34 35 34 32 33 33
23 22 24 20 18 21 26 32 36 39 41 46 52 62 71 77 62 34 15 10 13 17 12 19 19 18 19 24 26 21 17 33 44 44 37 12 24 26 27 29 28 33 35 34 33 33 31
23 20 21 17 18 21 26 33 35 38 39 45 51 58 66 75 70 40 13 7 7 10 13 9 14 16 20 15 16 21 28 36 39 34 24 20 20 26 29 29 29 34 35 36 35 32 30
22 21 19 16 18 22 27 30 35 36 38 43 51 57 65 67 69 45 14 6 1 4 6 6 9 12 19 18 17 16 28 33 32 32 29 19 24 24 25 27 34 35 34 33 33 30 28
21 20 19 17 17 21 25 29 34 35 36 41 48 55 62 66 68 47 17 7 5 1 1 2 3 5 12 17 15 16 26 29 26 25 22 24 22 19 19 24 28 30 28 28 27 28 26
23 20 18 17 16 18 22 29 32 34 35 39 46 52 59 65 67 48 21 6 8 6 2 0 1 7 8 10 10 15 18 19 20 24 20 23 19 19 22 26 23 23 24 24 23 25 26
22 21 19 17 14 16 19 28 30 33 34 37 43 50 58 64 66 55 26 6 11 10 6 4 2 4 8 9 9 13 13 17 17 20 19 21 20 21 20 21 23 25 24 24 25 24 26
22 22 18 16 12 13 17 25 28 32 33 36 42 48 55 60 65 56 29 7 13 13 11 7 6 5 4 6 7 16 18 18 17 25 16 17 18 17 19 22 24 25 19 18 22 26 31
23 21 19 16 12 12 17 22 29 33 32 34 41 46 54 59 63 58 32 12 13 15 14 12 8 8 8 6 6 14 19 20 18 18 20 20 20 19 20 19 20 22 23 24 26 28 25
24 21 19 16 12 12 17 20 28 32 33 35 39 44 52 60 61 58 38 18 11 15 16 15 13 11 10 10 10 11 14 15 16 19 21 21 22 23 23 24 26 27 25 25 27 24 23
25 22 19 18 14 11 16 22 26 32 37 35 36 41 49 55 58 54 41 22 6 17 18 17 17 16 14 12 12 12 13 14 14 17 20 21 22 23 23 24 25 26 28 27 26 24 26
26 23 20 17 15 12 15 20 26 31 32 32 34 36 43 51 53 51 38 25 12 13 20 18 18 17 17 16 14 14 14 14 15 15 17 17 19 21 21 21 21 17 16 20 23 22 25
32 26 23 20 12 12 18 22 25 30 31 29 32 31 39 46 49 46 35 23 20 4 20 21 20 18 18 16 16 15 15 15 15 15 16 17 18 18 16 20 19 16 17 21 21 22 26
33 27 24 18 11 14 20 26 26 27 30 25 29 29 34 40 42 42 34 17 14 13 14 22 22 22 18 17 17 17 16 16 16 17 17 17 17 17 17 15 15 14 15 17 19 22 24
35 27 24 21 17 18 21 26 26 26 25 22 26 25 30 36 36 37 33 18 9 8 7 21 23 23 21 19 17 17 17 15 14 14 16 17 17 17 16 14 13 16 16 18 20 22 22
33 26 29 24 19 21 20 24 25 27 18 20 21 22 27 31 32 35 33 24 13 9 9 8 23 25 24 22 19 18 18 16 15 14 14 13 13 14 15 13 17 18 17 17 19 20 21
33 33 32 29 25 26 23 23 24 22 15 17 18 20 24 30 28 30 32 28 19 12 10 10 13 26 26 25 24 18 17 16 16 17 17 17 17 17 16 14 17 17 18 18 17 18 18
37 38 36 28 31 25 23 23 19 19 14 14 15 17 22 26 26 25 28 29 25 18 18 5 9 15 28 28 26 25 20 19 19 19 20 21 22 22 21 20 20 21 21 22 21 19 19

GFSGBSN_500_spd_060.txt.gz
Wind_Speed
29 28 32 34 37 38 39 43 46 47 50 55 63 71 77 80 75 50 35 38 44 50 47 41 33 28 14 13 22 23 30 36 44 58 53 50 60 66 65 60 55 53 54 53 56 60 59
30 29 31 33 35 36 37 42 45 45 49 54 63 70 75 80 73 50 33 38 44 48 43 35 26 25 21 14 13 29 29 32 51 43 60 40 58 63 61 62 55 51 54 52 60 52 58
30 31 30 34 34 34 35 41 45 45 47 52 61 68 74 79 67 49 34 39 43 46 39 30 23 24 18 12 11 15 30 35 57 56 64 44 48 64 65 60 57 52 49 48 53 53 48
31 29 30 32 32 33 35 41 42 44 47 51 58 66 73 77 64 49 33 38 44 44 38 27 21 20 18 15 10 13 25 35 61 58 46 35 48 54 65 63 58 54 47 48 48 46 50
30 29 28 30 31 31 33 39 39 43 45 50 54 64 72 76 65 47 33 36 42 40 38 27 19 19 21 17 13 11 24 32 56 61 45 41 49 46 61 59 59 55 50 46 39 32 53
29 29 27 28 29 29 32 38 41 44 44 47 54 62 69 75 68 51 33 33 40 38 39 28 16 19 22 19 18 11 21 34 62 62 43 51 46 47 61 60 58 52 50 50 47 41 37
28 26 25 28 27 30 32 37 42 41 42 45 52 60 68 74 74 52 32 30 35 37 40 27 23 13 20 21 16 11 25 40 57 66 44 49 37 43 38 57 54 51 48 42 43 41 35
26 24 25 27 26 29 31 35 39 36 41 46 51 58 66 74 74 49 30 27 29 36 34 34 20 11 14 17 13 20 29 47 48 50 41 47 36 40 39 51 54 49 45 41 38 38 38
26 23 24 25 24 27 29 30 33 36 40 44 50 57 64 71 71 52 29 23 23 29 32 36 28 11 10 9 9 13 26 48 45 49 46 44 25 37 36 41 54 46 43 38 36 36 36
25 24 24 24 22 22 25 26 30 35 38 42 47 54 61 68 70 58 28 17 18 22 26 33 34 24 8 7 15 22 35 40 51 52 51 32 30 28 28 35 37 48 41 36 32 33 31
25 24 24 23 20 18 23 25 28 34 36 40 44 52 59 67 71 61 26 13 16 15 21 27 32 30 18 17 32 28 34 34 39 41 37 26 27 33 26 32 33 36 45 35 33 31 31
25 25 23 22 17 15 22 24 27 32 35 36 41 50 57 65 69 65 26 11 13 11 14 22 25 22 22 21 28 18 28 32 36 34 16 23 29 26 29 29 33 33 38 36 32 32 32
26 26 24 20 16 13 19 21 25 30 31 33 39 47 55 62 68 66 31 9 8 12 9 17 20 18 23 21 30 16 28 34 36 36 18 30 29 23 28 31 34 32 30 36 37 35 35
28 26 25 19 16 13 16 19 23 27 29 31 36 44 53 60 66 66 39 7 4 7 9 12 16 16 12 10 24 17 30 32 37 29 24 22 27 29 30 32 31 30 31 32 34 34 32
28 27 25 19 17 11 12 15 22 25 27 29 34 42 51 59 64 64 43 11 3 3 6 8 12 14 14 10 13 24 32 37 30 32 26 21 19 24 25 28 30 33 32 32 32 31 29
29 28 25 20 17 12 12 14 19 22 24 28 32 38 48 56 61 63 49 20 3 2 2 5 9 12 13 13 16 21 30 35 31 27 16 15 15 23 24 26 28 26 27 30 31 30 28
32 29 26 20 15 11 10 11 13 18 24 28 31 36 44 52 59 61 52 28 4 5 3 3 8 8 9 15 15 21 27 31 28 23 16 21 14 16 20 22 22 27 28 28 28 28 29
34 32 27 21 17 12 8 8 10 16 21 26 30 34 40 48 54 59 53 34 4 7 5 3 6 9 7 14 18 20 25 26 23 17 16 22 18 16 15 14 19 20 25 26 27 27 25
35 36 31 23 17 11 8 9 9 15 20 24 27 31 36 44 50 56 51 34 4 9 9 6 6 8 7 11 17 18 18 15 14 16 21 17 20 20 20 21 23 21 20 23 24 25 27
38 38 29 25 17 12 10 7 8 14 19 21 24 30 33 40 47 53 50 32 6 12 12 11 8 8 7 8 14 17 21 19 16 15 18 18 17 18 17 15 17 20 22 25 27 29 23
37 36 32 26 18 13 10 4 7 11 15 18 22 28 30 37 44 49 50 34 12 11 15 14 11 10 9 7 9 17 22 18 20 24 19 16 19 18 18 18 19 21 23 25 26 22 28
36 38 31 24 18 12 10 6 6 10 14 17 21 23 28 33 39 45 46 38 17 9 16 17 16 13 11 10 11 11 14 20 20 24 26 24 23 24 23 23 25 24 25 27 30 28 28
41 36 30 24 19 11 7 4 5 9 13 16 18 21 24 31 33 40 44 41 23 5 16 19 18 18 15 14 12 14 14 15 16 17 21 24 25 25 24 23 24 22 23 25 26 29 31
44 40 34 25 20 13 5 1 7 5 10 15 16 18 20 26 29 36 41 42 25 15 10 21 19 19 20 18 16 16 16 15 14 13 14 16 17 19 19 22 23 22 24 24 25 26 27
47 38 34 26 23 17 8 5 6 8 10 12 16 15 18 24 26 32 38 40 29 12 9 15 22 21 20 19 19 17 17 17 18 18 17 17 17 18 19 21 21 22 22 24 25 27 29
39 37 34 29 25 17 5 2 7 9 9 10 11 13 16 20 24 27 33 36 29 15 8 4 19 23 22 20 19 18 19 19 18 17 17 18 19 19 19 20 21 22 23 25 24 27 25
41 37 36 30 23 18 8 8 9 11 10 10 9 12 13 18 21 23 27 36 32 22 14 5 9 19 23 23 21 19 18 17 17 17 16 15 15 16 16 17 22 22 23 23 23 23 21
40 37 35 32 25 17 10 11 6 8 10 10 8 10 12 17 19 19 22 28 32 25 20 12 8 10 21 23 24 22 20 18 17 17 17 16 15 15 15 16 20 18 18 21 22 21 20
40 34 37 33 27 21 13 15 10 10 9 10 9 10 12 14 16 16 18 24 28 28 21 17 10 6 10 21 25 23 23 22 20 20 20 19 19 19 20 21 22 22 21 21 23 23 22

GFSGBSN_500_spd_063.txt.gz
Wind_Speed
31 31 32 31 32 34 36 37 37 41 42 45 48 52 59 65 73 73 69 48 36 40 44 47 42 32 27 22 12 18 21 21 35 41 41 64 47 60 55 65 66 61 54 56 61 60 54
30 30 31 31 30 34 35 36 37 39 43 46 49 53 59 66 73 73 65 46 36 41 43 47 38 28 22 21 18 13 23 27 30 39 61 53 43 48 51 64 63 58 48 52 54 56 54
30 30 30 30 29 32 34 36 37 41 45 46 48 53 59 66 71 72 62 41 35 38 43 44 34 26 21 21 19 14 25 30 29 51 40 53 46 48 46 66 62 55 50 51 55 55 49
29 29 28 30 30 29 31 34 37 41 44 45 47 51 58 66 69 73 60 40 33 36 39 39 32 22 21 20 16 16 14 36 32 56 52 49 44 42 51 63 65 59 57 37 54 57 47
29 27 27 29 28 27 30 32 36 39 43 44 46 50 57 64 69 70 55 35 31 30 36 38 29 22 20 22 22 18 15 32 46 57 58 39 39 37 54 56 65 60 58 51 38 59 52
29 27 28 28 27 28 29 30 35 36 39 42 44 48 56 63 68 70 55 31 28 27 35 39 30 23 19 25 24 5 10 36 52 41 51 49 40 50 41 53 65 64 58 58 42 46 49
31 28 29 29 27 27 28 29 32 32 36 41 43 46 54 61 66 70 55 29 25 25 33 39 35 21 18 21 20 5 19 37 42 41 56 52 32 49 40 41 54 63 53 45 43 38 44
32 29 28 29 28 27 26 27 31 30 33 40 40 44 52 60 65 69 54 27 21 23 30 38 37 24 16 13 9 12 29 34 38 50 56 40 28 39 39 45 58 62 57 47 41 38 38
35 30 30 29 29 27 25 25 29 29 32 38 37 41 50 59 63 69 56 26 20 22 27 34 35 26 12 8 5 11 23 40 45 48 48 34 36 46 40 40 47 60 56 46 42 38 38
34 32 31 29 28 27 23 22 27 29 30 34 34 39 47 56 62 68 58 24 18 19 24 30 32 25 10 9 8 15 34 40 41 43 50 27 32 42 31 35 46 52 53 44 37 32 34
36 32 30 29 27 25 21 20 23 27 28 30 30 36 45 53 60 67 61 28 16 18 21 26 29 25 10 17 20 23 35 33 39 37 38 27 20 29 29 28 38 52 47 36 34 28 31
33 34 30 28 29 25 19 17 20 24 25 26 27 34 42 52 58 65 62 32 13 16 16 21 25 24 20 18 18 30 36 38 44 41 32 26 29 27 28 29 32 37 44 32 34 32 30
35 32 31 31 27 25 18 16 18 22 23 23 25 32 39 48 55 62 60 26 12 13 12 19 16 24 15 18 23 27 31 38 36 39 25 25 25 23 23 21 30 29 39 40 30 32 37
43 34 34 31 29 26 18 15 18 19 20 19 24 31 36 45 52 58 59 30 8 8 11 16 14 12 11 12 17 33 34 35 28 30 24 33 30 28 25 22 24 23 26 34 39 34 32
47 37 35 32 29 27 19 15 17 16 16 17 23 29 33 41 49 55 57 36 10 6 8 10 10 9 7 3 11 30 32 32 22 30 23 32 26 22 22 25 27 26 28 28 32 33 32
44 39 35 31 25 26 19 16 15 14 13 16 22 26 30 37 46 53 56 46 8 3 5 6 5 7 5 8 19 23 24 29 23 26 21 23 17 20 16 20 26 28 29 28 29 33 34
42 41 37 31 30 22 18 16 14 10 11 13 18 22 26 34 42 50 53 49 19 2 1 4 3 4 9 7 19 25 32 30 26 22 16 15 11 9 18 21 24 28 29 29 29 30 29
47 37 35 31 32 24 20 17 14 11 9 11 15 20 23 29 38 45 52 51 35 5 4 2 3 5 7 7 16 33 30 35 27 16 14 11 6 13 15 17 19 23 24 24 28 27 28
47 44 34 32 29 26 23 17 14 11 9 9 13 17 20 25 33 40 47 50 35 4 7 5 5 5 5 10 13 25 26 25 18 12 10 12 15 15 16 17 18 21 22 23 24 24 25
47 48 31 36 28 31 23 18 13 10 9 8 9 13 17 23 29 37 44 46 37 13 10 8 8 6 7 9 15 17 16 13 15 13 15 15 16 17 16 15 15 16 18 20 24 27 23
52 41 37 37 33 29 25 19 14 10 9 7 8 11 14 20 27 33 39 44 40 19 11 13 10 10 9 9 16 18 19 17 15 11 13 18 16 16 15 13 14 18 22 23 25 20 27
53 48 41 42 31 29 26 21 15 11 9 7 7 9 11 16 22 29 35 40 39 26 5 17 15 12 11 12 14 19 20 23 22 19 18 15 16 15 15 15 15 15 17 20 22 21 27
58 49 37 29 29 25 27 24 18 16 11 5 4 6 8 14 19 26 31 36 39 28 10 12 18 18 15 13 15 15 22 24 21 20 25 23 20 19 20 20 21 21 21 23 26 28 31
53 44 39 32 26 25 30 23 19 14 10 4 6 5 6 11 15 22 28 32 37 32 19 5 16 18 20 17 15 15 16 18 19 19 22 24 25 26 27 28 28 26 27 30 32 33 35
60 42 38 36 32 22 31 25 18 13 9 7 7 4 4 9 13 16 24 28 33 34 21 11 7 18 18 19 20 18 17 18 19 19 19 19 20 21 24 25 27 27 27 28 31 32 30
56 49 37 39 34 27 29 22 18 12 7 7 7 5 2 6 11 13 19 24 29 32 26 15 5 13 20 19 19 20 22 22 21 21 21 22 21 22 22 22 23 24 24 26 28 32 29
49 44 41 40 33 27 25 21 15 13 9 5 6 7 3 3 6 10 12 21 24 29 29 20 5 5 15 23 23 22 21 22 23 24 23 23 24 25 25 26 28 26 26 26 29 31 28
62 45 39 42 41 30 26 19 12 11 9 4 6 7 6 4 6 9 10 15 19 21 26 24 14 6 9 17 23 23 24 23 21 22 22 22 22 23 23 23 24 20 22 24 27 29 28
58 51 39 41 37 32 24 23 13 12 7 8 8 9 9 6 7 7 9 11 15 16 19 24 19 10 4 6 13 24 25 26 24 23 23 23 22 22 23 21 21 23 24 26 26 26 27

GFSGBSN_500_spd_066.txt.gz
Wind_Speed
32 34 31 30 30 33 34 35 37 38 40 40 45 48 50 52 58 65 70 71 55 34 30 33 41 42 36 26 23 21 14 13 29 27 34 48 56 59 65 55 63 63 56 58 60 52 53
32 33 33 31 31 32 34 36 37 37 39 40 44 48 51 51 57 65 69 70 50 31 28 34 42 41 33 22 22 18 16 17 22 39 30 53 44 53 61 52 63 59 63 55 54 51 34
36 34 32 34 32 33 33 35 36 37 39 41 42 45 49 49 56 64 69 70 47 31 29 36 41 40 31 22 19 16 14 15 23 32 37 42 49 48 55 49 58 58 58 55 63 54 38
43 35 34 35 35 33 35 34 36 35 39 40 40 44 46 48 56 63 68 67 42 31 31 36 41 40 26 22 23 21 17 12 28 31 38 38 53 46 43 46 51 57 59 61 57 62 35
40 40 35 34 35 35 34 34 35 34 38 39 40 43 44 48 55 63 67 62 39 32 31 36 42 41 27 22 26 30 19 15 36 36 53 40 52 49 39 54 51 61 57 56 50 57 35
41 41 37 35 34 36 34 33 33 33 37 38 39 42 43 47 55 62 66 60 38 33 31 35 42 43 30 23 26 21 9 18 37 41 48 37 58 46 42 55 46 59 55 50 50 43 45
43 43 42 31 34 35 36 33 32 32 35 36 37 40 41 45 54 61 65 56 37 34 28 35 42 44 24 20 23 8 8 25 30 37 46 31 58 42 26 40 34 46 55 45 40 45 23
54 47 43 30 33 36 36 33 32 31 33 34 36 38 38 44 53 61 63 52 35 32 28 34 41 39 18 15 19 6 13 24 26 37 30 37 54 43 30 41 36 49 53 48 33 41 22
63 56 48 34 32 33 36 34 32 29 31 32 33 34 36 42 52 59 61 54 33 25 27 33 37 31 16 15 13 8 18 26 35 37 34 45 42 24 36 36 42 51 52 57 34 32 31
65 63 60 41 27 40 34 32 32 27 30 30 31 30 34 40 48 56 60 57 32 22 25 30 29 22 17 13 7 11 32 28 27 34 39 32 25 38 27 35 38 44 57 53 48 31 36
70 69 64 53 31 35 32 30 34 25 28 28 28 27 32 37 45 53 59 53 29 21 24 26 24 23 18 11 9 18 29 11 19 43 33 25 35 38 33 27 35 42 42 45 47 38 30
70 70 70 61 31 32 35 32 32 24 26 26 25 24 30 34 42 50 56 54 33 20 19 22 20 17 20 12 28 30 19 12 21 45 28 35 26 35 31 32 32 40 42 45 42 38 30
79 69 72 63 46 27 32 34 30 25 24 24 22 22 27 32 39 47 54 54 28 18 17 20 19 13 18 16 23 20 14 27 26 38 23 22 21 31 24 20 27 34 35 40 48 48 39
86 76 71 68 52 28 27 36 32 25 22 22 19 22 25 28 36 44 51 50 25 13 16 17 19 14 14 14 25 25 19 34 30 27 22 22 24 26 23 17 18 26 31 36 39 47 44
86 78 72 70 59 21 21 36 30 25 21 21 18 19 22 25 33 41 48 49 28 8 11 13 13 10 11 11 21 22 20 23 27 19 18 23 22 17 19 16 20 25 28 31 34 35 34
77 71 73 67 50 25 27 33 28 25 19 18 17 17 18 22 30 39 43 47 30 6 7 10 8 11 11 9 25 31 25 24 23 20 25 21 26 20 14 13 16 17 18 24 35 32 33
66 68 71 63 54 26 25 32 25 25 18 15 15 12 15 19 26 34 40 44 38 3 3 7 4 8 10 14 26 24 24 26 23 24 25 21 18 16 14 15 20 19 19 22 24 27 23
59 68 63 58 45 33 36 28 22 24 17 16 16 9 11 16 22 29 36 40 42 10 0 4 4 3 7 8 22 29 21 16 21 23 22 16 12 9 9 10 13 21 25 23 24 23 27
61 62 59 53 48 35 33 25 24 23 17 17 13 7 8 13 19 26 33 38 39 21 2 1 2 2 4 7 27 33 25 19 18 13 10 11 9 10 11 12 11 10 13 18 19 23 23
60 57 54 56 51 40 32 29 25 25 21 16 11 7 5 10 15 23 30 35 37 31 4 5 2 2 4 8 24 28 26 27 18 7 7 8 7 7 8 7 8 11 15 17 21 23 17
49 54 56 57 49 43 26 23 21 26 21 17 12 8 3 7 12 19 26 31 35 32 16 7 6 4 4 9 16 23 19 27 11 9 10 12 10 9 12 14 13 17 17 19 22 15 23
47 55 57 55 52 30 29 22 23 25 20 18 14 8 3 3 8 16 22 27 31 33 29 4 11 7 6 8 15 18 17 16 18 13 10 14 14 13 11 13 12 12 15 19 18 19 22
50 53 57 62 44 28 28 22 28 28 21 17 14 9 6 1 4 11 18 23 27 29 30 19 6 11 10 10 11 15 17 16 18 19 18 13 12 13 14 14 15 14 13 14 15 17 20
60 61 45 55 34 30 34 28 32 27 22 19 15 11 8 3 2 7 14 17 23 26 27 23 9 12 16 14 12 13 15 20 23 21 19 19 22 21 21 20 20 18 19 21 23 25 26
53 53 49 47 32 33 34 22 36 29 25 22 15 12 10 6 1 3 10 15 19 23 25 24 16 5 17 17 18 17 17 17 20 25 25 24 23 24 25 26 27 27 27 28 29 28 29
46 35 48 34 32 35 25 24 36 29 27 23 16 13 11 8 3 2 5 12 16 20 21 22 21 11 8 16 18 20 21 22 20 20 21 22 22 22 22 22 24 27 24 26 28 31 28
54 42 38 33 37 34 25 28 32 28 26 21 15 14 12 10 5 1 4 8 12 14 18 18 20 19 8 9 17 22 21 22 21 23 24 24 24 24 24 25 26 26 25 27 28 30 29
50 54 46 40 42 35 26 30 25 26 22 20 17 14 12 11 7 3 3 5 9 12 14 13 17 18 18 9 8 15 20 21 23 21 21 23 25 26 25 26 26 25 23 25 26 26 27
54 43 34 38 37 38 30 34 30 25 20 19 18 15 12 10 7 5 3 5 5 9 10 12 11 17 19 17 11 8 14 21 24 22 22 22 24 25 25 24 26 26 25 26 25 27 29

GFSGBSN_500_spd_069.txt.gz
Wind_Speed
42 39 41 38 38 35 36 36 36 37 39 39 42 41 42 43 46 47 53 60 68 67 53 39 32 36 42 42 33 27 22 19 17 18 22 39 44 57 63 60 60 56 58 60 48 50 55
47 43 44 39 40 37 37 35 36 37 38 40 42 41 43 44 46 47 53 61 67 64 49 38 34 37 43 44 31 23 18 17 14 18 29 34 48 49 59 58 61 56 56 60 61 45 46
46 48 44 46 42 40 36 35 37 38 38 39 41 41 43 44 46 47 53 61 65 60 46 38 35 39 45 39 33 21 18 16 14 24 32 24 41 46 55 54 58 59 59 63 59 52 54
51 47 50 49 43 42 37 35 35 38 37 39 40 40 42 43 44 46 54 61 64 56 43 35 36 41 46 41 28 21 23 17 16 22 28 21 40 46 51 50 59 62 60 63 52 51 52
58 54 47 49 47 42 41 34 35 36 36 37 39 40 41 43 42 46 53 61 61 53 41 32 36 41 44 31 21 25 28 24 21 29 30 29 43 45 48 49 55 63 58 63 58 57 53
56 59 57 49 50 49 43 30 35 34 36 38 39 38 40 42 40 45 52 60 58 48 35 30 37 42 39 26 23 29 18 13 22 33 40 26 38 49 42 50 51 54 56 56 59 47 56
59 56 61 59 51 57 49 34 32 33 34 37 38 37 39 39 39 45 52 60 54 42 31 29 33 39 38 24 25 19 7 13 19 36 36 36 47 54 31 51 41 46 50 52 41 50 59
63 61 58 61 59 54 59 45 29 31 32 37 38 36 38 37 38 43 51 57 53 45 29 29 34 38 33 24 22 9 5 12 28 24 30 32 48 45 37 50 50 37 53 48 47 44 52
68 64 63 59 60 56 58 59 36 26 27 37 36 36 37 34 37 42 50 55 52 34 25 27 30 35 31 19 13 17 17 10 20 32 25 36 55 43 36 40 47 33 53 47 34 46 42
70 67 63 62 61 59 58 59 42 21 32 39 34 34 35 32 34 40 48 54 47 32 24 24 28 32 26 16 23 28 27 19 20 26 20 34 52 30 30 41 45 36 38 50 39 21 25
75 71 68 63 62 61 61 59 56 22 25 38 30 32 33 30 32 38 47 52 44 29 20 24 24 30 22 17 32 25 24 14 20 25 33 45 35 28 24 30 30 35 36 48 39 23 28
72 68 65 60 62 63 61 59 57 31 23 34 27 29 29 28 28 35 44 49 42 24 16 21 21 25 13 19 18 21 27 25 18 30 35 41 31 29 34 30 30 29 29 39 45 37 22
82 75 68 63 60 65 62 60 53 40 24 32 26 26 26 24 26 32 41 46 37 21 19 18 19 18 8 20 12 10 19 16 19 19 33 31 28 27 36 25 25 26 26 33 33 37 42
75 80 75 67 62 62 64 61 58 46 26 33 28 25 22 20 22 29 37 43 34 23 13 15 20 17 10 16 11 8 14 27 21 23 24 25 28 24 22 19 21 24 32 33 31 27 35
33 36 52 67 63 60 61 63 56 40 24 26 25 23 19 16 19 27 34 40 35 20 12 14 17 12 10 18 14 8 16 34 21 19 17 23 25 27 17 16 21 27 27 31 31 32 32
15 17 43 63 63 57 60 58 53 36 25 29 23 19 15 12 16 23 30 36 33 16 9 12 14 13 13 25 14 15 23 27 17 19 22 20 20 20 15 14 19 22 27 30 29 27 27
26 23 32 53 56 56 61 58 49 28 22 28 20 16 11 9 12 20 26 32 34 16 8 10 11 13 12 21 17 19 21 14 12 15 20 21 16 14 10 7 15 19 20 24 26 27 26
30 23 32 62 59 58 58 56 46 25 22 25 20 14 10 4 8 16 22 29 34 20 6 8 10 12 15 19 25 23 17 17 14 18 16 17 16 12 8 7 11 14 13 15 17 22 26
28 24 53 59 53 57 51 46 39 26 26 23 20 13 10 2 5 13 18 24 29 26 10 6 8 9 12 23 19 19 17 17 18 16 13 11 10 8 10 10 10 12 16 16 14 17 21
38 27 58 52 53 52 49 46 31 27 21 20 19 13 9 4 2 10 16 21 26 28 20 6 5 7 6 28 27 23 17 13 15 14 7 8 7 6 6 7 7 8 10 16 20 19 19
25 58 63 45 51 44 40 44 25 20 22 21 20 14 10 6 1 6 12 18 24 27 23 8 5 7 6 11 30 24 23 14 17 5 5 7 9 9 9 7 8 8 10 13 16 17 20
54 59 48 49 49 41 45 30 28 23 22 26 21 15 13 9 4 4 10 15 20 24 24 15 4 6 7 10 23 27 21 16 20 9 6 7 8 10 9 9 12 13 11 12 12 16 16
46 51 49 50 50 41 32 37 28 23 17 28 20 16 15 12 7 2 8 12 18 22 26 22 6 8 8 10 15 19 20 16 18 18 14 14 13 11 11 10 9 9 10 10 12 15 15
34 43 48 39 42 39 32 36 29 24 21 26 22 17 18 14 9 4 5 9 14 18 24 24 14 4 11 12 14 17 18 18 18 19 20 19 17 16 14 14 13 13 15 15 16 16 16
29 42 52 35 37 43 36 29 26 25 22 26 24 18 19 16 10 7 4 7 11 14 19 24 25 15 1 12 15 14 15 15 16 17 21 20 19 19 21 23 22 21 21 21 22 20 21
50 46 41 35 27 41 36 28 26 17 31 28 21 20 20 17 12 9 6 4 7 10 13 17 22 24 19 7 7 17 19 18 17 17 17 20 23 22 22 23 25 25 25 23 23 24 23
47 49 41 46 37 45 33 30 25 20 32 30 22 21 21 17 13 10 7 3 5 7 8 11 15 19 20 17 9 4 15 19 19 20 22 22 22 22 24 24 27 27 28 28 26 28 29
46 38 44 37 39 40 32 33 23 23 33 32 23 23 22 20 15 10 7 4 1 4 6 8 11 13 15 17 16 11 4 8 16 21 22 21 21 22 24 26 29 30 29 29 31 32 33
47 39 33 32 41 35 28 33 24 28 34 29 28 24 20 17 15 12 8 4 2 2 3 4 6 8 10 12 16 17 17 14 10 11 14 20 23 23 25 26 29 26 23 25 27 28 29

GFSGBSN_500_spd_072.txt.gz
Wind_Speed
49 51 49 48 50 48 50 46 45 38 38 41 41 40 40 44 43 42 46 48 49 56 62 62 56 42 34 35 43 47 43 39 32 25 26 32 33 42 62 64 61 61 64 61 61 60 56
49 50 51 51 51 52 51 50 46 43 38 38 38 38 40 42 43 42 46 49 51 57 62 58 52 38 34 40 45 45 35 33 28 24 23 23 30 37 56 65 60 59 63 60 57 58 62
51 52 55 53 53 54 54 51 54 43 40 36 37 37 39 41 43 44 46 48 53 59 61 56 47 35 36 43 44 37 24 26 26 21 20 18 30 29 51 62 60 63 62 59 61 54 47
48 50 54 58 56 55 54 57 53 55 43 33 35 34 38 40 41 44 47 48 54 59 59 54 40 35 38 41 40 28 20 19 23 21 20 20 36 27 39 59 62 61 63 61 55 55 54
52 51 54 56 59 58 58 55 57 52 51 37 33 33 39 41 39 44 46 48 55 57 54 47 36 34 39 40 32 27 30 25 21 24 24 25 29 46 27 55 63 60 60 61 50 54 53
56 59 59 61 60 58 55 55 53 55 53 41 33 31 37 43 39 43 45 48 54 55 49 43 35 34 39 36 29 27 15 10 10 26 26 30 30 44 31 55 63 57 60 54 47 57 42
60 63 66 64 62 60 58 56 54 53 56 50 33 29 35 41 40 42 44 49 53 51 45 38 32 36 38 30 23 14 9 3 8 17 25 26 28 47 34 49 57 54 53 50 34 54 53
67 69 68 65 61 58 55 55 54 53 57 54 37 29 34 39 39 41 42 48 51 50 41 33 30 35 26 19 16 15 9 5 7 19 21 21 17 39 39 46 50 53 50 50 47 35 48
77 73 71 70 64 60 57 54 50 54 54 54 48 30 31 37 36 39 41 47 48 42 33 28 29 27 18 20 20 17 15 14 17 19 21 15 25 39 36 39 46 49 39 46 53 40 29
82 81 76 67 63 59 58 55 50 51 52 52 36 34 29 35 33 36 39 43 44 38 29 23 25 13 16 27 26 19 12 17 24 24 20 23 38 37 43 33 45 32 40 39 26 38 43
93 97 97 84 69 64 61 59 54 49 48 47 49 32 27 29 32 33 36 41 40 35 23 20 22 11 20 22 20 16 19 18 17 12 23 25 38 33 38 36 37 24 33 45 20 20 30
99 98 103 101 90 70 60 58 56 52 46 45 49 37 22 27 30 30 34 39 36 30 18 16 17 10 15 19 22 15 11 13 15 18 23 33 34 26 34 38 38 31 25 37 35 23 20
94 96 86 76 64 63 67 56 57 52 46 42 45 38 20 27 27 28 31 36 32 25 16 15 16 7 13 14 7 9 9 13 17 21 26 32 24 32 34 32 30 31 25 26 38 35 23
82 76 53 35 29 42 67 59 56 50 39 42 43 36 20 24 23 23 27 32 29 22 14 11 15 12 14 10 7 2 7 9 19 28 31 19 30 28 29 26 26 32 26 23 30 35 26
78 54 23 14 20 34 59 55 53 44 38 41 40 34 17 18 18 18 22 28 25 19 9 10 14 14 23 10 8 7 12 14 30 23 29 21 22 28 19 19 20 27 23 24 25 25 26
68 29 22 22 19 26 55 53 47 41 38 36 39 31 15 17 14 13 18 24 22 15 6 8 12 11 28 14 12 15 19 23 19 13 23 17 22 19 15 14 19 22 27 27 25 28 24
52 24 26 24 22 35 57 55 45 50 37 36 39 24 15 16 10 8 14 21 21 12 6 7 11 13 25 16 16 16 16 17 19 19 18 16 16 12 8 10 14 21 24 28 31 29 28
33 22 28 18 25 51 62 61 52 48 43 35 37 22 18 12 7 3 11 18 21 11 8 9 13 13 30 17 16 17 14 9 10 13 17 18 18 14 7 8 9 13 17 17 22 25 25
20 21 23 23 28 64 66 58 50 46 40 36 31 17 19 12 8 2 8 13 18 12 10 13 12 17 26 20 22 20 7 9 15 15 15 10 7 3 3 3 8 11 13 14 16 17 23
15 26 24 20 38 69 60 54 50 40 39 36 27 24 16 14 9 6 6 11 15 15 11 14 14 18 24 23 20 14 13 13 15 13 8 4 2 1 3 6 7 11 13 15 16 15 14
16 22 23 24 67 56 57 48 42 41 41 32 21 22 18 15 11 9 7 8 14 16 13 12 14 14 25 22 21 19 14 11 9 8 4 3 3 3 2 1 3 5 8 8 10 16 20
6 17 42 49 47 61 47 40 36 44 30 29 24 25 21 17 13 10 9 10 14 17 18 13 11 12 10 27 26 22 17 11 14 6 3 2 2 4 7 6 8 11 11 10 13 18 20
11 39 54 49 59 52 55 42 46 37 29 22 16 25 22 19 16 12 11 12 15 18 20 18 10 10 10 13 28 26 21 15 12 13 12 10 10 8 7 11 9 9 10 11 12 15 15
47 47 60 54 54 50 44 50 41 26 24 24 26 27 24 21 18 14 12 12 15 17 19 19 13 11 9 11 16 23 26 22 17 17 15 20 19 16 14 13 13 11 13 15 15 15 15
49 31 42 50 46 36 43 28 36 29 19 18 34 27 24 22 19 16 12 12 12 15 18 21 20 13 9 13 16 17 21 24 21 19 21 22 23 23 22 21 22 20 19 19 20 22 23
43 42 54 41 39 30 38 28 36 26 21 16 32 27 24 23 21 18 13 10 10 9 11 17 20 20 17 11 14 16 17 18 17 17 18 18 19 19 23 24 26 25 24 24 23 24 25
44 45 46 37 25 37 32 28 28 26 23 17 33 28 25 23 21 19 15 11 9 8 10 12 14 16 18 17 13 6 8 12 14 17 19 21 22 22 25 26 25 25 26 27 26 26 29
37 39 40 31 25 25 25 30 25 24 16 23 34 28 26 24 21 18 15 11 8 7 7 8 9 10 11 14 13 13 10 5 3 7 12 17 20 22 25 27 25 28 29 29 32 33 35
36 37 36 24 29 28 26 25 25 16 17 33 29 26 24 23 20 17 14 12 8 6 4 4 4 5 6 7 10 9 8 6 6 3 4 6 8 11 14 20 22 26 29 29 29 30 32

GFSGBSN_500_spd_075.txt.gz
Wind_Speed
44 42 42 41 40 39 38 40 42 44 49 49 49 46 45 43 43 43 44 44 43 47 52 54 59 58 55 49 42 43 43 49 52 50 44 43 41 43 44 46 57 66 59 59 64 68 54
50 49 48 44 43 46 44 44 46 44 46 50 49 47 46 43 40 42 44 45 42 50 53 56 60 56 52 46 43 44 46 48 46 39 35 35 32 36 36 40 60 62 57 57 65 64 54
51 51 51 49 47 45 46 45 46 47 47 47 48 47 51 42 37 41 45 49 46 51 55 57 58 54 48 44 44 45 46 39 33 28 28 30 30 29 30 37 56 59 58 58 65 61 60
55 52 53 53 50 48 45 48 49 49 50 49 48 47 47 59 41 42 42 53 47 52 56 57 55 50 44 43 48 48 41 33 29 24 25 27 26 23 21 25 50 60 53 59 64 56 59
55 54 52 50 48 50 53 51 49 49 50 51 49 47 49 55 47 42 45 49 46 53 55 54 50 44 41 46 46 39 33 26 24 28 26 25 13 28 27 36 37 62 57 55 63 57 54
58 56 55 56 59 58 57 57 53 47 50 49 52 49 49 51 57 48 45 47 45 51 53 51 43 41 41 36 30 28 24 18 12 15 22 20 14 22 33 31 47 60 55 53 60 52 44
64 64 66 66 64 63 62 59 55 51 50 47 46 47 47 49 56 50 43 44 44 50 51 44 37 34 27 28 26 22 11 3 7 8 13 21 13 16 29 30 47 53 46 47 55 43 44
66 68 69 70 71 70 66 61 57 51 48 49 46 44 44 49 49 56 44 40 44 48 46 35 30 31 19 21 20 18 14 3 2 11 16 12 8 19 30 35 46 55 44 46 51 44 33
69 71 73 76 78 76 71 63 56 53 50 48 46 42 44 48 44 52 40 37 42 47 41 31 25 18 19 12 14 18 18 18 17 17 14 10 9 17 18 38 40 50 45 41 49 40 39
81 82 81 79 77 74 72 69 63 55 51 45 43 41 43 45 47 47 38 37 40 44 33 25 20 10 10 11 15 14 10 18 16 11 15 13 11 23 21 42 37 46 39 39 53 47 32
84 82 84 83 83 83 80 76 70 61 53 48 46 41 41 41 47 44 37 36 36 41 28 22 15 4 4 5 8 16 17 15 8 4 6 1 19 28 25 35 43 35 34 33 40 44 24
87 82 79 78 78 79 80 77 76 67 58 50 48 43 38 38 42 38 37 32 33 31 19 15 15 4 5 2 7 12 15 8 13 15 7 15 30 32 28 28 33 33 26 35 28 20 20
78 75 72 71 74 77 49 20 30 50 63 50 50 42 38 34 42 34 33 29 30 27 17 14 13 12 9 5 7 14 15 13 16 12 11 33 26 29 27 30 35 29 29 36 34 28 9
72 68 71 71 71 38 11 15 27 55 58 47 46 40 36 36 42 30 26 27 27 21 10 10 6 15 10 5 4 9 7 13 16 16 17 22 26 22 31 30 24 25 21 22 21 24 14
70 68 68 62 31 15 17 13 14 57 50 45 43 40 33 37 35 21 20 23 22 15 4 7 5 15 13 5 8 10 8 13 14 14 16 21 26 21 20 21 19 18 15 9 13 18 17
67 66 54 40 15 15 12 10 26 51 43 39 34 39 31 36 22 15 18 19 16 8 2 3 10 20 14 8 11 16 20 16 15 13 18 26 26 22 19 19 18 18 17 15 13 12 19
63 54 44 19 14 18 15 20 55 52 47 39 41 33 34 27 15 12 17 13 11 2 4 2 13 24 15 13 22 19 15 14 6 16 17 16 12 14 10 11 16 19 21 20 18 15 16
59 47 33 15 16 16 23 30 53 52 50 49 44 31 21 22 16 13 11 8 4 3 8 7 15 29 20 21 19 19 11 13 14 13 15 15 12 9 7 6 10 15 17 19 19 19 18
50 34 22 9 16 18 29 51 56 44 45 43 30 29 22 15 14 13 4 5 3 6 12 12 16 28 24 23 15 12 11 13 15 17 15 12 8 8 6 5 6 8 13 16 20 23 23
35 23 11 12 18 23 50 63 62 47 53 44 28 21 22 19 16 10 4 3 7 10 14 16 18 30 26 22 15 12 9 13 15 12 9 8 7 5 4 2 3 6 8 11 13 17 19
20 15 10 17 15 38 62 62 59 47 45 41 28 24 19 21 17 10 6 4 9 14 16 17 21 31 26 22 16 13 13 16 11 6 7 7 6 5 4 4 4 3 4 5 10 12 15
19 14 9 12 15 57 62 58 49 47 38 31 26 20 21 21 16 11 9 9 11 15 18 19 24 32 30 25 18 15 12 11 11 9 9 7 5 5 2 2 2 5 5 6 9 12 15
10 6 6 23 55 60 57 48 46 44 39 30 18 17 19 20 17 15 14 15 15 16 17 21 19 26 27 26 22 19 15 12 14 10 6 4 1 4 5 2 2 6 5 8 10 13 15
15 11 34 55 54 55 49 40 35 30 32 21 21 17 24 22 21 20 18 17 18 17 17 16 18 19 18 26 26 26 22 16 13 11 11 10 13 13 14 12 14 12 11 12 12 13 14
24 42 49 48 45 41 38 38 40 28 23 23 22 19 25 24 22 22 21 19 20 20 20 19 17 14 14 16 22 28 27 26 23 23 22 19 20 19 20 21 21 17 18 19 19 18 19
28 30 39 43 40 30 28 40 25 29 21 13 19 22 25 24 24 23 23 20 17 18 19 19 18 17 14 12 11 12 15 18 20 24 22 20 21 21 20 18 18 18 21 22 22 22 24
35 42 40 39 35 33 28 29 26 18 17 15 24 29 28 25 24 23 21 20 17 15 16 16 16 16 16 14 10 10 13 16 15 18 18 20 23 22 22 22 20 22 22 24 25 26 28
30 36 25 26 25 31 26 27 26 19 14 16 28 30 27 25 24 22 20 16 16 15 13 12 11 11 10 11 11 9 9 8 5 7 9 11 13 14 14 17 19 19 22 24 27 29 30
28 22 21 19 25 30 25 25 26 21 17 14 24 28 27 24 23 21 18 16 12 11 10 8 7 6 6 6 6 5 4 4 2 0 1 3 4 5 7 10 13 16 17 20 22 25 27

GFSGBSN_500_spd_078.txt.gz
Wind_Speed
49 49 50 51 51 52 52 51 47 44 42 40 38 40 39 41 45 48 48 51 45 45 46 53 47 49 52 54 52 53 51 50 49 48 49 51 53 58 59 61 62 65 66 63 56 54 57
48 49 50 51 54 54 54 53 51 49 45 40 39 40 39 40 45 47 50 48 59 49 52 55 46 50 53 55 49 48 50 51 54 53 49 47 43 45 43 42 46 48 50 54 53 58 54
52 54 55 54 53 53 54 55 55 48 43 44 42 41 36 38 41 46 51 51 55 55 54 54 46 50 53 49 49 49 51 51 51 46 37 37 37 34 32 31 35 42 49 52 60 59 52
55 56 55 56 55 55 56 56 54 51 49 46 44 42 42 37 39 44 49 51 57 63 59 49 47 50 49 46 47 48 47 47 43 36 33 33 29 24 26 31 29 33 41 52 60 58 52
62 59 56 54 55 56 57 58 57 57 54 51 48 42 39 39 39 40 47 49 56 61 62 47 47 48 44 43 42 34 34 34 26 24 26 29 23 21 19 20 18 30 38 51 53 56 52
66 62 58 56 55 57 58 61 62 61 56 52 48 43 39 39 40 39 43 45 54 62 59 45 43 43 40 35 25 33 36 26 18 21 9 12 21 13 14 23 20 22 43 42 49 49 50
62 61 64 66 66 65 65 61 63 64 61 60 53 46 41 37 40 40 42 41 50 58 58 44 39 37 32 20 25 29 33 19 16 11 7 2 4 3 17 25 24 24 42 20 43 42 52
64 68 72 74 77 75 75 70 66 62 62 57 52 46 41 36 41 41 42 43 51 52 56 40 33 27 23 14 22 25 26 20 13 11 7 3 3 5 19 28 9 26 45 33 37 44 51
73 74 76 78 76 75 74 71 65 62 59 58 51 45 40 36 38 37 42 43 50 60 53 37 28 24 14 10 19 19 15 15 12 6 7 6 5 8 19 13 8 26 41 37 32 43 53
77 80 75 74 74 71 70 69 67 64 61 57 50 47 40 35 38 38 40 37 51 48 44 33 21 17 13 7 16 18 6 5 5 8 3 4 3 12 18 14 19 33 36 32 29 39 41
78 76 74 72 68 66 65 66 63 61 62 59 55 50 40 36 36 35 28 37 39 45 37 24 16 15 8 4 13 18 10 11 4 4 6 3 4 9 23 22 27 37 33 26 30 37 38
82 78 72 66 66 64 68 69 67 64 65 68 56 53 46 36 35 34 31 40 48 39 30 21 13 7 2 2 8 14 10 9 14 11 6 5 15 11 25 24 26 33 30 17 21 32 31
77 71 70 68 64 64 59 56 39 23 21 36 62 56 47 39 39 31 31 34 34 31 25 13 10 4 2 2 10 13 10 11 12 10 12 24 20 19 19 22 24 24 23 19 13 16 25
72 68 66 61 54 49 40 15 11 8 17 31 58 58 42 39 39 28 34 37 36 25 17 7 4 8 7 1 7 10 7 12 11 19 14 23 24 23 21 21 20 20 11 10 17 23 11
68 65 59 52 44 34 13 3 5 8 8 29 56 50 42 39 37 33 34 35 25 19 6 2 9 9 8 3 9 14 9 11 12 16 14 16 20 20 20 20 17 16 19 11 19 20 14
66 57 53 42 32 16 7 12 3 13 35 28 50 44 43 37 23 25 29 24 17 10 5 4 17 12 7 7 15 11 12 9 16 13 16 19 24 23 21 17 15 11 11 10 7 7 4
59 53 44 31 24 14 10 4 10 22 44 50 51 46 42 31 30 21 20 16 15 3 6 15 20 16 15 20 19 13 10 12 22 26 22 19 15 15 11 10 10 10 7 7 0 2 3
55 44 31 22 15 5 10 24 29 33 50 56 46 35 28 33 18 15 18 12 8 9 8 25 24 18 19 19 16 12 12 14 15 18 19 19 17 13 11 9 7 6 7 10 10 9 6
42 27 24 17 6 11 11 29 37 49 52 48 44 38 37 30 14 9 10 7 4 11 11 32 28 25 24 22 16 14 14 19 21 19 17 16 16 13 13 9 8 6 4 8 10 11 14
33 26 23 5 15 13 23 28 50 52 36 42 40 39 35 21 13 12 8 6 10 12 18 32 31 29 24 19 15 13 14 16 17 16 16 15 15 14 13 11 8 6 4 1 4 6 10
28 28 25 8 14 20 35 45 53 34 45 39 38 27 19 13 12 11 7 11 14 15 20 33 35 31 24 17 14 15 16 15 13 13 14 13 13 13 12 12 12 10 7 3 1 4 5
23 24 20 6 18 45 50 49 38 45 43 34 30 23 14 9 13 10 12 15 18 17 22 30 37 31 24 20 15 14 16 14 12 10 9 11 14 12 8 8 8 8 6 2 1 3 4
28 20 4 35 45 48 46 42 44 44 34 23 22 19 15 12 13 16 19 19 19 20 25 30 34 36 27 23 17 16 14 11 10 9 7 6 5 5 5 4 4 7 4 5 5 6 8
24 9 32 37 39 37 34 36 33 32 26 16 13 16 19 14 15 19 21 21 20 19 22 26 34 34 27 24 20 16 13 8 7 7 4 2 4 6 9 8 10 11 11 11 11 12 13
15 23 28 32 31 27 32 33 26 22 18 11 10 14 16 12 16 22 21 19 19 18 17 22 25 30 22 24 19 19 19 17 15 13 13 13 17 16 16 17 18 19 17 14 15 17 19
13 19 24 24 20 18 23 24 16 14 9 9 9 18 16 13 20 24 23 22 23 21 19 16 15 17 16 17 20 19 18 16 19 22 22 23 22 21 20 21 19 18 19 19 20 21 25
11 14 19 19 17 19 19 20 16 9 3 9 14 19 18 16 21 24 23 21 21 21 20 19 16 14 13 12 11 9 8 9 9 11 11 14 14 17 18 19 19 20 19 21 21 21 26
4 5 10 8 6 11 14 11 6 5 2 13 21 21 18 19 20 22 20 18 18 17 16 15 14 14 12 11 8 6 5 4 2 2 3 5 6 8 10 12 14 14 16 17 20 22 24
10 11 6 5 4 10 7 10 8 3 3 17 19 19 17 20 20 22 20 17 15 13 12 9 9 8 8 7 6 4 2 2 2 4 4 7 6 8 10 12 14 15 17 20 22 24 25

GFSGBSN_500_spd_081.txt.gz
Wind_Speed
50 47 46 47 47 49 50 51 52 53 52 52 53 52 50 46 42 40 40 38 38 41 47 49 49 55 51 46 44 40 43 45 48 50 51 51 51 51 51 54 59 63 57 57 53 52 49
52 52 52 53 52 53 53 52 52 54 55 53 51 52 52 45 43 41 40 39 39 40 48 47 52 57 55 51 42 40 43 47 50 51 50 52 52 51 52 52 57 59 61 64 63 59 53
56 56 56 56 57 54 54 54 51 52 52 52 54 51 48 46 44 45 42 41 40 35 45 46 55 57 55 51 42 38 43 42 44 48 49 50 45 39 38 39 43 46 52 57 66 66 63
60 61 60 57 57 55 53 50 52 51 50 51 51 54 52 50 49 46 42 39 37 41 39 49 53 55 60 47 39 36 33 39 46 49 42 33 31 29 28 29 30 32 37 40 41 55 65
66 66 64 60 57 55 54 56 55 55 56 54 56 54 53 51 48 46 43 38 36 41 42 48 48 56 53 40 34 25 33 38 37 32 28 25 20 18 17 16 22 28 34 36 40 42 55
68 68 69 66 64 63 64 65 66 65 64 61 57 58 56 51 45 44 43 38 35 39 42 44 54 55 49 32 22 26 30 33 21 20 16 9 5 4 9 13 12 15 18 22 29 44 49
72 76 77 74 72 73 72 71 71 71 71 67 62 58 55 53 47 43 43 38 39 36 46 40 46 56 40 24 18 24 26 27 22 16 15 14 14 6 6 10 13 17 9 12 20 41 47
78 78 77 77 78 76 74 73 72 70 69 64 64 61 56 51 46 43 40 39 36 34 36 36 45 40 22 14 16 22 22 21 17 14 13 14 15 8 3 5 10 4 19 22 21 37 42
75 76 80 79 77 74 72 67 65 63 63 64 58 54 55 51 45 42 41 39 36 37 38 41 40 24 15 9 14 19 23 22 18 14 5 13 13 9 7 8 8 13 20 22 25 34 38
76 78 78 75 70 65 64 63 62 59 55 52 49 50 50 47 41 41 43 38 37 38 40 39 35 21 13 5 11 19 16 17 16 11 8 12 6 1 4 6 13 22 20 25 25 30 26
78 79 75 69 65 64 62 59 58 56 53 52 46 41 44 43 37 43 38 37 34 31 36 20 23 16 7 4 12 16 11 9 16 9 6 8 2 1 5 18 18 22 18 17 14 18 24
80 75 70 66 60 53 48 45 42 41 35 42 52 49 39 40 44 41 38 34 29 29 27 15 10 8 5 3 10 12 11 13 12 10 6 13 5 14 15 18 24 23 18 12 11 14 18
75 71 64 55 47 43 37 33 28 15 12 8 15 40 43 46 43 39 34 22 25 25 12 10 6 10 6 2 9 10 10 11 12 12 17 16 10 18 16 21 24 20 18 17 12 14 18
73 62 55 45 42 34 28 19 3 3 8 9 11 28 50 47 42 37 31 19 24 18 13 5 6 13 7 5 7 7 12 11 10 10 15 18 23 18 22 21 17 11 7 17 13 13 12
65 56 48 40 28 24 14 2 4 5 17 8 14 27 49 45 40 33 27 20 12 12 8 3 22 13 6 8 11 14 11 14 11 7 13 26 23 22 25 24 18 17 16 14 15 18 10
59 47 34 28 24 18 9 5 8 17 18 10 18 48 45 40 36 29 23 20 13 8 6 16 18 15 11 14 14 11 20 12 14 22 19 24 18 20 17 17 22 19 23 16 12 10 12
49 40 29 26 20 15 9 5 12 23 31 21 40 43 41 36 29 18 18 16 12 4 11 23 20 16 16 15 14 14 22 23 23 26 22 18 15 18 15 14 12 7 16 15 13 15 13
47 34 28 23 19 11 13 19 22 26 32 33 42 40 39 31 25 16 9 3 5 15 21 25 23 22 21 16 15 20 16 19 22 24 20 18 16 11 13 10 12 12 6 5 7 9 7
45 40 34 17 10 16 21 27 31 36 34 42 44 40 29 27 16 8 5 6 11 19 30 27 25 24 19 18 20 20 20 20 21 22 20 21 18 13 11 13 13 12 12 8 6 4 3
46 37 29 13 6 15 19 33 32 34 40 43 36 30 34 28 16 4 5 8 19 27 34 29 28 25 19 18 20 22 24 22 20 20 20 20 20 18 17 17 17 15 17 13 9 7 3
47 44 23 15 14 22 37 41 43 43 38 27 30 29 25 18 7 6 10 14 21 31 32 31 32 26 20 16 18 20 19 18 20 19 19 19 18 18 17 16 15 14 12 11 10 9 8
48 29 26 29 32 39 41 43 38 33 26 26 25 21 15 9 9 8 13 19 23 35 33 32 30 24 18 17 16 16 15 14 14 15 17 17 17 16 16 15 15 13 13 11 7 4 4
34 34 35 29 32 32 31 31 26 29 24 18 13 14 16 15 10 13 19 19 26 32 37 33 29 23 20 15 12 14 13 13 14 14 11 10 11 10 10 9 7 6 4 6 9 6 4
35 31 33 27 24 22 24 24 24 22 19 14 11 11 15 15 11 18 22 22 25 27 38 32 28 23 17 13 13 14 10 8 6 5 5 4 2 3 5 4 5 8 9 11 12 9 11
22 23 23 21 18 15 13 11 19 19 19 17 12 10 12 17 14 18 23 25 24 25 27 32 28 23 17 15 11 10 8 6 6 6 8 9 11 13 11 12 12 13 15 14 12 13 14
16 16 16 14 14 14 16 15 17 21 16 11 9 9 13 18 16 19 23 26 25 23 20 21 23 20 16 16 15 12 11 10 9 9 10 10 9 9 10 9 8 10 14 16 16 16 18
15 17 15 11 9 10 14 13 16 19 18 11 4 9 13 17 20 21 24 23 24 23 22 20 17 14 12 11 10 9 5 4 1 3 4 5 5 5 6 8 9 11 12 13 14 16 18
3 8 13 10 10 9 8 12 15 17 16 7 4 6 12 16 19 20 21 21 21 20 18 16 15 13 12 10 8 7 5 3 2 4 5 5 5 7 7 9 11 12 14 15 18 20 21
8 6 12 11 9 9 11 14 12 14 11 4 2 4 9 12 14 15 15 15 14 15 14 13 12 10 9 7 6 4 3 0 2 4 5 6 8 9 11 13 14 15 18 19 21 22 23

GFSGBSN_500_spd_084.txt.gz
Wind_Speed
59 58 55 54 55 54 55 56 56 54 53 54 52 51 50 50 49 49 48 47 46 43 40 42 41 45 44 48 51 47 47 44 38 38 41 43 43 44 49 51 53 54 53 56 56 58 55
59 58 56 56 57 59 56 54 54 56 56 56 52 52 51 50 47 46 47 46 43 42 42 43 40 40 40 45 45 53 49 40 38 39 43 47 48 50 53 53 54 56 56 58 60 59 56
61 60 60 59 60 58 56 56 55 56 57 56 53 51 51 49 49 46 46 45 44 42 43 41 39 40 41 43 49 53 47 37 36 43 47 48 48 50 51 50 51 51 55 60 61 57 59
64 63 64 64 64 64 63 58 56 55 54 54 53 50 49 50 48 47 45 45 46 44 41 42 40 39 39 44 48 50 36 31 33 39 35 36 38 38 35 34 33 37 42 49 49 56 56
64 67 68 69 69 67 63 57 55 55 56 56 57 56 55 52 50 48 46 46 47 43 41 42 41 38 46 40 44 37 26 24 28 31 29 21 20 16 12 12 14 18 21 28 34 41 47
69 72 70 68 68 68 68 67 64 63 62 60 59 59 58 56 53 50 47 46 46 41 40 40 38 38 35 34 37 23 20 20 25 29 19 19 20 15 7 5 6 11 15 17 22 28 33
72 71 74 75 76 76 75 74 71 66 63 59 59 59 59 57 54 51 49 47 45 43 39 39 39 31 35 30 18 18 17 17 22 23 14 21 18 17 7 7 7 13 18 20 16 29 36
75 77 76 76 76 75 72 67 65 61 55 51 47 47 49 49 49 53 53 48 44 42 40 35 37 36 41 26 14 13 16 17 18 14 11 18 18 12 9 8 3 4 7 10 15 21 30
79 78 78 74 68 61 57 55 54 52 51 49 47 44 41 39 41 44 49 47 42 40 39 35 35 34 40 22 9 11 14 12 12 9 8 10 9 8 8 10 13 11 10 8 13 19 25
82 80 74 64 55 48 44 44 40 41 40 39 40 41 39 33 33 36 41 41 41 38 35 29 27 29 14 7 3 10 14 8 8 4 5 9 8 8 13 7 5 10 9 27 20 21 23
70 71 69 55 46 40 35 32 34 31 32 31 27 31 36 34 29 32 36 39 35 33 22 22 22 18 8 4 5 9 11 13 7 3 2 3 10 9 13 15 20 25 26 25 27 20 23
72 68 60 44 37 29 24 19 27 28 16 11 8 14 33 30 29 34 36 32 29 21 16 16 12 6 7 6 5 9 11 12 7 4 6 7 13 10 12 15 14 23 19 19 15 17 18
67 59 49 35 26 22 18 17 15 7 7 8 8 6 35 33 35 32 30 24 16 14 13 15 10 12 12 7 6 9 9 11 15 14 11 9 11 14 22 19 19 18 16 16 17 15 13
57 53 40 32 25 19 16 13 8 10 13 13 13 14 35 31 31 29 24 20 15 12 14 11 14 16 12 8 7 7 9 4 10 11 12 20 20 22 23 22 17 23 18 19 17 17 24
53 50 37 31 25 21 13 7 10 19 23 18 3 16 40 34 29 28 25 23 9 7 20 18 23 18 16 14 11 7 11 9 11 22 21 19 20 20 18 17 20 25 20 21 24 17 18
48 46 35 32 25 13 8 11 22 26 24 8 16 40 42 35 30 26 25 13 15 22 20 27 25 20 18 14 15 15 10 11 13 17 21 23 20 20 11 18 25 24 24 23 22 20 24
47 47 41 32 18 16 18 23 30 26 34 44 50 47 41 35 31 25 25 15 8 22 27 27 26 22 17 15 19 19 19 21 24 21 19 21 20 16 16 22 29 31 31 28 27 26 19
61 62 47 26 29 34 34 35 36 48 50 46 41 40 39 31 25 24 18 13 26 28 31 27 25 21 15 18 21 20 21 22 19 17 17 16 14 11 13 18 18 22 24 24 22 21 16
68 64 51 26 34 31 31 37 41 43 41 37 34 31 32 26 21 16 21 27 28 34 29 29 25 21 21 20 20 20 22 21 20 18 17 15 13 14 14 14 18 18 19 18 17 14 11
64 56 48 47 44 45 43 42 40 36 36 31 22 21 19 19 18 16 22 28 32 34 32 31 27 24 23 23 23 21 20 20 21 20 20 20 19 18 18 19 21 23 15 10 10 7 5
55 52 50 48 47 46 42 37 32 29 26 27 22 18 17 15 17 22 27 28 37 33 35 30 26 25 25 24 22 21 21 18 20 21 21 22 23 22 21 23 22 22 16 13 11 9 7
47 44 42 45 44 42 40 35 33 28 23 21 14 16 16 14 17 25 26 36 35 34 34 29 25 22 20 20 19 19 18 18 19 21 22 21 19 19 20 23 20 17 14 12 6 3 4
40 39 36 37 39 39 41 42 38 36 32 24 22 22 21 19 18 22 24 34 31 33 32 28 22 20 18 16 15 16 16 15 16 15 15 15 14 13 11 10 9 5 5 4 5 1 3
37 33 33 33 34 36 39 39 37 33 30 26 25 24 21 20 18 21 22 27 27 29 29 28 23 18 14 12 13 12 11 12 11 10 8 7 5 5 4 1 4 3 4 7 8 8 7
24 32 26 28 31 32 36 36 34 29 26 24 24 22 19 20 21 22 20 21 24 25 25 24 18 14 12 10 11 9 6 4 1 2 4 6 7 5 6 7 6 7 8 8 7 7 10
20 25 26 21 25 26 32 30 30 22 20 20 21 20 17 20 22 22 21 20 20 22 20 17 15 13 11 10 7 6 4 2 1 4 4 4 2 3 4 3 4 6 8 9 10 9 11
23 19 20 19 23 20 23 23 21 20 16 15 16 16 17 18 22 23 23 21 21 21 19 17 15 12 10 8 6 5 4 5 2 4 3 4 4 3 5 6 5 6 8 10 11 13 15
26 22 22 16 15 18 19 18 18 14 8 8 11 13 15 18 19 19 20 20 20 18 17 15 15 12 12 10 7 7 6 5 4 4 5 5 5 7 8 9 10 11 13 13 15 18 19
27 23 23 24 17 13 12 16 17 12 4 1 5 9 10 12 14 15 15 14 13 12 12 11 11 10 9 7 5 3 2 1 2 3 5 6 9 10 11 12 14 15 17 19 20 22 24

GFSGBSN_500_spd_087.txt.gz
Wind_Speed
59 61 62 62 62 63 60 59 59 61 60 60 57 56 56 57 57 57 54 51 50 49 46 43 43 41 42 42 44 45 47 46 47 51 46 45 38 39 40 43 45 47 51 52 56 57 58
60 62 62 62 62 61 61 60 59 58 58 59 56 56 56 57 56 55 54 49 50 47 45 40 40 40 42 44 44 44 44 47 47 44 45 44 41 41 40 43 47 51 54 55 57 56 61
61 60 60 61 62 64 66 66 66 61 59 57 59 55 55 56 55 53 50 49 48 45 44 41 40 40 39 42 43 42 44 44 46 39 42 44 42 38 38 41 45 51 54 56 56 59 60
62 64 66 67 67 66 65 64 61 59 56 54 54 54 55 52 52 50 47 46 45 42 42 39 38 40 39 41 41 41 40 43 34 33 39 39 34 31 32 33 35 40 44 46 47 54 60
68 68 69 69 69 69 69 68 66 62 57 55 52 53 54 55 52 49 47 43 41 38 38 39 38 39 39 40 38 35 36 33 28 28 30 32 25 24 24 20 18 17 19 25 25 37 45
69 70 69 69 67 67 67 64 62 59 55 51 53 53 54 55 53 53 48 44 40 39 37 38 37 37 35 35 38 34 36 24 25 23 25 21 21 21 20 19 15 14 9 8 13 24 31
78 74 68 68 65 73 63 60 47 44 42 38 38 41 44 47 54 55 51 49 46 40 37 34 35 35 36 35 37 36 33 21 20 19 18 17 17 15 15 14 15 14 16 17 20 19 23
77 73 71 65 63 64 54 35 27 25 28 29 29 32 35 38 38 41 46 45 45 38 35 33 32 31 36 32 34 36 21 18 16 13 12 11 12 13 20 22 16 19 20 12 12 20 25
71 80 75 62 59 46 32 20 16 24 26 27 22 23 31 33 30 23 29 38 39 37 32 33 32 29 30 31 33 18 14 17 12 8 8 9 11 17 17 15 13 15 17 14 16 13 12
61 76 69 57 46 29 23 18 18 18 22 20 23 20 23 30 28 33 23 26 31 27 27 28 27 24 24 26 14 9 11 10 11 6 6 7 11 15 9 13 16 16 6 7 5 5 3
70 66 60 41 33 23 18 16 14 17 14 14 11 5 15 29 31 31 32 25 26 26 20 22 21 20 22 17 7 9 11 12 7 5 4 4 11 7 14 14 19 22 19 20 19 17 14
56 47 41 34 28 23 20 18 13 8 11 14 13 8 6 29 34 33 40 16 23 20 18 15 16 16 14 8 7 4 7 9 3 6 5 5 7 12 17 13 20 15 9 16 17 16 11
49 50 35 32 32 29 21 13 11 13 16 13 12 11 15 34 32 32 32 25 22 20 20 18 15 13 14 9 5 2 7 11 10 11 9 5 3 9 6 11 17 18 11 14 13 6 9
54 51 45 38 32 27 23 25 24 21 20 14 7 19 35 36 33 31 31 28 24 20 15 14 14 20 14 9 7 6 10 10 4 4 9 13 16 14 14 17 16 15 15 10 9 17 19
56 53 52 48 41 35 33 29 23 23 15 11 21 41 36 37 38 37 30 25 20 20 20 20 23 18 15 10 11 12 8 13 14 13 12 14 14 12 17 21 15 15 19 18 20 19 19
69 63 60 58 56 57 52 42 35 39 44 49 44 43 43 43 36 33 27 19 18 22 30 32 24 22 16 16 14 13 15 14 14 16 15 11 7 9 11 19 20 17 16 21 24 22 20
74 73 68 66 63 61 58 57 55 53 50 43 39 41 43 36 32 31 22 13 24 33 32 28 26 20 19 17 16 14 11 20 14 14 16 14 15 20 19 17 19 23 28 24 22 22 19
68 71 66 63 59 58 55 52 47 44 40 38 33 33 38 34 26 23 22 28 33 34 31 29 25 24 23 20 20 17 17 16 15 12 12 13 15 18 23 23 26 26 27 24 28 25 21
61 62 66 61 56 52 48 47 42 37 35 33 26 19 23 25 20 17 24 33 37 32 29 27 22 22 21 20 20 19 17 14 13 11 9 13 14 15 18 16 16 20 20 18 18 19 17
54 56 61 61 58 57 54 45 38 36 33 30 26 26 12 11 13 18 30 37 32 30 28 24 22 21 21 20 18 18 18 18 18 18 16 13 12 12 15 15 15 13 12 12 11 12 11
53 54 55 59 60 59 56 52 48 41 39 37 32 25 20 18 25 29 33 32 33 30 25 24 22 21 20 19 18 18 19 21 22 23 22 20 17 13 12 11 9 9 7 6 6 5 4
47 49 52 53 58 58 59 55 51 47 47 45 37 31 26 23 27 31 33 31 31 26 25 25 23 22 19 18 18 18 19 21 23 22 22 21 19 18 17 15 16 15 14 10 6 5 5
41 45 46 48 52 53 52 53 50 46 46 44 40 35 31 26 26 32 28 32 27 24 24 21 18 16 15 15 14 14 16 17 18 18 17 15 12 10 9 8 6 4 7 5 3 6 8
33 37 40 41 44 44 40 43 41 39 39 37 35 32 29 27 25 25 25 26 23 21 22 18 14 12 11 12 12 11 11 9 7 8 7 6 3 2 1 2 3 4 5 6 7 8 8
29 29 31 33 36 37 32 32 31 31 30 30 29 28 28 26 24 23 21 20 18 16 13 15 11 7 7 8 9 6 4 1 1 1 3 5 6 5 2 5 2 3 3 3 5 6 7
40 32 28 26 27 29 27 25 24 23 22 22 23 23 23 23 23 21 20 19 18 16 14 13 11 9 8 7 6 4 3 3 3 4 5 5 5 4 4 5 6 6 7 8 8 7 9
38 32 34 27 18 19 24 24 15 16 15 15 16 19 20 21 20 20 18 16 15 13 12 9 8 7 6 5 3 1 1 1 3 4 4 5 5 6 8 10 9 10 11 13 13 14 16
38 36 36 32 21 14 16 21 19 9 10 9 9 11 13 14 14 14 15 14 14 13 11 9 7 6 6 5 4 2 3 3 3 5 6 7 7 9 10 11 12 13 14 15 17 19 20
41 39 36 36 24 18 15 19 20 18 6 5 4 2 4 6 7 7 7 8 8 8 7 7 6 5 4 3 2 2 3 5 6 7 8 8 9 10 10 12 12 14 16 17 19 20 22

GFSGBSN_500_spd_090.txt.gz
Wind_Speed
61 61 62 63 65 66 66 66 66 64 64 64 65 63 62 60 60 56 55 52 53 51 49 50 50 46 44 44 41 42 40 40 42 44 46 47 47 48 45 45 45 43 47 51 55 56 59
63 65 65 65 65 66 67 68 69 68 67 68 63 62 63 62 59 56 53 49 50 49 48 47 48 45 42 41 38 38 39 39 40 44 46 49 45 42 45 46 47 48 48 51 54 57 59
66 65 64 61 61 61 63 66 67 67 66 65 67 61 56 59 60 56 51 46 47 46 45 44 44 42 39 38 37 36 36 37 40 42 46 43 48 51 52 48 46 47 47 46 50 59 61
63 56 61 62 55 57 57 53 58 52 49 53 54 58 55 51 53 49 50 44 43 41 41 40 39 39 38 36 35 35 35 36 39 41 44 47 46 47 47 43 38 34 34 38 45 54 57
60 66 65 56 56 65 69 62 58 60 61 55 48 47 48 49 46 43 40 38 35 35 34 34 34 33 34 32 32 34 34 34 37 41 44 42 36 40 36 25 23 23 20 24 25 34 46
60 56 48 53 57 68 57 60 49 57 46 34 41 36 40 42 40 41 35 32 32 30 31 30 29 33 31 27 29 30 30 31 35 39 36 27 30 24 15 18 21 18 15 19 17 20 26
59 56 57 66 63 65 58 37 31 23 19 15 16 24 30 34 34 34 33 25 31 29 26 24 28 28 27 26 28 27 30 32 35 30 20 22 17 13 18 22 21 20 22 21 19 19 25
54 53 52 55 54 37 26 25 19 14 12 11 13 12 23 24 29 31 31 27 26 25 30 29 27 24 24 23 24 28 30 31 23 19 17 15 9 11 13 19 16 17 20 18 16 23 25
62 53 43 41 35 30 23 23 18 15 15 16 12 12 14 23 23 25 25 21 25 25 32 29 27 24 21 23 24 27 27 15 14 14 11 9 8 13 13 10 10 12 16 15 10 18 17
73 59 46 40 35 33 26 19 14 15 9 9 9 12 13 23 26 29 26 27 29 24 21 27 22 20 20 22 22 20 10 11 13 13 8 13 8 12 5 6 14 20 18 13 9 7 4
81 78 59 40 34 28 23 19 17 15 12 12 12 7 18 26 35 37 36 24 21 23 17 17 18 18 17 17 16 10 9 13 14 11 12 10 11 3 2 12 5 17 19 16 17 11 12
79 81 81 72 43 31 26 24 20 18 16 13 14 11 17 36 42 39 23 32 23 19 16 14 16 13 15 10 4 3 6 8 9 11 9 9 5 6 5 5 11 8 16 15 15 18 10
72 74 76 78 78 52 30 20 21 19 16 14 8 3 33 43 40 27 26 32 31 23 20 16 16 12 7 8 4 2 5 6 5 9 8 6 8 12 6 4 6 8 2 13 16 12 8
71 69 66 66 69 72 67 46 37 28 22 11 28 40 44 39 35 31 36 34 18 17 20 17 12 11 15 10 5 5 3 9 5 3 5 11 8 7 7 3 4 3 5 7 8 13 18
66 67 68 62 61 62 63 63 61 58 54 48 42 40 39 36 34 30 27 16 23 19 17 17 22 20 16 11 9 7 10 9 8 10 8 9 8 4 5 5 7 8 13 14 12 17 21
59 64 66 65 57 55 54 54 54 51 50 50 50 47 44 42 40 33 23 22 19 22 30 31 20 19 17 14 14 16 16 15 15 14 5 7 7 9 7 9 10 9 12 14 17 18 18
59 58 61 63 62 52 47 45 44 44 42 42 39 38 35 33 28 21 20 21 25 30 29 26 23 22 19 15 10 10 18 17 12 10 14 16 14 9 9 7 10 19 18 18 20 19 18
55 59 62 60 61 57 49 46 36 32 33 31 29 26 28 24 23 28 32 34 36 33 28 25 23 21 22 21 19 16 14 13 12 11 14 20 18 18 16 15 17 17 20 18 17 18 22
51 57 60 65 64 64 58 49 41 34 30 23 22 15 20 19 19 30 38 36 34 31 31 29 26 24 23 20 18 14 11 10 8 10 12 17 19 18 13 12 13 14 17 17 18 20 19
51 54 56 62 67 70 71 61 51 43 38 34 25 15 11 19 30 38 34 33 30 27 27 25 25 24 23 22 20 19 16 16 15 14 12 12 10 8 7 10 10 11 12 11 13 14 15
46 50 54 56 59 64 67 66 62 57 51 46 36 32 33 40 39 33 30 28 26 27 25 23 23 21 21 22 22 22 21 21 21 20 18 14 10 9 9 10 12 12 13 12 12 12 9
45 46 48 51 51 55 57 57 57 57 55 52 47 40 39 43 36 29 27 24 25 24 22 22 22 22 21 20 19 21 20 20 20 20 19 16 16 15 14 12 10 10 9 8 9 8 9
48 47 46 42 43 41 46 47 47 47 48 46 44 41 36 33 28 25 24 20 17 19 18 18 17 16 17 18 17 17 17 16 15 13 11 10 8 6 5 4 6 8 8 8 8 8 7
44 46 47 41 34 34 33 37 36 37 39 40 40 39 33 30 26 23 18 15 15 13 11 11 13 14 13 14 14 11 8 7 6 5 5 3 3 4 4 5 7 8 7 8 9 9 8
41 41 43 45 31 25 26 28 29 27 27 28 30 31 30 30 28 23 17 14 12 9 6 7 9 9 7 6 6 4 3 4 4 5 5 4 4 4 7 6 7 8 9 11 11 12 14
37 40 43 44 44 17 19 19 21 21 19 22 24 23 24 22 22 21 19 17 14 12 10 9 7 6 5 5 5 4 4 5 5 6 7 7 9 9 10 10 10 9 10 11 11 13 13
31 36 36 41 41 34 15 16 13 13 12 12 14 15 16 18 18 17 16 14 13 11 9 8 6 4 4 4 3 4 4 5 5 5 5 6 7 7 8 8 8 9 12 13 13 11 15
31 33 36 37 37 37 32 17 13 9 7 7 6 7 9 11 12 12 11 10 9 8 7 6 6 5 3 5 5 6 6 7 7 8 9 10 10 11 10 11 11 12 13 13 15 16 17
31 30 33 33 35 35 36 29 19 14 11 4 6 5 5 2 4 6 7 8 7 6 6 5 5 4 6 7 8 8 8 8 9 9 9 10 10 11 11 12 12 13 14 15 16 18 19

GFSGBSN_500_spd_093.txt.gz
Wind_Speed
57 57 63 64 58 53 51 56 58 59 55 56 57 59 55 55 57 59 58 57 54 51 48 45 48 44 41 41 40 42 41 40 40 40 39 39 39 38 42 44 42 41 44 47 50 53 54
63 56 61 56 50 53 52 48 46 49 48 44 38 43 54 57 49 50 53 55 53 49 47 44 43 45 39 38 37 38 39 38 39 37 37 37 37 38 40 44 48 50 50 54 55 55 58
69 59 54 54 57 57 51 52 52 51 50 54 54 57 48 44 49 48 44 46 50 47 45 41 35 38 37 35 35 36 36 35 35 34 34 36 37 39 43 48 50 52 58 56 56 56 57
72 61 43 46 52 56 54 51 51 49 54 52 51 49 47 42 38 37 41 39 40 44 38 38 40 37 34 34 34 32 33 30 30 31 32 35 36 40 45 50 49 51 52 46 41 48 52
75 75 52 40 37 52 53 49 41 37 40 41 39 37 40 40 41 35 31 32 34 38 38 35 35 33 31 29 29 27 28 27 27 28 29 33 37 41 46 40 36 36 35 31 23 34 37
73 74 55 41 35 34 33 29 27 25 21 18 16 22 25 33 38 31 26 27 27 27 32 34 33 32 31 27 26 25 25 23 24 25 29 33 37 38 32 25 26 29 33 31 31 30 35
70 75 63 43 34 33 29 23 23 16 15 8 9 10 12 23 27 26 25 27 29 22 25 29 29 24 24 23 18 21 19 19 21 25 28 33 29 23 11 13 16 20 24 23 25 29 30
67 71 74 46 30 28 28 21 18 19 13 7 9 10 5 12 27 30 32 29 34 33 29 22 22 20 19 20 18 16 15 18 21 25 25 20 16 7 5 8 12 11 9 9 11 17 18
62 66 71 63 37 26 21 23 20 16 13 14 15 6 7 17 34 35 31 30 34 35 23 23 21 20 16 14 12 13 15 18 19 18 13 10 4 7 6 8 7 16 14 16 16 18 22
61 62 66 71 55 34 25 20 18 14 13 16 15 5 10 24 38 42 39 29 31 39 24 23 25 17 14 10 11 14 16 13 12 13 12 8 9 11 9 10 16 18 15 17 24 24 18
60 59 62 67 66 39 30 25 17 15 19 17 16 16 17 31 40 45 42 30 26 24 23 18 15 13 11 8 10 11 10 10 12 13 10 8 10 15 11 11 7 13 17 23 27 25 21
62 58 57 62 64 64 56 35 22 12 10 15 10 16 31 39 39 40 30 31 24 22 15 17 17 12 9 8 5 4 1 7 10 6 10 12 10 10 9 12 12 17 10 19 14 15 16
60 60 57 54 58 59 66 60 56 34 11 4 8 41 43 38 39 37 32 31 33 26 24 20 16 12 7 5 8 5 2 4 7 7 9 8 12 10 12 8 10 11 17 20 21 16 13
59 57 55 53 50 53 57 64 62 57 57 54 52 50 49 42 39 36 33 29 22 25 22 20 16 12 13 11 8 4 3 8 6 1 2 5 9 9 5 5 8 12 13 17 23 15 14
60 59 58 55 49 44 47 54 60 55 56 48 50 48 44 39 43 29 31 20 22 26 24 20 18 19 14 12 12 13 11 7 5 4 5 6 4 5 1 4 7 8 12 14 11 12 14
62 59 62 58 50 44 37 42 47 50 47 41 39 37 35 34 33 24 26 24 28 24 23 24 23 19 18 19 19 16 14 13 11 9 7 5 3 3 5 8 10 7 8 13 16 15 21
59 64 65 66 57 49 36 35 34 37 38 41 33 26 29 28 25 27 21 26 29 31 30 26 23 21 24 21 19 18 16 11 9 14 14 9 9 11 9 9 10 11 12 18 18 21 21
58 61 64 69 63 58 47 40 33 30 34 37 35 29 26 25 24 29 38 35 32 31 29 26 21 20 20 22 17 15 14 12 11 14 11 12 14 15 16 14 15 15 20 18 17 15 17
57 57 59 62 65 63 58 46 45 41 38 39 37 39 45 43 42 38 37 34 32 30 28 26 23 20 21 17 14 12 10 11 11 17 15 15 14 14 13 13 11 12 15 17 19 19 16
59 57 53 53 58 61 60 55 49 50 52 52 50 45 41 38 37 36 35 35 32 31 30 27 24 21 18 17 16 15 15 17 17 15 13 11 12 13 12 11 10 9 10 13 12 14 18
55 54 55 44 47 51 53 55 52 50 50 50 46 40 36 36 34 34 33 32 29 28 27 28 26 23 22 21 20 21 20 19 16 13 10 10 10 9 9 9 10 9 11 11 12 10 11
50 51 50 42 37 41 45 46 48 47 47 46 40 35 33 30 29 30 28 26 27 25 24 21 19 19 19 21 21 21 22 19 17 14 11 9 10 8 6 7 9 11 10 11 11 9 9
44 48 50 50 30 33 36 38 38 41 41 41 40 37 35 33 26 24 23 22 21 21 20 18 20 18 18 19 20 19 16 14 12 10 7 5 4 3 4 6 8 8 7 8 8 11 14
37 41 45 46 37 27 28 30 30 31 33 34 33 33 33 33 31 28 25 22 19 17 16 15 14 15 13 12 11 10 9 7 6 4 3 4 5 7 7 6 8 8 8 9 11 13 15
33 34 38 40 43 29 21 21 22 22 24 27 28 27 26 25 27 27 25 24 21 19 16 14 12 11 9 9 8 8 8 8 7 6 5 4 5 5 7 7 9 10 11 11 11 13 14
31 30 31 33 36 39 29 15 14 14 15 16 19 20 21 22 20 20 20 20 18 17 15 14 13 12 10 9 8 9 10 11 9 11 10 9 8 8 8 8 9 9 10 10 11 10 11
29 30 28 28 30 34 35 33 12 6 6 7 8 12 14 14 15 15 15 14 14 13 12 11 11 10 9 9 9 8 7 7 7 8 8 9 8 8 7 8 8 9 9 9 9 10 11
29 28 29 26 27 26 32 32 31 13 5 2 1 1 4 7 9 10 11 11 11 11 10 9 7 8 8 8 8 8 8 9 8 8 7 8 8 8 8 9 8 9 9 10 11 13 14
30 28 27 27 26 27 25 28 34 31 13 11 9 8 6 4 3 4 4 6 8 9 8 8 7 8 8 8 9 8 8 9 10 10 11 10 10 10 10 10 11 11 12 12 13 14 16

GFSGBSN_500_spd_096.txt.gz
Wind_Speed
59 53 57 63 51 46 44 44 44 44 47 43 41 37 40 46 46 43 50 50 53 52 49 45 44 46 43 42 44 43 40 40 39 39 39 38 39 39 38 38 40 45 48 51 51 52 55
60 57 59 61 51 42 50 47 40 45 43 40 38 38 35 29 31 39 39 44 44 48 47 43 40 42 40 41 40 40 39 38 37 36 35 36 37 37 37 37 40 45 50 53 57 62 60
59 60 64 65 48 39 37 38 37 35 35 39 39 41 39 36 30 25 31 34 35 40 44 43 39 39 41 37 37 37 36 34 34 34 34 33 33 34 36 36 39 46 49 55 63 63 59
60 62 67 71 49 32 33 32 26 25 22 28 30 33 39 38 30 27 23 31 31 33 37 39 39 37 39 37 34 35 34 32 31 31 29 29 30 30 32 35 40 46 52 57 55 53 59
64 61 67 72 49 29 27 28 24 24 17 16 18 22 26 41 37 26 24 20 31 28 32 34 35 32 29 32 32 31 29 27 27 25 23 24 25 27 31 35 40 47 51 49 46 47 52
67 65 66 72 52 34 25 26 24 19 17 13 10 9 18 17 28 29 27 19 27 31 30 34 32 29 32 30 27 26 24 23 21 20 19 20 23 26 30 34 32 28 16 18 15 24 26
68 66 65 70 54 45 31 23 22 23 23 12 10 4 4 9 31 31 23 26 32 34 29 31 31 34 29 30 29 25 23 19 18 17 16 20 22 25 27 14 8 8 16 19 20 25 31
66 63 61 67 65 37 37 22 16 19 19 16 13 5 2 16 36 33 31 27 30 28 33 29 26 29 26 22 20 18 14 14 14 14 17 19 21 23 19 9 6 7 11 20 16 30 32
64 62 59 66 69 53 34 27 24 16 19 21 15 8 13 31 41 41 42 33 21 32 33 32 24 28 30 25 17 12 12 11 12 13 16 18 15 14 15 9 8 14 16 23 27 35 32
62 61 56 62 63 63 40 34 25 10 14 23 15 16 25 35 33 40 43 27 23 37 32 31 28 22 21 16 14 11 9 9 11 12 13 12 12 12 17 14 16 18 22 30 33 28 22
60 61 53 56 60 66 67 47 14 10 20 22 24 24 32 40 35 35 37 36 40 34 32 30 26 21 16 15 11 6 6 8 10 12 13 12 12 17 17 14 13 21 30 31 31 28 24
62 60 53 50 57 60 62 66 67 37 30 35 37 33 35 36 43 23 33 40 37 39 29 31 23 19 15 11 8 6 5 4 12 15 15 14 17 19 13 10 15 20 21 22 21 17 20
66 63 55 47 48 53 60 61 62 63 51 45 44 41 36 40 32 30 28 31 29 27 24 24 21 17 12 9 10 8 2 2 8 10 9 12 14 16 9 13 16 15 17 20 17 16 17
66 65 59 53 44 48 51 52 56 55 52 44 47 47 37 35 30 33 33 32 30 26 26 24 18 15 13 12 9 6 6 8 9 9 6 6 11 11 7 12 13 9 15 11 13 20 12
64 63 63 57 50 41 42 47 43 47 47 44 41 41 35 31 28 30 27 31 30 27 24 21 21 19 14 12 12 17 14 10 9 9 11 11 6 5 7 8 8 8 11 11 13 9 15
64 60 61 59 59 48 39 41 43 38 40 37 36 33 30 29 25 21 24 23 30 28 25 25 22 22 21 23 22 20 17 12 8 9 7 5 2 3 4 6 9 13 14 17 14 14 20
64 54 55 59 57 55 48 47 46 44 39 36 33 33 32 27 25 29 27 28 29 30 28 29 29 26 27 22 19 18 17 13 11 9 7 8 8 9 9 11 15 14 14 16 15 14 17
60 50 51 54 56 52 51 49 48 52 52 50 44 41 42 40 40 37 36 33 32 30 27 23 25 27 22 17 15 16 16 16 13 11 15 14 13 12 12 12 14 15 13 13 13 14 15
57 53 46 46 51 51 49 48 46 45 52 49 43 42 43 40 38 37 33 29 28 28 28 28 27 22 16 13 15 15 17 15 11 14 15 12 10 8 8 10 11 13 10 12 14 14 14
54 55 41 42 42 46 46 48 45 43 47 49 43 42 43 40 38 36 35 33 29 25 23 22 20 18 16 15 18 20 19 17 14 12 9 7 7 7 8 11 12 10 10 9 9 13 11
47 50 44 37 38 37 39 41 42 39 40 45 41 38 36 35 35 34 31 32 31 30 28 25 21 19 19 17 19 18 14 12 9 5 6 5 5 6 7 8 9 9 7 6 6 5 5
40 43 46 36 33 32 34 36 37 36 36 35 39 32 31 30 31 33 31 28 25 24 22 21 21 20 21 21 18 16 14 11 7 5 4 5 5 7 10 12 13 12 8 6 5 5 3
35 37 40 42 33 28 27 27 30 32 32 32 32 32 30 27 27 29 31 28 27 25 23 21 20 20 19 18 17 14 11 8 5 3 3 5 6 8 8 8 8 6 10 11 9 8 9
32 31 33 37 37 34 23 22 20 22 25 27 27 27 26 26 26 25 24 26 23 21 19 17 15 14 14 12 11 9 7 5 4 4 5 7 8 8 7 7 8 7 7 6 9 10 9
31 28 26 28 33 33 37 22 16 14 15 18 20 20 22 22 22 22 21 20 19 19 18 17 15 14 13 12 11 10 10 9 8 9 8 8 7 7 7 6 7 7 8 7 5 6 6
32 27 24 24 24 28 32 34 25 13 8 7 11 14 16 17 17 18 17 17 17 16 15 14 14 13 12 11 10 10 10 9 10 10 10 9 9 9 9 9 8 10 10 10 10 10 11
30 29 24 22 22 24 26 30 32 30 10 6 0 4 6 10 12 12 12 12 12 11 11 10 11 10 10 9 8 8 9 9 9 10 9 9 8 9 8 8 7 8 7 6 7 7 8
25 27 25 22 22 22 23 26 30 34 32 9 11 7 4 2 3 4 5 6 6 6 6 6 6 7 6 8 8 9 8 8 8 9 9 9 8 8 8 8 7 7 7 7 7 8 9
23 23 27 23 21 21 22 22 24 28 34 30 9 16 13 10 7 5 3 3 4 4 5 6 7 8 10 11 10 10 11 11 13 12 12 11 11 11 11 10 11 11 10 11 11 11 12

GFSGBSN_500_spd_099.txt.gz
Wind_Speed
64 69 62 59 60 67 73 53 38 40 39 36 34 33 33 32 34 44 46 53 51 62 59 55 49 47 44 44 43 42 41 40 41 42 40 40 40 40 40 39 40 40 41 44 47 49 51
65 69 61 57 64 71 51 33 29 36 35 36 36 29 30 29 30 32 36 44 48 48 57 54 39 39 37 42 42 40 40 39 38 38 39 40 38 37 37 37 38 39 41 44 47 50 51
69 70 58 62 71 63 44 27 26 28 28 21 23 29 34 32 26 25 25 36 43 42 48 50 47 45 33 40 38 38 38 36 36 36 34 34 34 34 35 36 38 40 41 43 47 51 54
70 64 58 67 70 48 38 26 23 23 18 14 17 26 26 31 28 23 19 27 34 41 41 45 46 45 46 41 37 34 32 31 31 32 31 32 31 32 34 35 36 37 40 41 46 52 58
69 58 57 68 67 45 33 31 23 25 20 15 14 9 24 23 28 22 21 18 32 36 36 40 37 31 36 34 31 33 30 29 29 29 29 28 28 28 30 30 32 34 39 43 45 46 48
66 56 58 67 68 46 37 30 21 19 20 15 14 6 9 17 24 23 21 22 23 32 36 34 32 31 33 34 38 33 29 27 26 26 25 25 24 25 26 27 29 31 36 32 30 31 28
66 56 59 66 68 43 42 33 14 16 19 15 14 4 7 16 26 27 20 22 25 29 32 37 37 32 28 28 28 26 22 21 21 22 21 22 24 23 24 26 28 34 28 29 20 27 20
67 56 58 63 68 55 32 22 15 15 20 20 8 5 10 19 39 31 20 19 29 29 29 30 29 26 26 24 23 21 19 19 19 20 20 21 20 20 22 24 23 24 22 21 24 29 39
66 58 55 62 66 65 51 14 23 23 23 18 13 10 25 37 49 36 25 29 37 34 34 34 32 26 18 22 20 17 17 17 17 16 17 17 16 19 20 20 19 24 20 22 26 34 41
65 61 53 58 65 63 56 38 32 30 27 27 22 38 43 39 44 41 34 34 32 36 34 28 28 30 23 19 17 17 15 14 14 14 16 18 17 16 15 19 21 18 19 25 33 41 36
62 61 53 54 58 62 58 52 47 44 39 42 46 38 32 24 37 33 33 25 30 33 36 29 26 25 22 16 16 14 13 13 14 14 16 14 15 14 18 19 16 16 21 28 28 30 27
59 58 55 52 52 59 56 49 53 48 44 46 47 37 33 33 46 38 26 28 34 34 26 28 23 24 21 18 15 12 10 9 10 14 17 18 15 17 16 10 12 18 22 25 27 21 23
56 54 56 55 51 52 50 50 47 47 45 44 38 38 36 37 35 34 36 33 33 29 30 27 22 18 16 14 11 8 4 5 4 1 5 13 14 12 9 8 12 15 17 20 15 16 17
57 51 55 58 53 47 48 45 44 46 44 37 38 41 38 34 38 34 34 30 28 28 26 24 21 17 13 10 10 7 6 8 8 7 8 7 8 9 3 7 8 11 19 18 16 20 20
56 52 52 57 57 53 47 46 40 39 41 40 33 29 34 35 32 33 30 28 25 27 24 20 19 16 12 10 11 14 14 13 14 14 12 10 6 1 4 6 9 11 9 11 12 18 20
54 52 45 53 56 54 52 50 46 40 38 35 34 31 26 28 32 31 28 24 26 24 23 22 22 27 25 23 21 16 16 17 15 13 9 4 4 3 2 3 4 6 9 9 13 16 19
50 51 48 44 52 53 50 48 49 48 45 45 40 37 37 31 31 31 22 26 27 26 28 31 30 28 25 23 21 19 20 17 14 12 9 9 9 10 9 10 11 10 9 8 12 13 17
55 46 46 43 41 46 48 47 46 48 46 46 43 41 41 39 35 32 30 31 34 34 31 29 26 24 23 22 21 20 19 17 15 14 12 11 11 10 10 10 9 9 12 11 11 12 14
52 48 42 43 41 38 41 43 45 42 44 45 43 40 37 35 32 31 30 31 31 28 26 22 20 20 21 21 20 18 17 17 16 12 10 9 8 8 7 7 7 8 9 9 11 11 13
46 47 44 38 39 35 34 36 37 39 39 39 38 38 40 38 33 30 30 29 25 22 21 19 19 23 22 20 20 18 15 12 11 9 8 7 6 6 6 6 7 7 8 6 6 8 10
41 42 43 39 33 34 31 31 31 31 33 34 37 36 35 32 31 31 30 29 26 24 20 20 20 22 20 18 15 12 10 8 5 4 4 5 6 8 10 11 10 6 5 5 4 5 6
35 37 38 39 38 29 27 27 25 27 27 27 28 30 31 29 28 26 25 25 25 24 23 20 18 18 15 12 10 9 6 2 1 4 8 10 12 14 14 11 10 8 4 2 5 6 8
31 31 33 34 35 37 28 23 22 20 21 22 23 22 25 27 26 24 24 24 23 23 24 23 21 18 15 13 10 7 4 2 4 7 8 10 10 8 8 6 4 5 2 4 3 1 1
28 28 26 29 30 32 33 28 17 17 16 16 17 19 17 18 21 21 20 18 18 18 18 18 17 15 13 11 9 7 4 2 4 6 8 9 9 9 9 7 6 4 1 1 2 2 2
25 25 24 23 26 28 32 30 28 14 11 11 10 11 12 11 12 12 15 16 15 14 13 13 12 10 9 7 6 5 4 4 4 6 7 9 9 9 9 9 6 6 4 2 1 2 1
24 22 22 21 22 23 26 30 28 28 11 8 6 7 7 7 5 6 6 9 9 10 10 9 8 8 8 8 9 8 7 7 7 8 10 10 11 11 11 10 8 7 7 5 4 3 3
26 22 19 19 19 21 22 23 27 28 28 11 8 5 4 4 3 3 2 2 2 2 3 3 3 3 5 6 8 10 11 13 13 13 12 13 13 15 14 12 11 11 10 9 8 9 7
29 26 20 16 16 16 18 20 19 23 27 28 15 13 11 8 8 7 6 6 6 6 7 8 8 7 5 6 7 9 9 11 13 15 18 17 17 16 16 16 16 14 14 13 12 13 13
29 28 24 17 16 13 12 15 16 15 20 23 23 25 10 17 15 13 13 12 11 12 13 13 14 16 17 18 17 16 16 17 18 17 22 22 22 21 22 20 20 19 19 18 18 18 17

GFSGBSN_500_spd_102.txt.gz
Wind_Speed
69 73 56 54 60 65 49 34 26 22 22 28 24 21 25 25 30 34 40 41 53 49 56 59 53 51 36 49 49 46 45 44 42 40 39 37 40 40 40 40 39 38 40 42 42 45 47
70 67 54 59 62 58 41 24 15 23 21 19 21 18 28 22 28 22 31 42 47 51 47 58 58 50 30 25 40 47 44 43 42 40 38 38 38 37 38 38 38 38 39 40 42 45 47
70 62 56 63 63 50 36 26 15 20 23 21 15 14 22 20 24 24 22 30 35 49 48 51 55 50 50 36 33 41 42 41 39 37 36 35 35 34 34 34 34 35 36 38 41 44 47
70 60 61 67 60 42 37 27 22 22 21 21 15 9 19 20 25 23 19 27 31 44 47 42 48 48 36 44 42 43 38 37 35 34 32 31 30 29 30 30 31 32 34 35 39 42 45
68 59 63 68 61 42 43 33 32 19 18 20 15 11 15 22 26 22 22 27 36 42 46 41 46 29 40 26 31 33 35 32 31 30 28 26 26 26 27 27 29 30 31 34 37 43 47
64 58 64 67 66 49 18 28 23 18 20 16 12 6 12 21 23 23 20 30 40 42 46 44 54 44 42 37 32 33 33 31 28 25 22 22 23 24 24 25 26 27 31 36 41 44 44
60 55 61 62 64 63 51 29 27 25 20 17 5 13 22 28 28 23 15 39 39 42 42 39 44 42 39 37 36 32 27 27 24 21 22 22 21 21 22 24 26 29 32 35 39 40 39
60 55 58 55 61 66 62 48 36 28 26 18 13 21 27 32 34 26 18 35 37 42 45 39 32 34 33 28 29 28 29 22 19 18 17 19 19 19 21 21 23 29 33 34 33 34 33
61 54 55 52 55 61 67 63 60 47 42 36 25 28 40 38 33 26 31 30 40 43 45 41 33 26 19 21 23 24 22 17 15 16 17 18 16 17 18 20 25 28 28 29 27 29 37
61 55 53 54 51 55 60 60 59 54 50 45 41 48 39 34 28 26 27 33 35 36 34 31 28 25 23 21 20 18 16 14 14 14 15 15 15 17 18 20 23 24 23 20 25 33 35
61 56 52 51 50 50 53 56 56 53 42 42 46 40 33 26 27 27 36 35 38 37 44 35 29 24 20 17 14 11 10 10 12 13 14 15 17 17 18 21 20 16 15 21 27 31 32
60 59 55 52 49 48 49 51 51 50 48 48 44 36 37 34 29 32 30 29 30 28 25 28 24 19 17 14 11 10 10 10 11 14 17 18 18 18 19 15 9 13 16 21 26 25 27
58 58 57 55 53 48 44 43 47 45 43 44 39 42 42 40 39 37 36 35 30 26 27 24 23 18 15 13 11 8 7 9 12 15 18 21 21 17 8 4 10 14 15 18 16 18 22
56 55 55 56 54 52 45 39 36 39 37 38 41 40 40 40 36 31 29 25 24 24 24 23 21 17 15 12 9 5 2 3 4 2 1 4 5 8 1 6 9 10 14 14 10 17 21
54 53 52 52 54 54 51 44 35 28 33 34 35 36 35 32 31 31 29 28 25 23 21 19 18 16 14 11 7 12 10 11 13 13 15 13 8 3 1 4 8 8 8 9 12 15 18
58 51 49 49 51 52 51 49 47 36 27 31 33 33 32 30 29 26 24 22 21 20 19 18 18 18 21 21 17 16 16 16 15 14 13 9 8 7 6 5 7 10 11 11 14 15 16
55 52 48 45 45 48 48 46 44 44 41 27 23 23 24 22 23 24 18 23 31 31 29 28 27 26 24 23 22 19 16 14 15 15 14 13 12 11 11 11 12 12 11 11 13 16 17
50 52 47 44 41 41 43 44 42 40 36 40 35 31 30 36 32 32 34 33 31 30 28 26 26 26 25 23 21 20 20 19 18 17 16 14 13 12 11 11 10 10 11 11 13 15 17
45 45 49 45 40 38 36 38 38 37 36 35 30 31 35 36 33 32 30 28 26 25 23 25 25 25 25 23 22 21 18 16 14 13 11 10 10 10 9 9 10 9 8 10 12 12 14
41 42 41 44 44 36 34 31 31 32 32 31 33 29 28 30 26 23 24 24 25 25 25 26 26 25 23 22 19 16 14 12 10 10 10 9 10 11 12 12 11 13 13 10 13 15 14
38 38 38 38 39 43 31 30 27 26 28 27 28 29 28 24 21 21 21 20 21 21 22 22 21 19 17 15 13 11 8 6 7 6 8 11 12 14 15 12 10 10 11 14 14 16 17
35 34 34 34 35 34 40 28 25 24 21 23 22 22 23 23 22 20 20 18 17 17 16 16 14 12 9 8 5 2 2 4 5 9 11 11 10 9 12 12 11 11 12 10 10 15 17
35 32 31 30 30 31 31 36 23 18 19 17 18 17 17 19 19 18 18 17 17 16 15 13 10 8 7 5 3 0 2 5 6 7 8 9 8 7 7 6 6 8 8 10 10 10 9
33 31 29 28 26 26 26 28 31 19 12 13 13 13 14 13 13 14 14 14 13 13 11 11 10 9 7 6 3 0 2 5 7 8 11 12 11 10 9 8 8 7 7 7 8 8 9
32 29 27 26 24 21 22 23 26 28 17 8 10 9 9 10 10 10 9 9 8 7 6 6 4 2 1 2 2 3 4 6 8 10 13 14 15 14 12 10 10 10 10 10 10 10 9
32 28 28 25 24 21 18 18 21 24 27 15 8 8 7 6 6 7 8 8 7 6 6 5 5 6 7 8 9 9 10 11 10 11 14 13 14 16 17 16 14 13 12 13 12 14 13
33 28 26 25 21 22 20 14 15 18 20 22 17 11 12 9 6 6 7 9 9 10 10 10 12 12 14 15 16 17 18 21 20 22 23 23 21 19 19 18 15 19 19 18 17 16 17
33 29 27 26 23 20 20 17 10 12 14 16 18 20 12 15 14 11 11 11 12 13 13 15 16 18 19 21 23 25 25 26 26 28 29 29 30 28 27 26 23 22 22 21 21 21 20
30 34 29 30 23 21 19 19 15 10 12 11 12 15 17 16 7 13 17 17 17 18 19 22 24 25 27 29 30 32 35 35 35 32 34 34 37 37 34 32 34 32 27 27 26 25 25

GFSGBSN_500_spd_105.txt.gz
Wind_Speed
69 70 59 61 62 42 31 26 19 18 12 13 17 20 26 32 24 25 36 40 54 59 64 64 49 30 27 29 43 50 49 46 45 44 42 40 39 39 38 39 39 39 40 41 40 41 41
72 63 60 66 62 42 38 31 20 9 9 10 10 12 16 24 20 25 25 37 53 55 56 61 63 42 23 23 32 49 46 45 44 42 39 38 37 36 36 36 38 38 38 38 38 40 39
70 65 61 68 67 56 21 22 20 7 6 11 10 11 11 29 15 24 24 35 48 52 57 61 63 53 35 23 30 33 40 43 41 39 38 37 35 33 34 35 35 34 35 36 36 36 36
69 64 61 67 68 64 36 15 15 19 16 15 11 11 9 25 20 24 21 30 37 47 54 52 58 44 46 25 26 34 40 43 38 37 36 34 34 33 34 33 32 32 32 32 33 33 34
68 64 61 66 67 63 66 32 22 21 17 13 13 6 12 18 24 19 20 21 33 41 50 53 57 58 45 44 23 20 24 29 33 34 33 32 32 30 29 29 28 28 28 28 31 32 33
69 64 59 61 64 61 62 51 34 30 20 14 11 8 23 26 21 19 16 18 30 37 44 41 41 48 46 43 38 40 31 28 29 31 31 31 28 26 25 24 24 24 25 27 29 30 31
69 63 58 58 62 64 60 63 53 39 32 28 24 32 27 20 25 21 20 33 35 39 38 37 38 38 37 32 31 32 38 34 29 29 29 27 24 23 23 22 22 22 24 26 28 31 30
68 62 56 57 61 63 61 62 63 54 43 38 35 29 25 19 19 24 34 33 38 44 43 32 39 35 40 31 26 24 23 21 22 24 23 22 22 21 20 20 20 21 22 25 27 30 33
68 62 58 54 56 59 61 58 56 51 50 46 39 37 31 26 29 34 41 39 44 42 40 30 32 31 32 33 27 21 18 18 18 17 18 19 18 18 17 16 17 20 22 24 27 29 24
68 64 60 51 51 55 60 57 55 47 39 38 34 37 30 32 37 38 40 46 43 31 38 33 25 25 26 22 23 23 20 19 17 17 18 16 15 15 14 15 18 19 22 26 22 19 25
67 66 62 58 46 50 55 58 57 51 46 43 44 43 41 41 38 39 43 43 37 39 36 34 29 24 23 21 18 17 17 16 15 15 15 13 13 13 15 17 17 21 22 14 16 21 24
63 64 63 60 55 43 49 53 54 52 54 49 46 49 44 44 45 42 39 39 37 37 30 26 21 21 20 18 16 14 13 11 10 11 12 12 13 14 16 16 18 16 9 13 18 20 21
58 61 62 60 59 49 41 46 50 51 50 50 49 48 45 41 39 38 35 37 32 29 29 26 24 20 18 16 13 11 8 6 8 11 13 14 16 17 14 10 6 6 10 14 13 14 18
56 55 58 58 59 57 45 38 43 46 49 44 43 42 41 37 34 36 35 29 25 23 22 23 21 19 17 13 9 5 2 1 4 6 10 8 6 2 4 1 4 8 9 8 10 12 14
60 53 53 56 55 56 53 46 32 36 39 40 40 40 37 33 33 31 30 28 27 28 26 24 20 18 15 13 13 15 18 21 21 19 17 16 12 8 3 4 4 4 6 7 10 13 15
55 58 50 49 51 51 52 48 43 34 31 30 28 26 29 28 27 28 25 21 22 20 19 16 15 16 23 25 24 22 19 15 16 17 17 14 13 11 8 6 6 6 6 8 13 15 16
51 53 54 46 46 46 46 47 43 40 40 40 35 32 38 39 35 31 27 30 31 31 31 31 30 29 28 24 20 19 18 19 20 20 18 15 12 10 9 8 8 9 11 11 13 15 19
51 48 48 49 42 41 41 41 42 40 38 37 36 35 38 39 36 30 31 32 32 31 30 30 29 27 25 23 22 21 20 19 17 16 13 11 11 10 10 10 11 12 13 13 14 15 15
49 47 44 44 45 40 36 36 36 37 34 32 29 31 32 32 28 26 27 28 27 28 28 28 26 25 24 23 21 18 16 14 13 11 10 9 9 10 11 12 13 14 14 16 15 16 17
45 44 43 41 40 40 38 31 30 30 31 29 27 27 26 25 23 22 22 22 22 23 24 23 21 20 19 16 14 12 10 8 7 8 9 10 11 11 11 10 10 13 13 16 20 20 17
40 39 39 39 38 37 36 35 25 25 24 25 25 25 24 21 19 19 18 16 16 17 17 16 15 14 12 10 7 5 4 8 8 9 11 11 11 13 16 11 10 12 14 12 14 21 22
35 35 35 34 35 35 33 31 30 20 19 19 19 20 20 20 17 13 13 13 11 9 7 6 5 2 4 4 5 6 7 7 8 11 12 12 11 9 13 15 14 14 15 16 15 15 14
32 34 30 29 29 30 31 29 27 24 16 15 14 13 14 16 15 14 12 11 9 6 4 1 1 2 2 3 4 5 7 9 11 11 11 12 11 8 8 11 12 14 15 15 16 15 16
31 33 28 27 23 24 25 27 27 24 19 12 11 10 9 9 10 9 9 8 7 6 5 4 3 4 4 6 8 10 12 13 16 17 18 20 19 17 12 13 11 13 14 15 16 17 15
36 32 27 23 22 19 20 21 24 24 21 18 10 10 8 7 7 5 6 6 6 6 5 5 6 7 8 11 12 14 16 19 20 21 24 25 27 26 23 18 15 21 16 15 16 19 17
34 33 25 23 21 20 17 18 19 21 21 20 20 14 10 9 7 7 7 7 7 7 8 8 10 11 12 14 15 16 19 19 23 23 25 27 28 27 29 29 26 27 24 21 20 20 19
34 31 27 23 22 21 17 15 17 18 19 18 18 18 19 10 13 12 11 10 11 11 12 13 14 15 16 18 19 21 21 25 26 28 29 30 31 31 34 34 29 29 31 30 29 27 25
33 31 30 26 24 21 19 16 14 16 18 18 15 16 17 18 11 12 16 17 17 18 18 18 19 21 22 24 22 20 19 20 21 22 24 23 26 29 30 35 37 37 36 34 32 33 34
35 30 33 31 28 23 20 19 16 15 17 18 19 15 15 15 14 12 10 11 13 16 20 20 19 16 13 14 14 16 17 18 20 21 24 27 30 29 29 23 29 34 36 36 33 31 32

GFSGBSN_500_spd_108.txt.gz
Wind_Speed
67 59 57 64 67 58 30 27 19 12 15 22 17 17 25 28 33 32 26 41 47 46 49 48 55 53 53 48 46 52 53 48 47 44 43 41 37 36 36 36 37 38 38 38 38 39 39
67 56 61 65 69 65 25 7 10 13 15 13 11 7 21 21 30 33 25 36 47 42 49 47 50 43 44 42 35 44 51 49 48 44 42 40 38 36 36 36 36 37 37 37 38 39 40
66 55 62 65 67 74 25 13 16 13 10 9 8 9 10 15 22 17 26 31 47 44 53 65 45 31 28 30 32 39 49 48 46 44 41 39 37 37 35 35 35 34 35 35 36 37 38
68 58 63 67 66 70 59 30 23 9 5 7 3 3 4 25 17 16 21 28 40 52 66 62 32 38 27 26 28 37 41 48 46 42 39 38 37 36 34 34 35 34 34 34 34 34 35
69 58 64 70 59 66 66 55 45 31 19 13 12 14 17 18 16 20 19 28 34 59 64 68 32 42 22 31 31 28 38 39 40 38 37 35 35 34 34 33 33 33 32 31 31 32 31
72 61 61 68 65 57 62 60 54 48 38 37 36 28 29 24 20 17 21 31 33 54 57 58 37 30 34 23 28 28 28 30 31 31 31 30 30 30 30 31 30 29 29 28 29 28 29
73 63 61 65 69 64 55 52 54 48 40 37 34 28 22 17 17 18 22 29 45 41 60 53 19 35 40 30 30 24 19 16 16 17 20 26 30 31 29 28 27 26 26 28 28 27 25
75 68 59 63 68 67 59 54 44 43 43 35 26 21 16 15 22 26 33 40 38 47 51 49 50 34 28 33 19 20 14 17 21 22 23 26 29 28 28 28 27 26 26 25 23 23 23
73 69 55 58 65 65 60 59 55 54 49 44 41 35 29 26 27 37 43 42 41 46 40 33 41 36 21 22 16 18 19 18 17 17 18 21 22 22 23 24 24 23 21 20 19 21 27
69 70 63 53 58 60 61 58 55 52 47 41 39 44 39 35 42 46 51 47 37 39 42 34 29 36 27 27 22 21 20 15 15 16 16 16 18 19 20 21 19 18 17 17 20 22 19
65 68 65 51 53 57 57 56 57 53 54 50 45 44 48 45 46 48 45 40 39 42 45 37 32 32 31 25 19 17 15 14 15 14 14 15 17 17 17 16 15 17 17 19 18 14 15
60 63 66 60 48 48 52 53 53 52 48 48 48 47 45 44 40 36 35 33 34 37 32 29 25 23 23 17 14 14 13 14 14 14 14 15 16 15 14 15 15 16 17 10 11 14 15
63 58 61 63 57 50 43 44 47 47 45 42 43 40 39 35 34 35 35 34 30 31 28 27 25 22 20 18 16 14 12 11 11 12 12 12 13 13 13 14 13 7 5 9 11 13 15
59 60 56 58 58 52 51 47 40 37 39 38 38 36 33 29 29 30 28 30 28 31 31 28 25 22 18 15 13 10 7 6 8 9 10 11 13 10 10 5 4 5 6 8 9 10 12
55 56 56 52 54 52 50 49 47 43 39 36 32 32 32 31 29 25 22 18 22 25 24 24 23 21 18 14 11 10 11 10 10 10 9 10 11 10 6 4 2 2 3 4 6 9 11
53 51 53 52 48 50 48 46 47 46 48 46 40 34 31 28 26 24 21 22 24 23 24 22 20 20 24 25 23 20 17 17 17 17 16 15 13 10 7 3 1 2 3 4 7 9 10
52 50 49 49 47 43 45 44 42 42 42 43 39 39 41 41 39 32 23 22 23 23 23 25 29 29 26 23 21 20 21 21 20 18 16 13 10 7 5 3 4 5 7 9 10 12 14
45 48 47 46 46 42 38 39 39 35 36 37 34 35 38 39 37 31 34 34 34 33 31 28 26 24 23 23 22 20 19 17 15 13 12 11 8 6 7 8 9 11 12 14 16 15 18
42 43 45 43 41 41 37 33 33 34 31 30 29 29 31 33 30 30 29 29 28 28 26 24 23 22 21 19 17 16 15 12 10 9 8 8 9 9 9 9 10 10 13 16 19 21 21
37 40 41 40 38 36 36 33 28 27 28 27 25 24 23 24 24 24 24 24 23 22 21 19 17 15 13 12 11 10 10 10 7 8 9 9 9 11 11 10 11 12 10 10 15 19 21
36 36 34 35 35 33 31 31 28 22 22 22 21 20 20 18 16 15 16 16 15 14 13 11 8 8 6 6 6 8 11 11 11 13 14 15 14 16 21 19 16 17 17 17 15 15 14
36 34 34 30 30 29 28 27 27 24 17 17 16 16 15 15 14 12 11 9 8 7 6 5 5 7 9 9 10 10 11 13 15 14 15 15 14 10 13 19 20 20 20 19 19 21 20
38 34 32 30 25 24 24 24 24 24 22 13 13 13 11 10 10 10 10 8 7 6 7 7 8 8 9 9 9 10 10 11 12 14 15 16 16 14 11 15 16 18 19 21 22 21 22
34 33 33 28 23 22 18 18 20 20 20 21 11 9 10 10 8 6 6 7 7 7 7 7 8 9 10 10 11 11 12 13 15 17 19 21 22 20 15 15 15 18 21 21 23 23 23
34 31 31 26 21 19 21 14 15 17 17 18 17 17 6 9 10 9 8 7 6 6 7 8 9 10 11 12 12 13 16 18 19 21 24 26 27 28 29 25 20 21 22 23 19 24 24
33 28 29 24 24 21 20 18 13 12 14 14 15 16 19 9 10 12 13 13 11 10 11 11 12 14 15 17 19 19 19 20 20 18 17 19 19 20 23 23 21 27 28 23 27 26 22
28 25 27 26 25 25 23 19 16 14 14 14 14 12 14 16 18 12 13 16 17 17 18 18 17 21 19 20 18 16 15 15 16 19 21 20 21 21 24 24 19 22 24 29 30 30 27
30 27 27 26 22 24 25 22 17 16 16 15 15 13 13 12 13 14 14 13 14 15 15 16 17 15 12 13 13 14 13 15 16 20 23 23 26 26 27 29 30 26 26 23 21 24 28
35 30 27 31 28 24 24 25 21 18 18 17 17 18 15 14 14 14 16 13 12 11 13 14 10 9 11 13 13 14 16 16 17 18 21 21 24 26 27 26 30 29 28 27 25 22 21

GFSGBSN_500_spd_111.txt.gz
Wind_Speed
60 64 61 60 65 70 19 8 6 10 17 18 19 17 20 21 22 31 24 37 50 46 60 53 53 41 40 42 50 52 49 47 45 43 40 38 36 34 32 30 30 30 30 30 31 32 33
62 63 62 63 62 65 56 19 11 11 6 15 15 18 21 23 20 30 28 26 52 48 53 64 51 41 33 40 42 47 51 47 47 45 42 40 37 35 34 33 32 32 33 33 34 35 36
61 63 63 62 59 60 62 51 24 5 1 7 8 12 23 21 28 33 20 27 49 47 45 52 53 53 34 33 35 42 48 48 46 45 44 42 38 37 35 35 34 34 34 35 34 35 35
59 63 64 62 58 54 50 53 50 37 13 5 5 8 8 11 21 25 23 22 49 48 44 46 49 44 36 36 36 36 38 44 46 44 43 42 40 39 36 35 34 33 34 35 34 35 36
58 60 65 67 62 54 45 43 43 45 43 35 27 21 18 23 24 21 20 18 46 45 45 48 54 33 27 37 31 34 32 42 46 45 42 40 38 36 34 33 34 33 34 33 35 36 36
57 59 62 67 64 60 52 47 35 33 31 29 25 24 24 24 19 23 23 26 49 46 45 49 32 38 25 42 33 36 36 40 43 42 39 37 35 34 33 32 32 32 33 33 35 33 35
66 58 61 65 65 65 56 46 42 36 26 21 20 19 17 18 20 16 21 36 36 36 29 37 31 25 29 26 28 28 33 36 39 37 33 33 32 30 29 29 27 28 29 31 32 32 31
71 56 55 62 64 64 65 56 48 49 42 34 20 20 24 29 31 35 33 36 31 31 34 36 27 32 32 30 25 26 27 24 25 24 25 26 27 28 30 33 36 38 35 31 31 31 30
71 67 52 54 59 61 62 63 52 51 51 48 41 37 37 45 41 42 35 44 35 42 38 31 24 25 32 32 24 25 23 19 17 18 19 20 21 24 27 29 30 31 30 29 28 27 28
67 69 64 52 51 55 58 59 59 55 52 51 50 52 50 50 46 36 35 41 33 33 35 35 23 16 20 15 13 15 12 12 11 11 13 16 17 20 22 24 25 25 24 25 24 24 24
62 65 65 60 54 48 52 54 55 50 48 48 46 52 48 44 40 36 32 35 29 28 27 21 20 16 11 15 12 11 11 10 10 12 14 15 16 17 19 20 20 21 21 21 20 21 23
61 61 64 62 58 55 47 48 50 49 47 45 40 39 38 43 40 33 33 34 28 24 22 23 26 20 13 12 11 11 12 11 11 13 14 13 14 15 16 16 17 18 18 18 20 19 17
58 57 59 60 59 56 53 48 43 45 45 44 43 39 36 33 36 36 37 32 27 26 26 26 26 21 18 11 6 7 9 11 11 12 12 13 14 15 15 15 15 16 16 15 14 16 17
55 56 54 55 56 54 53 51 48 42 38 37 37 36 33 34 31 26 26 23 23 26 22 23 19 16 13 12 11 11 11 10 11 10 11 12 12 12 13 14 14 11 11 12 13 12 14
58 53 52 50 50 51 50 48 49 47 45 37 32 32 32 31 29 25 23 17 23 25 24 23 21 18 16 13 11 8 6 7 8 10 10 11 11 10 7 7 7 8 9 10 10 12 12
50 54 49 48 45 45 46 44 44 45 46 44 39 29 27 26 26 27 21 21 24 23 22 20 15 14 16 19 20 20 19 18 16 14 11 10 9 5 3 2 4 5 8 9 10 11 12
46 46 48 45 43 40 40 41 38 37 39 41 40 40 42 42 37 27 18 18 21 25 27 29 29 27 26 24 24 22 20 18 17 15 12 9 6 4 2 3 6 9 11 13 15 16 19
44 44 41 42 39 38 34 34 35 32 32 35 36 37 38 39 38 35 36 35 33 31 29 27 27 26 24 22 19 17 15 13 11 9 7 5 3 5 7 8 9 12 14 16 19 20 20
42 41 41 37 37 34 34 30 29 29 28 26 27 29 30 31 28 27 27 27 25 25 25 24 22 19 17 15 13 12 11 8 7 6 6 8 8 8 8 8 8 9 10 13 16 20 20
40 40 37 37 34 32 30 30 24 23 23 23 21 19 21 23 22 21 20 20 19 18 17 15 14 13 11 9 8 9 10 9 9 9 9 9 7 11 12 12 10 11 12 11 13 15 15
38 38 35 34 31 30 27 25 26 20 18 19 18 17 16 16 15 13 13 12 11 9 9 9 10 11 11 10 10 9 9 9 8 9 9 9 10 9 17 17 19 19 19 20 18 19 18
37 35 34 33 27 27 25 23 21 22 17 12 14 14 13 13 13 12 11 10 11 10 10 10 10 10 10 10 11 11 11 12 13 13 13 14 13 9 13 19 19 19 20 20 21 23 23
34 36 32 30 26 23 24 22 20 18 18 19 11 8 9 8 8 8 8 8 9 9 9 10 10 10 10 10 11 12 13 15 16 19 20 21 21 19 11 19 20 21 22 23 22 22 22
34 36 35 27 23 24 22 20 17 17 15 16 16 16 7 8 9 7 5 6 5 6 7 8 8 10 12 13 14 16 18 20 21 22 23 23 22 21 17 18 20 24 28 28 27 27 28
35 37 35 25 22 20 22 22 15 14 15 13 14 14 15 12 9 10 12 11 11 11 9 10 11 12 13 15 15 17 17 17 16 15 16 17 17 19 21 20 15 18 27 28 30 32 33
38 40 33 23 23 20 18 18 18 14 13 14 13 14 13 12 14 13 10 12 13 14 15 16 16 17 18 18 15 12 12 13 12 12 18 18 21 22 26 24 24 25 26 23 22 22 26
39 39 30 23 21 19 20 21 15 16 15 14 14 14 14 14 13 12 13 13 12 11 12 14 16 17 15 12 11 10 10 12 14 16 18 18 19 24 24 25 21 23 24 26 25 25 24
43 39 28 24 23 21 19 23 21 18 18 18 15 14 15 16 15 14 15 15 14 13 12 13 13 12 10 12 13 13 14 14 17 19 20 20 23 22 25 27 26 26 23 24 25 24 25
41 40 32 27 26 24 22 22 26 22 19 17 17 16 16 17 18 18 18 19 20 19 17 16 15 16 16 17 17 19 19 19 19 19 23 21 26 26 26 27 28 28 28 27 25 25 26

GFSGBSN_500_spd_114.txt.gz
Wind_Speed
59 62 68 68 59 50 51 26 8 1 7 12 12 18 14 16 15 7 19 39 39 37 44 49 46 50 37 46 44 48 48 45 42 40 36 36 36 34 32 31 29 27 26 26 26 25 26
59 65 68 69 61 50 44 43 24 6 4 6 21 17 15 16 17 11 21 25 44 41 55 61 43 41 30 37 43 45 46 45 42 40 39 37 37 34 33 32 30 28 28 27 27 27 29
58 64 68 70 63 54 39 38 40 23 4 1 6 20 17 20 24 17 27 23 43 48 59 59 44 31 35 37 40 44 47 45 44 40 39 38 37 35 33 32 30 30 29 29 30 31 32
56 63 68 70 67 60 48 30 32 33 31 14 7 14 18 28 29 20 24 20 37 52 55 50 41 41 44 37 38 42 45 47 45 42 41 39 37 36 35 33 32 31 31 32 31 32 33
61 59 66 69 69 61 55 40 26 27 29 27 26 16 10 17 20 26 23 20 40 48 49 59 50 26 23 34 37 37 42 47 44 44 41 40 38 36 36 35 34 33 33 33 33 33 34
69 61 61 67 66 64 58 53 38 23 23 23 24 26 30 32 29 28 18 27 48 44 41 53 54 28 22 37 32 35 36 42 44 43 41 40 38 37 36 35 33 32 33 35 37 33 34
70 71 56 62 65 65 64 58 51 42 27 28 25 24 24 30 22 18 20 36 38 40 39 37 31 26 26 26 28 30 33 34 40 40 38 38 36 34 33 33 33 33 33 34 34 35 32
67 70 69 58 63 62 61 60 56 55 43 35 36 28 25 23 29 24 38 32 29 29 27 40 35 28 26 26 22 27 26 29 36 39 39 38 34 32 32 31 32 32 31 32 34 40 41
66 67 71 62 57 61 59 56 54 58 55 55 45 47 43 50 47 39 36 38 36 37 35 36 24 23 29 26 22 24 25 25 27 31 32 30 29 29 28 29 31 33 35 36 34 32 34
63 64 67 69 55 56 57 54 53 54 57 50 45 43 47 48 48 45 41 40 44 36 41 34 32 32 30 27 27 25 21 20 19 19 21 23 24 25 26 28 29 28 29 29 29 27 28
60 61 63 65 65 53 52 54 51 53 51 51 44 39 38 44 49 45 41 28 34 38 37 31 32 28 28 24 24 22 20 19 19 20 20 20 21 21 22 22 22 21 21 23 24 25 25
57 57 59 60 62 61 52 49 51 49 50 48 46 38 35 32 28 28 28 24 21 20 18 18 22 23 21 19 18 17 17 16 14 12 12 13 14 14 15 16 17 19 21 22 22 23 23
54 53 53 56 57 59 58 56 46 46 47 47 44 39 35 31 27 27 25 22 16 12 14 13 12 12 12 11 9 7 7 6 6 8 9 9 11 12 14 16 17 19 19 20 21 22 23
53 51 49 49 51 52 55 54 57 45 40 41 41 40 32 31 28 25 21 21 18 19 20 20 13 13 9 6 7 7 7 7 7 6 7 9 10 11 12 14 16 17 18 19 19 17 15
50 50 47 45 45 47 47 48 49 51 50 36 34 36 35 34 33 30 22 16 13 17 17 16 14 12 11 9 7 4 2 0 2 5 7 7 8 9 10 13 13 13 13 14 14 14 12
49 47 46 43 40 40 41 41 43 44 46 47 40 31 32 33 32 30 23 22 21 20 19 18 14 12 12 15 17 18 16 14 12 7 3 3 4 3 2 5 7 8 10 11 13 14 15
49 47 43 42 39 35 34 35 35 37 38 40 40 42 44 43 39 32 24 29 29 29 30 28 29 28 26 23 21 19 18 17 15 13 11 7 4 1 2 5 7 10 12 13 14 17 20
43 45 45 39 39 35 31 29 30 30 31 32 34 34 36 37 36 34 33 32 32 32 30 26 24 22 20 19 18 15 13 13 11 9 5 3 2 5 7 10 11 12 14 15 18 19 19
42 42 42 41 36 36 32 28 24 25 25 26 26 26 27 28 26 27 27 27 26 24 22 20 18 16 16 16 16 15 12 11 9 7 5 4 4 5 5 6 8 9 12 13 16 19 17
36 39 40 39 34 32 31 27 26 20 20 20 20 20 19 20 20 19 19 18 18 16 15 15 14 14 12 12 12 12 10 9 9 9 9 11 12 13 14 14 10 11 14 16 17 16 19
33 35 38 36 34 29 28 26 22 22 15 15 15 15 16 15 15 15 14 14 13 12 12 12 12 12 11 11 10 10 10 10 10 10 11 12 14 15 19 22 20 18 19 20 20 19 21
33 32 34 37 30 28 26 24 21 18 17 16 10 10 11 11 12 12 12 12 12 12 11 11 11 11 11 11 11 11 11 11 13 15 15 16 16 14 13 25 27 25 27 26 26 26 25
33 32 33 33 30 23 23 22 20 18 16 13 15 10 6 7 7 7 8 8 8 9 9 9 10 10 11 11 12 13 15 16 16 16 15 17 17 15 14 17 20 19 21 24 26 28 32
37 33 31 31 29 23 21 20 18 17 16 15 13 11 14 9 6 6 5 5 5 6 8 9 9 10 11 12 13 13 13 12 11 12 15 15 15 17 17 17 19 19 22 23 24 23 25
38 37 32 28 27 22 20 16 19 14 13 15 14 13 10 11 13 11 8 10 10 9 9 10 11 13 15 14 13 11 11 12 12 13 16 19 19 20 21 18 17 19 21 23 24 26 27
40 36 34 28 26 22 20 18 17 12 15 15 15 14 13 11 12 12 11 11 12 13 12 13 12 13 13 11 12 12 11 13 11 14 16 18 19 21 25 22 23 24 24 23 24 22 23
42 41 37 31 26 25 22 18 17 14 16 15 15 15 14 13 12 14 14 13 11 11 11 12 14 14 12 11 11 11 9 14 16 17 17 19 21 22 24 26 20 24 26 27 25 25 22
46 41 40 40 32 27 26 22 19 19 18 18 15 15 14 14 10 14 15 16 17 15 15 14 14 17 17 17 17 17 17 15 17 20 20 23 25 24 25 29 27 25 26 28 29 30 29
50 46 40 43 41 29 29 25 21 20 20 20 19 18 16 14 14 14 15 16 19 19 19 18 19 21 22 21 22 23 23 23 24 21 24 26 30 30 29 29 33 28 29 27 29 31 31

GFSGBSN_500_spd_117.txt.gz
Wind_Speed
56 65 67 65 59 49 36 39 12 7 4 5 3 18 16 23 34 24 27 29 29 41 55 60 53 35 36 37 39 39 42 43 42 41 38 35 34 31 31 30 29 28 27 25 24 23 22
55 64 66 63 60 52 36 35 35 11 7 3 7 17 15 14 20 14 17 28 32 39 46 58 54 44 35 35 40 37 41 42 41 39 37 35 33 32 32 31 30 29 27 26 25 24 23
55 64 67 63 65 57 41 29 30 28 14 3 3 14 13 18 18 12 17 28 33 37 43 49 53 39 40 39 39 38 38 39 39 39 36 35 35 33 31 30 30 29 28 26 26 25 25
59 65 68 67 68 67 51 29 28 31 30 17 6 9 17 19 20 13 14 20 37 38 45 50 45 40 35 36 39 37 38 41 41 40 38 36 36 35 34 32 30 29 28 27 28 27 28
71 62 68 70 67 71 60 40 28 28 28 26 24 6 21 21 16 13 12 19 40 42 51 60 39 43 43 40 40 39 41 41 41 41 39 36 34 35 35 33 33 32 30 29 28 31 31
75 62 64 69 68 67 68 60 43 31 28 37 40 41 24 22 16 11 19 29 37 38 42 50 36 26 29 35 33 36 39 40 40 40 39 36 34 34 34 33 32 33 33 33 33 32 33
72 74 62 66 67 67 68 67 66 47 34 35 39 41 40 36 28 20 24 36 34 30 40 40 31 25 35 25 21 30 35 40 40 40 39 38 36 34 35 35 35 34 34 35 36 36 34
68 71 68 62 65 66 65 65 61 65 63 55 41 33 47 47 44 39 33 32 28 18 37 40 23 24 28 28 29 31 35 39 40 41 42 39 38 37 36 35 34 34 34 35 37 37 39
65 67 69 62 61 63 63 61 57 57 60 53 53 48 53 45 39 39 32 27 22 21 34 30 17 17 17 23 26 27 27 30 36 38 37 36 35 35 34 34 33 33 34 36 38 39 42
61 63 66 67 59 59 61 60 56 51 52 53 51 50 49 47 48 42 37 41 41 32 31 21 19 11 15 19 17 18 23 25 25 30 32 34 33 32 32 32 33 33 36 38 37 37 34
57 59 61 64 65 57 57 58 57 51 43 42 46 50 47 42 47 48 48 43 43 35 26 23 21 15 15 17 16 19 18 21 20 19 21 21 23 25 27 28 28 29 30 30 29 26 24
54 55 57 58 61 63 55 53 54 51 50 48 49 44 38 39 39 37 37 46 46 42 39 37 35 32 28 27 24 25 23 21 20 20 18 18 17 19 21 23 24 24 23 22 22 23 24
51 52 52 54 55 57 58 51 47 47 49 45 42 40 38 36 37 34 29 27 27 29 29 29 30 26 22 20 21 18 17 18 15 15 15 15 16 16 16 16 16 17 19 21 23 22 22
48 48 48 48 49 50 53 54 49 42 40 40 40 39 35 33 34 37 29 22 23 23 23 22 19 17 14 13 13 12 12 10 9 8 8 9 9 10 10 12 15 16 18 19 21 21 21
51 45 45 43 43 44 45 47 48 51 45 39 36 37 37 38 38 35 29 22 25 24 21 20 19 19 17 14 11 10 8 7 6 5 4 5 6 7 8 10 13 15 14 15 14 12 11
49 49 43 41 40 38 39 39 40 41 43 46 46 43 40 37 34 30 25 24 26 26 26 25 25 27 26 24 21 17 11 7 5 4 2 1 1 2 2 4 6 8 8 11 13 12 12
42 46 45 39 37 36 33 34 33 33 34 35 38 39 41 42 41 38 34 37 37 36 34 30 28 26 23 23 23 22 21 19 17 14 11 7 4 1 4 7 9 12 13 14 14 18 19
37 40 44 40 36 32 31 28 28 28 28 28 30 30 32 33 33 32 30 29 28 28 26 23 23 23 23 22 19 18 16 14 11 9 7 5 3 3 6 8 9 13 16 17 19 20 22
33 37 38 40 38 32 28 26 23 23 24 24 23 23 24 25 25 25 23 23 23 22 21 19 18 18 18 18 17 15 14 13 11 9 7 6 6 7 7 10 12 11 15 16 18 18 14
33 33 35 36 36 32 28 23 21 19 17 18 19 19 19 18 19 19 19 19 19 18 18 18 17 17 16 16 15 14 13 12 11 10 10 10 12 12 14 16 13 12 17 21 22 19 23
32 32 32 32 34 31 28 24 19 18 18 13 13 14 14 15 16 16 15 16 16 16 16 16 15 15 14 14 13 12 11 11 11 11 11 11 11 12 14 19 20 16 14 20 20 20 24
29 31 32 30 29 29 24 24 21 16 15 14 15 9 9 10 11 12 12 12 12 12 12 12 12 12 12 11 11 12 12 11 13 13 13 13 13 10 14 18 19 16 19 19 18 16 19
27 28 29 29 26 27 24 24 20 19 15 12 11 12 11 7 6 6 6 7 8 8 8 8 8 9 10 11 11 11 10 8 7 9 12 12 12 11 12 14 14 15 16 18 19 19 19
30 30 29 25 27 26 24 22 18 17 15 14 12 10 9 10 12 7 4 4 4 5 5 6 7 8 7 7 6 7 7 9 11 13 12 14 13 14 13 12 15 17 20 19 19 21 21
34 33 34 28 26 25 23 19 17 20 12 15 14 12 10 8 6 7 10 9 7 5 5 6 5 5 5 6 6 7 7 8 11 13 15 16 18 18 18 14 14 18 20 20 19 23 22
38 37 35 34 24 29 26 23 16 15 13 15 16 15 12 9 9 8 7 7 9 9 8 7 6 7 5 3 4 5 6 9 9 10 14 15 16 18 21 22 22 20 21 22 21 21 24
45 43 38 36 34 27 26 25 22 18 16 11 11 13 15 12 12 11 9 9 9 10 11 12 13 12 12 11 11 10 11 13 13 13 15 18 20 22 23 23 19 22 25 26 25 25 25
47 47 44 42 39 36 32 26 22 23 21 18 11 9 11 13 14 12 11 14 16 12 11 14 11 14 15 16 16 16 15 16 17 17 19 21 25 25 26 26 25 26 26 26 25 24 27
49 49 47 46 44 41 35 31 24 24 23 23 19 13 10 9 11 13 15 18 19 15 15 14 15 17 17 18 18 19 20 19 18 16 21 21 25 27 27 22 31 33 29 29 27 27 28